<?xml version='1.0' encoding='UTF-8'?><gpx version="1.1" creator="JPX - https://github.com/jenetics/jpx" xmlns="http://www.topografix.com/GPX/1/1"><trk><trkseg><trkpt lat="47.47736366208447" lon="6.916027749964422"><ele>446.0</ele><time>2026-05-03T14:54:03.004Z</time></trkpt><trkpt lat="47.47740763590254" lon="6.916108438858706"><ele>446.0</ele><time>2026-05-03T14:54:16.001Z</time></trkpt><trkpt lat="47.47739704467136" lon="6.916202802572106"><ele>446.0</ele><time>2026-05-03T14:54:21.001Z</time></trkpt><trkpt lat="47.47733410622252" lon="6.9162213029751864"><ele>446.0</ele><time>2026-05-03T14:54:26.001Z</time></trkpt><trkpt lat="47.47726978954186" lon="6.91619223801837"><ele>446.0</ele><time>2026-05-03T14:54:32Z</time></trkpt><trkpt lat="47.47746422425609" lon="6.916094217455868"><ele>446.0</ele><time>2026-05-03T14:54:47Z</time></trkpt><trkpt lat="47.477289657032436" lon="6.916180314616966"><ele>446.0</ele><time>2026-05-03T14:54:55Z</time></trkpt><trkpt lat="47.477227371506764" lon="6.91620610252536"><ele>446.0</ele><time>2026-05-03T14:55:21.022Z</time></trkpt><trkpt lat="47.47758923538911" lon="6.9161510578945675"><ele>446.0</ele><time>2026-05-03T14:55:27.999Z</time></trkpt><trkpt lat="47.47764490031902" lon="6.9160782120147255"><ele>446.0</ele><time>2026-05-03T14:55:28.999Z</time></trkpt><trkpt lat="47.47724360713606" lon="6.916180397331459"><ele>445.99999999999994</ele><time>2026-05-03T14:55:30.999Z</time></trkpt><trkpt lat="47.47728701276362" lon="6.916261689727268"><ele>446.0</ele><time>2026-05-03T14:55:33.999Z</time></trkpt><trkpt lat="47.4773851038793" lon="6.916279754812988"><ele>446.0</ele><time>2026-05-03T14:55:50.999Z</time></trkpt><trkpt lat="47.477429484013314" lon="6.916350687413614"><ele>446.0</ele><time>2026-05-03T14:55:52.999Z</time></trkpt><trkpt lat="47.47748362366919" lon="6.916401841197049"><ele>445.99999999999994</ele><time>2026-05-03T14:55:54.999Z</time></trkpt><trkpt lat="47.47757708259622" lon="6.91645852877421"><ele>446.0</ele><time>2026-05-03T14:55:56.999Z</time></trkpt><trkpt lat="47.47760175453639" lon="6.916614987333124"><ele>447.75</ele><time>2026-05-03T14:55:58.999Z</time></trkpt><trkpt lat="47.477581164760196" lon="6.916773626148198"><ele>449.5</ele><time>2026-05-03T14:56:00.999Z</time></trkpt><trkpt lat="47.47755065159353" lon="6.9169762174703155"><ele>451.25</ele><time>2026-05-03T14:56:02.999Z</time></trkpt><trkpt lat="47.477525728079065" lon="6.917116975826316"><ele>453.0</ele><time>2026-05-03T14:56:03.999Z</time></trkpt><trkpt lat="47.477492137046056" lon="6.917282640942339"><ele>453.0</ele><time>2026-05-03T14:56:04.999Z</time></trkpt><trkpt lat="47.4774368730983" lon="6.91748578442339"><ele>453.0</ele><time>2026-05-03T14:56:05.999Z</time></trkpt><trkpt lat="47.477371502691746" lon="6.917720976382932"><ele>453.0</ele><time>2026-05-03T14:56:06.999Z</time></trkpt><trkpt lat="47.47727642514241" lon="6.918016314370179"><ele>455.0</ele><time>2026-05-03T14:56:08Z</time></trkpt><trkpt lat="47.47719104816273" lon="6.9182835870310635"><ele>457.0</ele><time>2026-05-03T14:56:09Z</time></trkpt><trkpt lat="47.477116645225614" lon="6.918534773464449"><ele>459.0</ele><time>2026-05-03T14:56:10Z</time></trkpt><trkpt lat="47.47707410124609" lon="6.918767925355967"><ele>459.0</ele><time>2026-05-03T14:56:11Z</time></trkpt><trkpt lat="47.476973415548585" lon="6.918942945792228"><ele>459.0</ele><time>2026-05-03T14:56:12Z</time></trkpt><trkpt lat="47.47689667613456" lon="6.9191077937384975"><ele>459.0</ele><time>2026-05-03T14:56:13Z</time></trkpt><trkpt lat="47.47682633002317" lon="6.91923469633152"><ele>459.0</ele><time>2026-05-03T14:56:14Z</time></trkpt><trkpt lat="47.47679224184243" lon="6.9193312525618085"><ele>460.5</ele><time>2026-05-03T14:56:15Z</time></trkpt><trkpt lat="47.476736141012715" lon="6.919451938882009"><ele>462.0</ele><time>2026-05-03T14:56:16Z</time></trkpt><trkpt lat="47.4766908548703" lon="6.9195415815086365"><ele>463.5</ele><time>2026-05-03T14:56:17Z</time></trkpt><trkpt lat="47.476623371305756" lon="6.919596370374181"><ele>465.0</ele><time>2026-05-03T14:56:19Z</time></trkpt><trkpt lat="47.47655685823355" lon="6.919627770115687"><ele>466.5</ele><time>2026-05-03T14:56:22Z</time></trkpt><trkpt lat="47.476642463445685" lon="6.919604367441189"><ele>468.0</ele><time>2026-05-03T14:56:31Z</time></trkpt><trkpt lat="47.47677369270504" lon="6.919478964310397"><ele>468.0</ele><time>2026-05-03T14:56:32Z</time></trkpt><trkpt lat="47.476808919591285" lon="6.91938686382152"><ele>468.0</ele><time>2026-05-03T14:56:33Z</time></trkpt><trkpt lat="47.476826356839645" lon="6.919205817516234"><ele>468.0</ele><time>2026-05-03T14:56:34Z</time></trkpt><trkpt lat="47.476866605505776" lon="6.9190441657834025"><ele>468.0</ele><time>2026-05-03T14:56:35Z</time></trkpt><trkpt lat="47.477009245925046" lon="6.9188086182405355"><ele>466.0</ele><time>2026-05-03T14:56:36Z</time></trkpt><trkpt lat="47.477074319532804" lon="6.9185845088977675"><ele>464.0</ele><time>2026-05-03T14:56:37Z</time></trkpt><trkpt lat="47.47712099586275" lon="6.918373814125164"><ele>462.0</ele><time>2026-05-03T14:56:38Z</time></trkpt><trkpt lat="47.47718676182091" lon="6.918163561504554"><ele>462.0</ele><time>2026-05-03T14:56:39Z</time></trkpt><trkpt lat="47.47725244082426" lon="6.917951612778086"><ele>462.0</ele><time>2026-05-03T14:56:40Z</time></trkpt><trkpt lat="47.477354416681735" lon="6.917684844535712"><ele>462.0</ele><time>2026-05-03T14:56:41Z</time></trkpt><trkpt lat="47.477427837440445" lon="6.917426414153587"><ele>459.75</ele><time>2026-05-03T14:56:42Z</time></trkpt><trkpt lat="47.47746812293442" lon="6.9172128927595615"><ele>457.5</ele><time>2026-05-03T14:56:43Z</time></trkpt><trkpt lat="47.47750690066469" lon="6.917040225569364"><ele>455.25</ele><time>2026-05-03T14:56:44Z</time></trkpt><trkpt lat="47.47754805608083" lon="6.916914971553857"><ele>453.0</ele><time>2026-05-03T14:56:45Z</time></trkpt><trkpt lat="47.477569015016165" lon="6.9167889295666205"><ele>451.59999999999997</ele><time>2026-05-03T14:56:46Z</time></trkpt><trkpt lat="47.477585237360806" lon="6.91663607105405"><ele>450.19999999999993</ele><time>2026-05-03T14:56:47Z</time></trkpt><trkpt lat="47.47758827172031" lon="6.9164956185594555"><ele>448.8</ele><time>2026-05-03T14:56:48Z</time></trkpt><trkpt lat="47.477590379623045" lon="6.916365788521855"><ele>447.4</ele><time>2026-05-03T14:56:50Z</time></trkpt><trkpt lat="47.477556642030535" lon="6.916268817808736"><ele>446.0</ele><time>2026-05-03T14:56:54Z</time></trkpt><trkpt lat="47.47735186021495" lon="6.916306074911556"><ele>445.99999999999994</ele><time>2026-05-03T14:56:55.999Z</time></trkpt><trkpt lat="47.477276187070075" lon="6.916283236605062"><ele>446.0</ele><time>2026-05-03T14:56:58.999Z</time></trkpt><trkpt lat="47.477292949883875" lon="6.9161809822000215"><ele>446.0</ele><time>2026-05-03T14:57:12.999Z</time></trkpt><trkpt lat="47.477226471679394" lon="6.91613196277958"><ele>446.0</ele><time>2026-05-03T14:58:05.999Z</time></trkpt><trkpt lat="47.477291277218484" lon="6.916289481333068"><ele>445.99999999999994</ele><time>2026-05-03T14:58:12.999Z</time></trkpt><trkpt lat="47.47726498820822" lon="6.916185418355634"><ele>446.0</ele><time>2026-05-03T14:58:33Z</time></trkpt><trkpt lat="47.477329331358504" lon="6.916189510475737"><ele>445.99999999999994</ele><time>2026-05-03T14:59:29.999Z</time></trkpt><trkpt lat="47.47726514612515" lon="6.916217014390687"><ele>446.0</ele><time>2026-05-03T14:59:37.999Z</time></trkpt><trkpt lat="47.47730741346185" lon="6.916138468429632"><ele>446.0</ele><time>2026-05-03T14:59:54.999Z</time></trkpt><trkpt lat="47.4772502202987" lon="6.916205040037103"><ele>446.0</ele><time>2026-05-03T15:00:00.999Z</time></trkpt><trkpt lat="47.477301423304255" lon="6.916344158643897"><ele>445.99999999999994</ele><time>2026-05-03T15:02:01.999Z</time></trkpt><trkpt lat="47.47739396650516" lon="6.916261688354472"><ele>446.0</ele><time>2026-05-03T15:02:19Z</time></trkpt><trkpt lat="47.477435683293095" lon="6.916353338071452"><ele>445.99999999999994</ele><time>2026-05-03T15:02:21Z</time></trkpt><trkpt lat="47.47753160260928" lon="6.91640999722198"><ele>446.0</ele><time>2026-05-03T15:02:23Z</time></trkpt><trkpt lat="47.4776111112707" lon="6.916460423122792"><ele>446.0</ele><time>2026-05-03T15:02:25Z</time></trkpt><trkpt lat="47.47755366886789" lon="6.916576691597468"><ele>446.0</ele><time>2026-05-03T15:02:27Z</time></trkpt><trkpt lat="47.47755604603976" lon="6.916671671124821"><ele>445.99999999999994</ele><time>2026-05-03T15:02:29Z</time></trkpt><trkpt lat="47.47755200469495" lon="6.916769607064053"><ele>446.0</ele><time>2026-05-03T15:02:30Z</time></trkpt><trkpt lat="47.477535612709296" lon="6.9168785282505665"><ele>447.75</ele><time>2026-05-03T15:02:31Z</time></trkpt><trkpt lat="47.477480656289984" lon="6.917069416822962"><ele>449.5</ele><time>2026-05-03T15:02:32Z</time></trkpt><trkpt lat="47.47744997337404" lon="6.917198989344909"><ele>451.25</ele><time>2026-05-03T15:02:33Z</time></trkpt><trkpt lat="47.47740935048795" lon="6.917361627723736"><ele>453.0</ele><time>2026-05-03T15:02:34Z</time></trkpt><trkpt lat="47.477348434654864" lon="6.917585049044326"><ele>455.0</ele><time>2026-05-03T15:02:35Z</time></trkpt><trkpt lat="47.47726599883655" lon="6.917849152016097"><ele>457.0</ele><time>2026-05-03T15:02:36Z</time></trkpt><trkpt lat="47.477167815898554" lon="6.918149498592113"><ele>459.0</ele><time>2026-05-03T15:02:37Z</time></trkpt><trkpt lat="47.477079323257016" lon="6.918443425059384"><ele>459.0</ele><time>2026-05-03T15:02:38Z</time></trkpt><trkpt lat="47.47700758761144" lon="6.918689657154011"><ele>459.0</ele><time>2026-05-03T15:02:39Z</time></trkpt><trkpt lat="47.476940896868705" lon="6.918919335919382"><ele>459.0</ele><time>2026-05-03T15:02:40Z</time></trkpt><trkpt lat="47.476888248325245" lon="6.919145714898616"><ele>462.0</ele><time>2026-05-03T15:02:41Z</time></trkpt><trkpt lat="47.47678919969106" lon="6.919383281829401"><ele>465.0</ele><time>2026-05-03T15:02:42Z</time></trkpt><trkpt lat="47.47666871364962" lon="6.919645966768824"><ele>468.0</ele><time>2026-05-03T15:02:43Z</time></trkpt><trkpt lat="47.47651422021328" lon="6.919938217514918"><ele>469.0</ele><time>2026-05-03T15:02:44Z</time></trkpt><trkpt lat="47.47636626165538" lon="6.9202197075278065"><ele>470.0</ele><time>2026-05-03T15:02:45Z</time></trkpt><trkpt lat="47.476236561982255" lon="6.920455573230641"><ele>471.0</ele><time>2026-05-03T15:02:46Z</time></trkpt><trkpt lat="47.476115060236985" lon="6.920719453586163"><ele>473.66666666666663</ele><time>2026-05-03T15:02:47Z</time></trkpt><trkpt lat="47.47600833630254" lon="6.921012341286684"><ele>476.3333333333333</ele><time>2026-05-03T15:02:48Z</time></trkpt><trkpt lat="47.475902310994165" lon="6.921251654425764"><ele>479.0</ele><time>2026-05-03T15:02:49Z</time></trkpt><trkpt lat="47.47576295261166" lon="6.921443231585622"><ele>479.0</ele><time>2026-05-03T15:02:50Z</time></trkpt><trkpt lat="47.475661031658206" lon="6.921651847841057"><ele>479.0</ele><time>2026-05-03T15:02:51Z</time></trkpt><trkpt lat="47.47558570592296" lon="6.9218109596976936"><ele>479.0</ele><time>2026-05-03T15:02:52Z</time></trkpt><trkpt lat="47.475499536430405" lon="6.921988177459503"><ele>481.75</ele><time>2026-05-03T15:02:53Z</time></trkpt><trkpt lat="47.475397017691044" lon="6.9221142332803876"><ele>484.5</ele><time>2026-05-03T15:02:54Z</time></trkpt><trkpt lat="47.47528813999815" lon="6.922202126615963"><ele>487.25</ele><time>2026-05-03T15:02:55Z</time></trkpt><trkpt lat="47.475151437961976" lon="6.922248186638668"><ele>490.0</ele><time>2026-05-03T15:02:56Z</time></trkpt><trkpt lat="47.47506614902026" lon="6.922388765304679"><ele>490.0</ele><time>2026-05-03T15:02:57Z</time></trkpt><trkpt lat="47.474920453035715" lon="6.922479997641917"><ele>490.0</ele><time>2026-05-03T15:02:58Z</time></trkpt><trkpt lat="47.47476824188441" lon="6.922558094752405"><ele>490.0</ele><time>2026-05-03T15:02:59Z</time></trkpt><trkpt lat="47.47461164664436" lon="6.922567337710645"><ele>491.6</ele><time>2026-05-03T15:03:00Z</time></trkpt><trkpt lat="47.474489332863065" lon="6.922483294833292"><ele>493.2</ele><time>2026-05-03T15:03:01Z</time></trkpt><trkpt lat="47.47442258507003" lon="6.922495175168473"><ele>494.79999999999995</ele><time>2026-05-03T15:03:02Z</time></trkpt><trkpt lat="47.47434173106762" lon="6.922434435590047"><ele>496.4</ele><time>2026-05-03T15:03:03Z</time></trkpt><trkpt lat="47.47429645546497" lon="6.922551740911724"><ele>498.0</ele><time>2026-05-03T15:03:05Z</time></trkpt><trkpt lat="47.47433056239715" lon="6.922659323999921"><ele>499.3333333333333</ele><time>2026-05-03T15:03:07Z</time></trkpt><trkpt lat="47.47439373749661" lon="6.922725814960473"><ele>500.66666666666663</ele><time>2026-05-03T15:03:08Z</time></trkpt><trkpt lat="47.47449741449824" lon="6.922790613873484"><ele>502.0</ele><time>2026-05-03T15:03:09Z</time></trkpt><trkpt lat="47.47457103888262" lon="6.922888308402869"><ele>503.3333333333333</ele><time>2026-05-03T15:03:10Z</time></trkpt><trkpt lat="47.474623733208894" lon="6.922942192783318"><ele>504.66666666666663</ele><time>2026-05-03T15:03:11Z</time></trkpt><trkpt lat="47.47466935814146" lon="6.923008707268477"><ele>506.0</ele><time>2026-05-03T15:03:12Z</time></trkpt><trkpt lat="47.47476827354433" lon="6.9230909334486865"><ele>505.99999999999994</ele><time>2026-05-03T15:03:14Z</time></trkpt><trkpt lat="47.474838896986704" lon="6.923231879838792"><ele>506.0</ele><time>2026-05-03T15:03:16Z</time></trkpt><trkpt lat="47.4748705498752" lon="6.923321203314864"><ele>506.0</ele><time>2026-05-03T15:03:17Z</time></trkpt><trkpt lat="47.47493122538485" lon="6.923435504516292"><ele>506.0</ele><time>2026-05-03T15:03:19Z</time></trkpt><trkpt lat="47.47497440301561" lon="6.923532707986533"><ele>505.99999999999994</ele><time>2026-05-03T15:03:20Z</time></trkpt><trkpt lat="47.474979608748754" lon="6.923632359853638"><ele>506.0</ele><time>2026-05-03T15:03:21Z</time></trkpt><trkpt lat="47.47499287767385" lon="6.9237402366449246"><ele>507.99999999999994</ele><time>2026-05-03T15:03:22Z</time></trkpt><trkpt lat="47.475014197492484" lon="6.923840660207577"><ele>510.0</ele><time>2026-05-03T15:03:23Z</time></trkpt><trkpt lat="47.47500646366426" lon="6.9239633920250645"><ele>512.0</ele><time>2026-05-03T15:03:24.999Z</time></trkpt><trkpt lat="47.47495855914417" lon="6.924103561369149"><ele>514.0</ele><time>2026-05-03T15:03:26.999Z</time></trkpt><trkpt lat="47.47491812199759" lon="6.924212353740741"><ele>516.0</ele><time>2026-05-03T15:03:27.999Z</time></trkpt><trkpt lat="47.474908523170846" lon="6.924312786940904"><ele>518.0</ele><time>2026-05-03T15:03:28.999Z</time></trkpt><trkpt lat="47.47489241003604" lon="6.924443837221043"><ele>519.0</ele><time>2026-05-03T15:03:29.999Z</time></trkpt><trkpt lat="47.47494035981603" lon="6.9245455612996984"><ele>520.0</ele><time>2026-05-03T15:03:30.999Z</time></trkpt><trkpt lat="47.474960405775604" lon="6.924678191623948"><ele>521.0</ele><time>2026-05-03T15:03:32.999Z</time></trkpt><trkpt lat="47.474995243449385" lon="6.924791769614252"><ele>522.0</ele><time>2026-05-03T15:03:33.999Z</time></trkpt><trkpt lat="47.475024557361095" lon="6.924922523093287"><ele>523.0</ele><time>2026-05-03T15:03:34.999Z</time></trkpt><trkpt lat="47.47507640346572" lon="6.9250450262644785"><ele>523.7142857142857</ele><time>2026-05-03T15:03:35.999Z</time></trkpt><trkpt lat="47.4751033291208" lon="6.9251543833957845"><ele>524.4285714285714</ele><time>2026-05-03T15:03:36.999Z</time></trkpt><trkpt lat="47.4750800706186" lon="6.925246261338309"><ele>525.1428571428571</ele><time>2026-05-03T15:03:37.999Z</time></trkpt><trkpt lat="47.47508237813761" lon="6.925373298976074"><ele>525.8571428571429</ele><time>2026-05-03T15:03:39.999Z</time></trkpt><trkpt lat="47.4751321640378" lon="6.925446195508403"><ele>526.5714285714286</ele><time>2026-05-03T15:03:41.999Z</time></trkpt><trkpt lat="47.47519661494986" lon="6.925490635690797"><ele>527.2857142857142</ele><time>2026-05-03T15:03:43.999Z</time></trkpt><trkpt lat="47.47525769943874" lon="6.925535906993223"><ele>528.0</ele><time>2026-05-03T15:03:45.999Z</time></trkpt><trkpt lat="47.47532837322274" lon="6.925502810635235"><ele>528.0</ele><time>2026-05-03T15:03:47.999Z</time></trkpt><trkpt lat="47.475399996001" lon="6.925511039148387"><ele>528.0</ele><time>2026-05-03T15:03:50.999Z</time></trkpt><trkpt lat="47.47542576249313" lon="6.925837897895476"><ele>528.0</ele><time>2026-05-03T15:03:52.999Z</time></trkpt><trkpt lat="47.47545010372127" lon="6.925949304299006"><ele>528.0</ele><time>2026-05-03T15:03:54.999Z</time></trkpt><trkpt lat="47.47549219966794" lon="6.926110539220396"><ele>528.1999999999999</ele><time>2026-05-03T15:03:56.999Z</time></trkpt><trkpt lat="47.475555728156635" lon="6.92620511287726"><ele>528.4</ele><time>2026-05-03T15:03:57.999Z</time></trkpt><trkpt lat="47.47565147678215" lon="6.926272617956981"><ele>528.5999999999999</ele><time>2026-05-03T15:03:58.999Z</time></trkpt><trkpt lat="47.47575752387213" lon="6.926336442624525"><ele>528.8</ele><time>2026-05-03T15:03:59.999Z</time></trkpt><trkpt lat="47.47584294014069" lon="6.926443407003293"><ele>529.0</ele><time>2026-05-03T15:04:00.999Z</time></trkpt><trkpt lat="47.47594102506998" lon="6.926533623358138"><ele>529.0</ele><time>2026-05-03T15:04:01.999Z</time></trkpt><trkpt lat="47.47602398473338" lon="6.926633347571922"><ele>529.0</ele><time>2026-05-03T15:04:02.999Z</time></trkpt><trkpt lat="47.47610651979546" lon="6.926728374066336"><ele>529.0</ele><time>2026-05-03T15:04:03.999Z</time></trkpt><trkpt lat="47.47617288919443" lon="6.926821833105868"><ele>529.0</ele><time>2026-05-03T15:04:04.999Z</time></trkpt><trkpt lat="47.476223411480255" lon="6.926881729700581"><ele>529.0</ele><time>2026-05-03T15:04:05.999Z</time></trkpt><trkpt lat="47.47628106616137" lon="6.92695743256942"><ele>529.0</ele><time>2026-05-03T15:04:07.999Z</time></trkpt><trkpt lat="47.476333747549056" lon="6.927081213962715"><ele>529.0</ele><time>2026-05-03T15:04:09.999Z</time></trkpt><trkpt lat="47.47636571443777" lon="6.927253893716559"><ele>529.0</ele><time>2026-05-03T15:04:11.999Z</time></trkpt><trkpt lat="47.47632182669407" lon="6.927376769573019"><ele>529.0</ele><time>2026-05-03T15:04:12.999Z</time></trkpt><trkpt lat="47.4762720521052" lon="6.927521975896343"><ele>529.0</ele><time>2026-05-03T15:04:14Z</time></trkpt><trkpt lat="47.47627271572291" lon="6.927701458706047"><ele>529.0</ele><time>2026-05-03T15:04:16Z</time></trkpt><trkpt lat="47.47627033260326" lon="6.927841582742631"><ele>529.2</ele><time>2026-05-03T15:04:17Z</time></trkpt><trkpt lat="47.4762719361792" lon="6.928066444479419"><ele>529.4</ele><time>2026-05-03T15:04:19Z</time></trkpt><trkpt lat="47.47626531675289" lon="6.928187659499268"><ele>529.6</ele><time>2026-05-03T15:04:21Z</time></trkpt><trkpt lat="47.476236101304366" lon="6.928290466820056"><ele>529.8</ele><time>2026-05-03T15:04:23Z</time></trkpt><trkpt lat="47.47614672937705" lon="6.928296307673337"><ele>530.0</ele><time>2026-05-03T15:04:25Z</time></trkpt><trkpt lat="47.47601036602503" lon="6.928331143540351"><ele>531.8</ele><time>2026-05-03T15:04:27Z</time></trkpt><trkpt lat="47.4758882151586" lon="6.928337104886478"><ele>533.6</ele><time>2026-05-03T15:04:28Z</time></trkpt><trkpt lat="47.475791956107415" lon="6.928350823311796"><ele>535.4</ele><time>2026-05-03T15:04:30Z</time></trkpt><trkpt lat="47.47570629443833" lon="6.928392484773302"><ele>537.2</ele><time>2026-05-03T15:04:32Z</time></trkpt><trkpt lat="47.47564735546476" lon="6.928432926981039"><ele>539.0</ele><time>2026-05-03T15:04:33Z</time></trkpt><trkpt lat="47.475545717450686" lon="6.928443937393969"><ele>542.5</ele><time>2026-05-03T15:04:35Z</time></trkpt><trkpt lat="47.475433404237535" lon="6.928478146124153"><ele>546.0</ele><time>2026-05-03T15:04:37Z</time></trkpt><trkpt lat="47.47535261784719" lon="6.928448275899738"><ele>549.5</ele><time>2026-05-03T15:04:38Z</time></trkpt><trkpt lat="47.47523485724643" lon="6.9284053520506665"><ele>553.0</ele><time>2026-05-03T15:04:39Z</time></trkpt><trkpt lat="47.47510564492422" lon="6.928361996324662"><ele>553.0</ele><time>2026-05-03T15:04:40Z</time></trkpt><trkpt lat="47.4750130562311" lon="6.9283492163090115"><ele>553.0</ele><time>2026-05-03T15:04:41Z</time></trkpt><trkpt lat="47.4748749399037" lon="6.9283643900118435"><ele>553.0</ele><time>2026-05-03T15:04:42Z</time></trkpt><trkpt lat="47.47474815802785" lon="6.928376100979857"><ele>553.0</ele><time>2026-05-03T15:04:43Z</time></trkpt><trkpt lat="47.47462207679468" lon="6.928366246454493"><ele>554.1999999999999</ele><time>2026-05-03T15:04:44Z</time></trkpt><trkpt lat="47.47447882026213" lon="6.928325682035351"><ele>555.4</ele><time>2026-05-03T15:04:45Z</time></trkpt><trkpt lat="47.47436318734364" lon="6.928279376330187"><ele>556.5999999999999</ele><time>2026-05-03T15:04:46Z</time></trkpt><trkpt lat="47.47428753395651" lon="6.9282601064245215"><ele>557.8</ele><time>2026-05-03T15:04:47Z</time></trkpt><trkpt lat="47.47419854821398" lon="6.9281997402833"><ele>559.0</ele><time>2026-05-03T15:04:48Z</time></trkpt><trkpt lat="47.47410740075007" lon="6.928194189621783"><ele>559.0</ele><time>2026-05-03T15:04:50Z</time></trkpt><trkpt lat="47.474047582837734" lon="6.92814748410171"><ele>559.0</ele><time>2026-05-03T15:04:51Z</time></trkpt><trkpt lat="47.473936802785744" lon="6.928077535995519"><ele>559.0</ele><time>2026-05-03T15:04:53Z</time></trkpt><trkpt lat="47.47381008517428" lon="6.928094622631814"><ele>559.0</ele><time>2026-05-03T15:04:55Z</time></trkpt><trkpt lat="47.47374662083105" lon="6.928099837840004"><ele>559.0</ele><time>2026-05-03T15:04:56Z</time></trkpt><trkpt lat="47.4736230202797" lon="6.928092155379608"><ele>560.4</ele><time>2026-05-03T15:04:58Z</time></trkpt><trkpt lat="47.473544240432474" lon="6.928072152537701"><ele>561.8</ele><time>2026-05-03T15:04:59Z</time></trkpt><trkpt lat="47.47347272795585" lon="6.928096309843477"><ele>563.2</ele><time>2026-05-03T15:05:00Z</time></trkpt><trkpt lat="47.473376393610586" lon="6.928103899310873"><ele>564.6</ele><time>2026-05-03T15:05:01Z</time></trkpt><trkpt lat="47.47328154595589" lon="6.928115026412833"><ele>566.0</ele><time>2026-05-03T15:05:02Z</time></trkpt><trkpt lat="47.47315105026384" lon="6.928077380436015"><ele>566.0</ele><time>2026-05-03T15:05:03Z</time></trkpt><trkpt lat="47.47301326297793" lon="6.928018909911648"><ele>566.0</ele><time>2026-05-03T15:05:04Z</time></trkpt><trkpt lat="47.47293303406558" lon="6.9279805731691315"><ele>566.0</ele><time>2026-05-03T15:05:05Z</time></trkpt><trkpt lat="47.47283894694123" lon="6.9279534670523875"><ele>566.0</ele><time>2026-05-03T15:05:06Z</time></trkpt><trkpt lat="47.47274956661956" lon="6.927928042062811"><ele>566.0</ele><time>2026-05-03T15:05:07Z</time></trkpt><trkpt lat="47.47265125608309" lon="6.927908866598198"><ele>566.6666666666666</ele><time>2026-05-03T15:05:08Z</time></trkpt><trkpt lat="47.472551171586616" lon="6.927884221736534"><ele>567.3333333333333</ele><time>2026-05-03T15:05:09Z</time></trkpt><trkpt lat="47.47248956085031" lon="6.927943197676545"><ele>568.0</ele><time>2026-05-03T15:05:10Z</time></trkpt><trkpt lat="47.47240517789533" lon="6.9279995113373305"><ele>568.6666666666666</ele><time>2026-05-03T15:05:11Z</time></trkpt><trkpt lat="47.4723246616101" lon="6.928028449330584"><ele>569.3333333333334</ele><time>2026-05-03T15:05:12Z</time></trkpt><trkpt lat="47.472260187944336" lon="6.928055284572743"><ele>570.0</ele><time>2026-05-03T15:05:13Z</time></trkpt><trkpt lat="47.47216989061127" lon="6.928021196627253"><ele>569.3333333333334</ele><time>2026-05-03T15:05:14Z</time></trkpt><trkpt lat="47.47193965323216" lon="6.927797238997483"><ele>568.6666666666667</ele><time>2026-05-03T15:05:15Z</time></trkpt><trkpt lat="47.471779304165715" lon="6.927723591134388"><ele>568.0</ele><time>2026-05-03T15:05:16Z</time></trkpt><trkpt lat="47.47163350081633" lon="6.927704392575015"><ele>568.0</ele><time>2026-05-03T15:05:17Z</time></trkpt><trkpt lat="47.47146413267339" lon="6.927673211321866"><ele>568.0</ele><time>2026-05-03T15:05:18Z</time></trkpt><trkpt lat="47.471323028256904" lon="6.927690859768601"><ele>568.0</ele><time>2026-05-03T15:05:19Z</time></trkpt><trkpt lat="47.47121601427139" lon="6.92771756894146"><ele>568.0</ele><time>2026-05-03T15:05:20Z</time></trkpt><trkpt lat="47.471120231284736" lon="6.9277113841779965"><ele>566.0</ele><time>2026-05-03T15:05:21Z</time></trkpt><trkpt lat="47.4710353354133" lon="6.927774392459128"><ele>564.0</ele><time>2026-05-03T15:05:22Z</time></trkpt><trkpt lat="47.470960337165366" lon="6.927893210540542"><ele>562.0</ele><time>2026-05-03T15:05:23Z</time></trkpt><trkpt lat="47.470855526415484" lon="6.927980903630753"><ele>560.0</ele><time>2026-05-03T15:05:24Z</time></trkpt><trkpt lat="47.47077391612973" lon="6.928032135509131"><ele>558.0</ele><time>2026-05-03T15:05:25Z</time></trkpt><trkpt lat="47.470691623352884" lon="6.928012509371686"><ele>558.0</ele><time>2026-05-03T15:05:26Z</time></trkpt><trkpt lat="47.470596925481004" lon="6.927970115891024"><ele>558.0</ele><time>2026-05-03T15:05:27Z</time></trkpt><trkpt lat="47.47049435590513" lon="6.927907954837039"><ele>558.0</ele><time>2026-05-03T15:05:28Z</time></trkpt><trkpt lat="47.47039172911856" lon="6.92785466609729"><ele>558.0</ele><time>2026-05-03T15:05:29Z</time></trkpt><trkpt lat="47.470310768175075" lon="6.927811809721982"><ele>558.0</ele><time>2026-05-03T15:05:30Z</time></trkpt><trkpt lat="47.47024152677339" lon="6.927766370977086"><ele>557.8</ele><time>2026-05-03T15:05:31Z</time></trkpt><trkpt lat="47.470171034163165" lon="6.927796622308833"><ele>557.5999999999999</ele><time>2026-05-03T15:05:33Z</time></trkpt><trkpt lat="47.470112611118715" lon="6.927921362237897"><ele>557.4000000000001</ele><time>2026-05-03T15:05:34.999Z</time></trkpt><trkpt lat="47.47010051905824" lon="6.928042255436087"><ele>557.2</ele><time>2026-05-03T15:05:35.999Z</time></trkpt><trkpt lat="47.470121124891925" lon="6.928245069129791"><ele>557.0</ele><time>2026-05-03T15:05:36.999Z</time></trkpt><trkpt lat="47.4700930634225" lon="6.928474590043705"><ele>557.3333333333333</ele><time>2026-05-03T15:05:37.999Z</time></trkpt><trkpt lat="47.470071673806935" lon="6.928748475976609"><ele>557.6666666666666</ele><time>2026-05-03T15:05:38.999Z</time></trkpt><trkpt lat="47.470047750802294" lon="6.929047925256287"><ele>558.0</ele><time>2026-05-03T15:05:39.999Z</time></trkpt><trkpt lat="47.47002534673156" lon="6.929301058082228"><ele>558.0</ele><time>2026-05-03T15:05:40.999Z</time></trkpt><trkpt lat="47.46999883518262" lon="6.929505375306703"><ele>558.0</ele><time>2026-05-03T15:05:41.999Z</time></trkpt><trkpt lat="47.469977377130675" lon="6.929685264636334"><ele>558.0</ele><time>2026-05-03T15:05:42.999Z</time></trkpt><trkpt lat="47.469954264974895" lon="6.929872138354524"><ele>558.0</ele><time>2026-05-03T15:05:43.999Z</time></trkpt><trkpt lat="47.46993332500901" lon="6.9300435938397715"><ele>557.4</ele><time>2026-05-03T15:05:44.999Z</time></trkpt><trkpt lat="47.469924799843405" lon="6.9302126549856355"><ele>556.8</ele><time>2026-05-03T15:05:45.999Z</time></trkpt><trkpt lat="47.46990040989768" lon="6.930384685070941"><ele>556.2</ele><time>2026-05-03T15:05:46.999Z</time></trkpt><trkpt lat="47.46988816342867" lon="6.930542550507109"><ele>555.6</ele><time>2026-05-03T15:05:47.999Z</time></trkpt><trkpt lat="47.469876241202854" lon="6.93069449882314"><ele>555.0</ele><time>2026-05-03T15:05:48.999Z</time></trkpt><trkpt lat="47.469863564601546" lon="6.93086594837002"><ele>553.6666666666666</ele><time>2026-05-03T15:05:49.999Z</time></trkpt><trkpt lat="47.46984428870602" lon="6.930986728347123"><ele>552.3333333333334</ele><time>2026-05-03T15:05:50.999Z</time></trkpt><trkpt lat="47.46983522885956" lon="6.931122740302226"><ele>551.0</ele><time>2026-05-03T15:05:51.999Z</time></trkpt><trkpt lat="47.469794436552604" lon="6.931248393560587"><ele>549.6666666666667</ele><time>2026-05-03T15:05:52.999Z</time></trkpt><trkpt lat="47.46976241823674" lon="6.931363240670801"><ele>548.3333333333334</ele><time>2026-05-03T15:05:53.999Z</time></trkpt><trkpt lat="47.469722645091544" lon="6.931488959968765"><ele>547.0</ele><time>2026-05-03T15:05:54.999Z</time></trkpt><trkpt lat="47.46968716337215" lon="6.9316675453968"><ele>545.6</ele><time>2026-05-03T15:05:55.999Z</time></trkpt><trkpt lat="47.469679106980706" lon="6.9318063676189725"><ele>544.2</ele><time>2026-05-03T15:05:56.999Z</time></trkpt><trkpt lat="47.469701628532086" lon="6.93200450210627"><ele>542.8</ele><time>2026-05-03T15:05:58.999Z</time></trkpt><trkpt lat="47.46978063937174" lon="6.932125169430604"><ele>541.4</ele><time>2026-05-03T15:05:59.999Z</time></trkpt><trkpt lat="47.4698448087756" lon="6.932241512765443"><ele>540.0</ele><time>2026-05-03T15:06:00.999Z</time></trkpt><trkpt lat="47.46991659355624" lon="6.932354743136848"><ele>540.0</ele><time>2026-05-03T15:06:01.999Z</time></trkpt><trkpt lat="47.46999333030211" lon="6.932455893083225"><ele>540.0</ele><time>2026-05-03T15:06:02.999Z</time></trkpt><trkpt lat="47.470094528641546" lon="6.93259429240803"><ele>540.0</ele><time>2026-05-03T15:06:03.999Z</time></trkpt><trkpt lat="47.47013745631761" lon="6.932744769987235"><ele>540.0</ele><time>2026-05-03T15:06:04.999Z</time></trkpt><trkpt lat="47.47019131176617" lon="6.932852471439979"><ele>540.0</ele><time>2026-05-03T15:06:05.999Z</time></trkpt><trkpt lat="47.47023496868147" lon="6.932953079878366"><ele>539.1666666666666</ele><time>2026-05-03T15:06:06.999Z</time></trkpt><trkpt lat="47.47026770900465" lon="6.933074439773224"><ele>538.3333333333334</ele><time>2026-05-03T15:06:07.999Z</time></trkpt><trkpt lat="47.470316134110156" lon="6.93315275091775"><ele>537.5</ele><time>2026-05-03T15:06:08.999Z</time></trkpt><trkpt lat="47.4703811137722" lon="6.933213770423724"><ele>536.6666666666667</ele><time>2026-05-03T15:06:09.999Z</time></trkpt><trkpt lat="47.470449939405036" lon="6.933238508248952"><ele>535.8333333333334</ele><time>2026-05-03T15:06:10.999Z</time></trkpt><trkpt lat="47.470519423117196" lon="6.933296092012917"><ele>535.0</ele><time>2026-05-03T15:06:11.999Z</time></trkpt><trkpt lat="47.47057941721068" lon="6.933337199418977"><ele>535.0</ele><time>2026-05-03T15:06:12.999Z</time></trkpt><trkpt lat="47.47064320732136" lon="6.933381359844862"><ele>535.0</ele><time>2026-05-03T15:06:13.999Z</time></trkpt><trkpt lat="47.470706794329374" lon="6.93344697781093"><ele>535.0</ele><time>2026-05-03T15:06:15.999Z</time></trkpt><trkpt lat="47.470603674600135" lon="6.933443329636838"><ele>535.0</ele><time>2026-05-03T15:06:17.999Z</time></trkpt><trkpt lat="47.47049223586047" lon="6.933423080985807"><ele>535.0</ele><time>2026-05-03T15:06:20Z</time></trkpt><trkpt lat="47.47038652070865" lon="6.933443032443634"><ele>531.75</ele><time>2026-05-03T15:06:21Z</time></trkpt><trkpt lat="47.47030311597334" lon="6.9334176254305655"><ele>528.5</ele><time>2026-05-03T15:06:22Z</time></trkpt><trkpt lat="47.47017587867834" lon="6.933420000409187"><ele>525.25</ele><time>2026-05-03T15:06:23Z</time></trkpt><trkpt lat="47.469958348732284" lon="6.933426800154936"><ele>522.0</ele><time>2026-05-03T15:06:24Z</time></trkpt><trkpt lat="47.46975090705877" lon="6.933502068683"><ele>526.3333333333334</ele><time>2026-05-03T15:06:25Z</time></trkpt><trkpt lat="47.46955744670376" lon="6.933678260239634"><ele>530.6666666666667</ele><time>2026-05-03T15:06:26Z</time></trkpt><trkpt lat="47.469387837336875" lon="6.933712534320822"><ele>535.0</ele><time>2026-05-03T15:06:27Z</time></trkpt><trkpt lat="47.469194288314185" lon="6.933767421349714"><ele>535.0</ele><time>2026-05-03T15:06:28Z</time></trkpt><trkpt lat="47.46899333610364" lon="6.933824407718589"><ele>535.0</ele><time>2026-05-03T15:06:29Z</time></trkpt><trkpt lat="47.46880486288906" lon="6.933877855273141"><ele>535.0</ele><time>2026-05-03T15:06:30Z</time></trkpt><trkpt lat="47.46882781725617" lon="6.933390473257409"><ele>535.5</ele><time>2026-05-03T15:06:31Z</time></trkpt><trkpt lat="47.4686717146788" lon="6.933305517434586"><ele>536.0</ele><time>2026-05-03T15:06:32Z</time></trkpt><trkpt lat="47.468554970588606" lon="6.93325336017302"><ele>536.5</ele><time>2026-05-03T15:06:33Z</time></trkpt><trkpt lat="47.46848839711986" lon="6.93322383046111"><ele>537.0</ele><time>2026-05-03T15:06:34Z</time></trkpt><trkpt lat="47.46808608862112" lon="6.933986149629464"><ele>537.0</ele><time>2026-05-03T15:06:35Z</time></trkpt><trkpt lat="47.468052409014476" lon="6.933894854844833"><ele>537.0</ele><time>2026-05-03T15:06:36Z</time></trkpt><trkpt lat="47.46791999984699" lon="6.933843644045306"><ele>537.0</ele><time>2026-05-03T15:06:38Z</time></trkpt><trkpt lat="47.46783060379772" lon="6.9338250002646635"><ele>537.0</ele><time>2026-05-03T15:06:39Z</time></trkpt><trkpt lat="47.46773990955932" lon="6.933817928994902"><ele>537.0</ele><time>2026-05-03T15:06:40Z</time></trkpt><trkpt lat="47.46767338662687" lon="6.933806107621901"><ele>538.1666666666666</ele><time>2026-05-03T15:06:41Z</time></trkpt><trkpt lat="47.46759898498905" lon="6.933802145965828"><ele>539.3333333333334</ele><time>2026-05-03T15:06:42Z</time></trkpt><trkpt lat="47.467509927124176" lon="6.933832593108789"><ele>540.5</ele><time>2026-05-03T15:06:43Z</time></trkpt><trkpt lat="47.467432050763364" lon="6.933854076498727"><ele>541.6666666666667</ele><time>2026-05-03T15:06:44Z</time></trkpt><trkpt lat="47.46735489230473" lon="6.933876736978117"><ele>542.8333333333334</ele><time>2026-05-03T15:06:45Z</time></trkpt><trkpt lat="47.46725528536371" lon="6.933855291260921"><ele>544.0</ele><time>2026-05-03T15:06:46Z</time></trkpt><trkpt lat="47.467151287302876" lon="6.933832292053004"><ele>544.2</ele><time>2026-05-03T15:06:47Z</time></trkpt><trkpt lat="47.467043948436846" lon="6.933821651819933"><ele>544.4</ele><time>2026-05-03T15:06:48Z</time></trkpt><trkpt lat="47.46695174815295" lon="6.933843649317197"><ele>544.6</ele><time>2026-05-03T15:06:49Z</time></trkpt><trkpt lat="47.46683699450368" lon="6.9338953998564525"><ele>544.8</ele><time>2026-05-03T15:06:51Z</time></trkpt><trkpt lat="47.46676986206468" lon="6.933900264474784"><ele>545.0</ele><time>2026-05-03T15:06:52Z</time></trkpt><trkpt lat="47.4667024250272" lon="6.933935092271264"><ele>545.0</ele><time>2026-05-03T15:06:53Z</time></trkpt><trkpt lat="47.46663536609401" lon="6.933987243551811"><ele>545.0</ele><time>2026-05-03T15:06:54Z</time></trkpt><trkpt lat="47.46655346569569" lon="6.934056806567444"><ele>545.0</ele><time>2026-05-03T15:06:56Z</time></trkpt><trkpt lat="47.466476595533045" lon="6.934148734200173"><ele>545.0</ele><time>2026-05-03T15:06:57Z</time></trkpt><trkpt lat="47.466342944827225" lon="6.934177424058707"><ele>545.0</ele><time>2026-05-03T15:06:59Z</time></trkpt><trkpt lat="47.46626976396412" lon="6.934141941852229"><ele>546.2</ele><time>2026-05-03T15:07:00Z</time></trkpt><trkpt lat="47.46618905748387" lon="6.9341617717767985"><ele>547.4</ele><time>2026-05-03T15:07:01Z</time></trkpt><trkpt lat="47.46609741657407" lon="6.934164094678252"><ele>548.6</ele><time>2026-05-03T15:07:02Z</time></trkpt><trkpt lat="47.46599293782865" lon="6.934161466597806"><ele>549.8</ele><time>2026-05-03T15:07:03Z</time></trkpt><trkpt lat="47.465891351780435" lon="6.934208363619638"><ele>551.0</ele><time>2026-05-03T15:07:04Z</time></trkpt><trkpt lat="47.46577497854864" lon="6.93416659947523"><ele>551.0</ele><time>2026-05-03T15:07:05Z</time></trkpt><trkpt lat="47.46569636185798" lon="6.93412662837664"><ele>551.0</ele><time>2026-05-03T15:07:06Z</time></trkpt><trkpt lat="47.46562361696776" lon="6.934087693149702"><ele>551.0</ele><time>2026-05-03T15:07:08Z</time></trkpt><trkpt lat="47.46555227627825" lon="6.934227550887027"><ele>551.0</ele><time>2026-05-03T15:07:10Z</time></trkpt><trkpt lat="47.46546433192632" lon="6.9343149756605875"><ele>551.0</ele><time>2026-05-03T15:07:12Z</time></trkpt><trkpt lat="47.46540486074613" lon="6.934364524594015"><ele>551.1666666666666</ele><time>2026-05-03T15:07:13Z</time></trkpt><trkpt lat="47.46534046756568" lon="6.9343911022192986"><ele>551.3333333333333</ele><time>2026-05-03T15:07:14Z</time></trkpt><trkpt lat="47.46527506207599" lon="6.934425329805085"><ele>551.5</ele><time>2026-05-03T15:07:15Z</time></trkpt><trkpt lat="47.465203238776" lon="6.934420674166163"><ele>551.6666666666666</ele><time>2026-05-03T15:07:16Z</time></trkpt><trkpt lat="47.46515327184973" lon="6.934329817503367"><ele>551.8333333333334</ele><time>2026-05-03T15:07:17Z</time></trkpt><trkpt lat="47.465072135289105" lon="6.934292012832313"><ele>552.0</ele><time>2026-05-03T15:07:18Z</time></trkpt><trkpt lat="47.46500861372614" lon="6.934176652129316"><ele>552.4</ele><time>2026-05-03T15:07:19Z</time></trkpt><trkpt lat="47.464914270187165" lon="6.934050377147842"><ele>552.8000000000001</ele><time>2026-05-03T15:07:20Z</time></trkpt><trkpt lat="47.464844115660995" lon="6.933995479017617"><ele>553.2</ele><time>2026-05-03T15:07:22Z</time></trkpt><trkpt lat="47.46478752206472" lon="6.933894900858984"><ele>553.6</ele><time>2026-05-03T15:07:23Z</time></trkpt><trkpt lat="47.464683661721686" lon="6.933862990708996"><ele>554.0</ele><time>2026-05-03T15:07:25Z</time></trkpt><trkpt lat="47.46458158239483" lon="6.933804172808907"><ele>554.3333333333333</ele><time>2026-05-03T15:07:26Z</time></trkpt><trkpt lat="47.464488828057284" lon="6.933829844056523"><ele>554.6666666666666</ele><time>2026-05-03T15:07:27Z</time></trkpt><trkpt lat="47.4644287241352" lon="6.933861150326264"><ele>555.0</ele><time>2026-05-03T15:07:28Z</time></trkpt><trkpt lat="47.46438516251675" lon="6.933929155677172"><ele>555.3333333333334</ele><time>2026-05-03T15:07:29Z</time></trkpt><trkpt lat="47.46431825434168" lon="6.933963666445466"><ele>555.6666666666667</ele><time>2026-05-03T15:07:31Z</time></trkpt><trkpt lat="47.46436416265476" lon="6.934115851543212"><ele>556.0</ele><time>2026-05-03T15:07:33Z</time></trkpt><trkpt lat="47.464438793365815" lon="6.934198322726893"><ele>556.8</ele><time>2026-05-03T15:07:34Z</time></trkpt><trkpt lat="47.464499146949365" lon="6.9342616774031764"><ele>557.6</ele><time>2026-05-03T15:07:35Z</time></trkpt><trkpt lat="47.46457636657262" lon="6.93432187694092"><ele>558.4</ele><time>2026-05-03T15:07:36Z</time></trkpt><trkpt lat="47.46464200166467" lon="6.934369112471647"><ele>559.2</ele><time>2026-05-03T15:07:37Z</time></trkpt><trkpt lat="47.464703382631555" lon="6.934462208904033"><ele>560.0</ele><time>2026-05-03T15:07:38Z</time></trkpt><trkpt lat="47.464795532087805" lon="6.934594565274271"><ele>558.4</ele><time>2026-05-03T15:07:39Z</time></trkpt><trkpt lat="47.46488601658692" lon="6.934699047625453"><ele>556.8</ele><time>2026-05-03T15:07:40Z</time></trkpt><trkpt lat="47.46491443996065" lon="6.934822959012202"><ele>555.2</ele><time>2026-05-03T15:07:41Z</time></trkpt><trkpt lat="47.46493547779262" lon="6.934944921759187"><ele>553.6</ele><time>2026-05-03T15:07:42Z</time></trkpt><trkpt lat="47.46497900819835" lon="6.9350281513096705"><ele>552.0</ele><time>2026-05-03T15:07:43Z</time></trkpt><trkpt lat="47.465000018430494" lon="6.93517316807263"><ele>552.0</ele><time>2026-05-03T15:07:43.999Z</time></trkpt><trkpt lat="47.46503987957889" lon="6.935277875027384"><ele>552.0</ele><time>2026-05-03T15:07:44.999Z</time></trkpt><trkpt lat="47.46506956591809" lon="6.935395797645125"><ele>552.0</ele><time>2026-05-03T15:07:45.999Z</time></trkpt><trkpt lat="47.465075655162664" lon="6.93553957976946"><ele>552.0</ele><time>2026-05-03T15:07:46.999Z</time></trkpt><trkpt lat="47.46511030117963" lon="6.935629044281417"><ele>552.0</ele><time>2026-05-03T15:07:47.999Z</time></trkpt><trkpt lat="47.46512335229197" lon="6.9357297779779765"><ele>552.0</ele><time>2026-05-03T15:07:48.999Z</time></trkpt><trkpt lat="47.46507149946528" lon="6.935904139447265"><ele>552.75</ele><time>2026-05-03T15:07:51.999Z</time></trkpt><trkpt lat="47.464942558502855" lon="6.936045614637902"><ele>553.5</ele><time>2026-05-03T15:07:52.999Z</time></trkpt><trkpt lat="47.4648177723886" lon="6.936114793918691"><ele>554.25</ele><time>2026-05-03T15:07:53.999Z</time></trkpt><trkpt lat="47.46474929794579" lon="6.936142222621604"><ele>555.0</ele><time>2026-05-03T15:07:54.999Z</time></trkpt><trkpt lat="47.464668275703765" lon="6.9363003090387965"><ele>554.8</ele><time>2026-05-03T15:07:56.999Z</time></trkpt><trkpt lat="47.46457084139416" lon="6.936374849662939"><ele>554.6</ele><time>2026-05-03T15:07:58.999Z</time></trkpt><trkpt lat="47.46450503190896" lon="6.936474616504002"><ele>554.4</ele><time>2026-05-03T15:07:59.999Z</time></trkpt><trkpt lat="47.46442245886802" lon="6.9365499269343"><ele>554.2</ele><time>2026-05-03T15:08:00.999Z</time></trkpt><trkpt lat="47.46434317185484" lon="6.936634421728288"><ele>554.0</ele><time>2026-05-03T15:08:01.999Z</time></trkpt><trkpt lat="47.464267879792786" lon="6.936707382468895"><ele>553.8333333333333</ele><time>2026-05-03T15:08:02.999Z</time></trkpt><trkpt lat="47.46418963900325" lon="6.936776220808463"><ele>553.6666666666666</ele><time>2026-05-03T15:08:03.999Z</time></trkpt><trkpt lat="47.46410994619521" lon="6.9368130768510285"><ele>553.5</ele><time>2026-05-03T15:08:04.999Z</time></trkpt><trkpt lat="47.464039108957024" lon="6.936820670874142"><ele>553.3333333333334</ele><time>2026-05-03T15:08:05.999Z</time></trkpt><trkpt lat="47.46392008764717" lon="6.936856534308448"><ele>553.1666666666667</ele><time>2026-05-03T15:08:07.999Z</time></trkpt><trkpt lat="47.46384649021158" lon="6.936853507096909"><ele>553.0</ele><time>2026-05-03T15:08:08.999Z</time></trkpt><trkpt lat="47.46377355899876" lon="6.936875797573633"><ele>553.0</ele><time>2026-05-03T15:08:09.999Z</time></trkpt><trkpt lat="47.463678159153226" lon="6.936986726220616"><ele>553.0</ele><time>2026-05-03T15:08:11.999Z</time></trkpt><trkpt lat="47.46359277918062" lon="6.937034831612064"><ele>553.0</ele><time>2026-05-03T15:08:12.999Z</time></trkpt><trkpt lat="47.4635348259356" lon="6.937086683013764"><ele>553.0</ele><time>2026-05-03T15:08:13.999Z</time></trkpt><trkpt lat="47.463459198303624" lon="6.937135070931113"><ele>553.0</ele><time>2026-05-03T15:08:14.999Z</time></trkpt><trkpt lat="47.46340546942823" lon="6.937233515975632"><ele>553.0</ele><time>2026-05-03T15:08:15.999Z</time></trkpt><trkpt lat="47.4633793576335" lon="6.937358901168314"><ele>553.0</ele><time>2026-05-03T15:08:16.999Z</time></trkpt><trkpt lat="47.46335027802508" lon="6.937442353098786"><ele>553.0</ele><time>2026-05-03T15:08:17.999Z</time></trkpt><trkpt lat="47.46328736873154" lon="6.937616479709619"><ele>553.0</ele><time>2026-05-03T15:08:19.999Z</time></trkpt><trkpt lat="47.463320943064645" lon="6.937814573083959"><ele>553.0</ele><time>2026-05-03T15:08:21.999Z</time></trkpt><trkpt lat="47.4633170743035" lon="6.937944604633467"><ele>553.0</ele><time>2026-05-03T15:08:22.999Z</time></trkpt><trkpt lat="47.46329547594909" lon="6.938073421901795"><ele>554.1666666666667</ele><time>2026-05-03T15:08:23.999Z</time></trkpt><trkpt lat="47.46329057735314" lon="6.938191726255055"><ele>555.3333333333334</ele><time>2026-05-03T15:08:24.999Z</time></trkpt><trkpt lat="47.46326584539008" lon="6.938284262649284"><ele>556.5</ele><time>2026-05-03T15:08:26Z</time></trkpt><trkpt lat="47.46324438681228" lon="6.938382332686513"><ele>557.6666666666666</ele><time>2026-05-03T15:08:27Z</time></trkpt><trkpt lat="47.46327773681608" lon="6.938473094515634"><ele>558.8333333333333</ele><time>2026-05-03T15:08:28Z</time></trkpt><trkpt lat="47.46327395591431" lon="6.938573875332021"><ele>560.0</ele><time>2026-05-03T15:08:29Z</time></trkpt><trkpt lat="47.463277678769025" lon="6.938762752026246"><ele>560.6</ele><time>2026-05-03T15:08:31Z</time></trkpt><trkpt lat="47.463261647140776" lon="6.938917995842046"><ele>561.2</ele><time>2026-05-03T15:08:33Z</time></trkpt><trkpt lat="47.46330855769281" lon="6.939043866663606"><ele>561.8</ele><time>2026-05-03T15:08:34Z</time></trkpt><trkpt lat="47.46334416829301" lon="6.939151841083439"><ele>562.4</ele><time>2026-05-03T15:08:35Z</time></trkpt><trkpt lat="47.463382319345754" lon="6.939309931828618"><ele>563.0</ele><time>2026-05-03T15:08:36Z</time></trkpt><trkpt lat="47.46339923695867" lon="6.9394102373589766"><ele>563.0</ele><time>2026-05-03T15:08:37Z</time></trkpt><trkpt lat="47.463424867671414" lon="6.939561695525234"><ele>563.0</ele><time>2026-05-03T15:08:39Z</time></trkpt><trkpt lat="47.46333047257748" lon="6.939680249226411"><ele>563.0</ele><time>2026-05-03T15:08:41Z</time></trkpt><trkpt lat="47.46320438383489" lon="6.939693901763761"><ele>563.0</ele><time>2026-05-03T15:08:43Z</time></trkpt><trkpt lat="47.46307030856792" lon="6.939665831092534"><ele>564.3333333333333</ele><time>2026-05-03T15:08:44Z</time></trkpt><trkpt lat="47.462883216903556" lon="6.93977374546846"><ele>565.6666666666666</ele><time>2026-05-03T15:08:45Z</time></trkpt><trkpt lat="47.462708648464115" lon="6.939735026621124"><ele>567.0</ele><time>2026-05-03T15:08:46Z</time></trkpt><trkpt lat="47.46254841892908" lon="6.939753533871067"><ele>567.0</ele><time>2026-05-03T15:08:47Z</time></trkpt><trkpt lat="47.4623350192288" lon="6.939734174392864"><ele>567.0</ele><time>2026-05-03T15:08:48Z</time></trkpt><trkpt lat="47.46218163639403" lon="6.939717168580817"><ele>567.0</ele><time>2026-05-03T15:08:49Z</time></trkpt><trkpt lat="47.46195000145534" lon="6.939679463565877"><ele>567.6666666666666</ele><time>2026-05-03T15:08:50Z</time></trkpt><trkpt lat="47.46176689249076" lon="6.939718982300449"><ele>568.3333333333333</ele><time>2026-05-03T15:08:51Z</time></trkpt><trkpt lat="47.46160681653597" lon="6.939701893264308"><ele>569.0</ele><time>2026-05-03T15:08:52Z</time></trkpt><trkpt lat="47.46148536716093" lon="6.939719177432901"><ele>569.0</ele><time>2026-05-03T15:08:53Z</time></trkpt><trkpt lat="47.46135140956455" lon="6.939741555791227"><ele>569.0</ele><time>2026-05-03T15:08:54Z</time></trkpt><trkpt lat="47.46124163978194" lon="6.939755536685244"><ele>569.0</ele><time>2026-05-03T15:08:55Z</time></trkpt><trkpt lat="47.46112375915169" lon="6.939754065761761"><ele>569.0</ele><time>2026-05-03T15:08:56Z</time></trkpt><trkpt lat="47.46100794237952" lon="6.9397251781096765"><ele>568.75</ele><time>2026-05-03T15:08:57Z</time></trkpt><trkpt lat="47.46091098694168" lon="6.939641637717192"><ele>568.5</ele><time>2026-05-03T15:08:58Z</time></trkpt><trkpt lat="47.46082131414196" lon="6.939492957790033"><ele>568.25</ele><time>2026-05-03T15:08:59Z</time></trkpt><trkpt lat="47.460728276686446" lon="6.939342511804686"><ele>568.0</ele><time>2026-05-03T15:09:00Z</time></trkpt><trkpt lat="47.460620278360445" lon="6.939261637110848"><ele>569.3333333333334</ele><time>2026-05-03T15:09:01Z</time></trkpt><trkpt lat="47.46048984650024" lon="6.939199594596049"><ele>570.6666666666666</ele><time>2026-05-03T15:09:02Z</time></trkpt><trkpt lat="47.46032788345521" lon="6.939114770710308"><ele>572.0</ele><time>2026-05-03T15:09:03Z</time></trkpt><trkpt lat="47.46016593401661" lon="6.939159897000945"><ele>572.0</ele><time>2026-05-03T15:09:04Z</time></trkpt><trkpt lat="47.46002208963411" lon="6.939158146840592"><ele>572.0</ele><time>2026-05-03T15:09:05Z</time></trkpt><trkpt lat="47.45987021395737" lon="6.939153836136801"><ele>572.0</ele><time>2026-05-03T15:09:06Z</time></trkpt><trkpt lat="47.45971904167418" lon="6.9391946485863745"><ele>572.0</ele><time>2026-05-03T15:09:07Z</time></trkpt><trkpt lat="47.45960817525528" lon="6.9392390538990645"><ele>571.75</ele><time>2026-05-03T15:09:08Z</time></trkpt><trkpt lat="47.459498476822844" lon="6.939334999824268"><ele>571.5</ele><time>2026-05-03T15:09:09Z</time></trkpt><trkpt lat="47.459418257726156" lon="6.939441806110255"><ele>571.25</ele><time>2026-05-03T15:09:10Z</time></trkpt><trkpt lat="47.45938743384313" lon="6.939600118116209"><ele>571.0</ele><time>2026-05-03T15:09:11Z</time></trkpt><trkpt lat="47.45930443524724" lon="6.939719113536959"><ele>571.0</ele><time>2026-05-03T15:09:12Z</time></trkpt><trkpt lat="47.4592465768647" lon="6.939837428852826"><ele>571.0</ele><time>2026-05-03T15:09:13Z</time></trkpt><trkpt lat="47.45919548718827" lon="6.939918409164831"><ele>571.0</ele><time>2026-05-03T15:09:14Z</time></trkpt><trkpt lat="47.459111202928234" lon="6.939993506866187"><ele>571.0</ele><time>2026-05-03T15:09:16Z</time></trkpt><trkpt lat="47.45904362422628" lon="6.939980492733317"><ele>571.0</ele><time>2026-05-03T15:09:19Z</time></trkpt><trkpt lat="47.45897831251135" lon="6.940023063437996"><ele>571.0</ele><time>2026-05-03T15:09:21Z</time></trkpt><trkpt lat="47.45885163402575" lon="6.940027362267885"><ele>572.2</ele><time>2026-05-03T15:09:23Z</time></trkpt><trkpt lat="47.458771183210324" lon="6.94002834643709"><ele>573.4000000000001</ele><time>2026-05-03T15:09:24Z</time></trkpt><trkpt lat="47.45868191170785" lon="6.939930977093548"><ele>574.6</ele><time>2026-05-03T15:09:25Z</time></trkpt><trkpt lat="47.45860386400986" lon="6.939871309119461"><ele>575.8000000000001</ele><time>2026-05-03T15:09:26Z</time></trkpt><trkpt lat="47.45855941393802" lon="6.939804570317379"><ele>577.0</ele><time>2026-05-03T15:09:27Z</time></trkpt><trkpt lat="47.45844217535221" lon="6.939731245664538"><ele>577.0</ele><time>2026-05-03T15:09:28Z</time></trkpt><trkpt lat="47.45835927366666" lon="6.9396798381500036"><ele>577.0</ele><time>2026-05-03T15:09:29Z</time></trkpt><trkpt lat="47.458256078065375" lon="6.93959796988536"><ele>577.0</ele><time>2026-05-03T15:09:30Z</time></trkpt><trkpt lat="47.458127490840674" lon="6.939527393352998"><ele>577.0</ele><time>2026-05-03T15:09:32Z</time></trkpt><trkpt lat="47.458085498089396" lon="6.939455515185304"><ele>577.0</ele><time>2026-05-03T15:09:33Z</time></trkpt><trkpt lat="47.45803016809134" lon="6.93938178401776"><ele>577.5</ele><time>2026-05-03T15:09:34Z</time></trkpt><trkpt lat="47.45794395900433" lon="6.939348441787838"><ele>578.0</ele><time>2026-05-03T15:09:35Z</time></trkpt><trkpt lat="47.45783249820288" lon="6.939400414906473"><ele>578.5</ele><time>2026-05-03T15:09:37Z</time></trkpt><trkpt lat="47.45772210197193" lon="6.939265084130976"><ele>579.0</ele><time>2026-05-03T15:09:39Z</time></trkpt><trkpt lat="47.457623338928556" lon="6.939129055342361"><ele>579.0</ele><time>2026-05-03T15:09:41Z</time></trkpt><trkpt lat="47.45753177375315" lon="6.939039969810221"><ele>579.0</ele><time>2026-05-03T15:09:42Z</time></trkpt><trkpt lat="47.45747806082034" lon="6.938953471425859"><ele>579.0</ele><time>2026-05-03T15:09:42.999Z</time></trkpt><trkpt lat="47.45743988317398" lon="6.938872495830336"><ele>579.0</ele><time>2026-05-03T15:09:43.999Z</time></trkpt><trkpt lat="47.45738861153576" lon="6.938812372553654"><ele>579.0</ele><time>2026-05-03T15:09:44.999Z</time></trkpt><trkpt lat="47.45735602076376" lon="6.93868048394088"><ele>579.0</ele><time>2026-05-03T15:09:46.999Z</time></trkpt><trkpt lat="47.457312465942266" lon="6.93856023482245"><ele>579.0</ele><time>2026-05-03T15:09:47.999Z</time></trkpt><trkpt lat="47.457255089229335" lon="6.938445223009609"><ele>579.0</ele><time>2026-05-03T15:09:48.999Z</time></trkpt><trkpt lat="47.45718062451164" lon="6.938329139785969"><ele>579.0</ele><time>2026-05-03T15:09:49.999Z</time></trkpt><trkpt lat="47.45714650141871" lon="6.938205185405889"><ele>579.0</ele><time>2026-05-03T15:09:50.999Z</time></trkpt><trkpt lat="47.457119307472404" lon="6.9380850729821795"><ele>579.0</ele><time>2026-05-03T15:09:51.999Z</time></trkpt><trkpt lat="47.45706718896927" lon="6.937928582970562"><ele>578.6</ele><time>2026-05-03T15:09:52.999Z</time></trkpt><trkpt lat="47.457009653608594" lon="6.937723183252565"><ele>578.2</ele><time>2026-05-03T15:09:53.999Z</time></trkpt><trkpt lat="47.456979463338705" lon="6.937609156440516"><ele>577.8000000000001</ele><time>2026-05-03T15:09:54.999Z</time></trkpt><trkpt lat="47.45698284298404" lon="6.937456330660493"><ele>577.4</ele><time>2026-05-03T15:09:56.999Z</time></trkpt><trkpt lat="47.45702297588737" lon="6.9373675483940325"><ele>577.0</ele><time>2026-05-03T15:09:57.999Z</time></trkpt><trkpt lat="47.4569469521592" lon="6.93734867105214"><ele>577.0</ele><time>2026-05-03T15:09:58.999Z</time></trkpt><trkpt lat="47.456829010514745" lon="6.937390121798221"><ele>577.0</ele><time>2026-05-03T15:09:59.999Z</time></trkpt><trkpt lat="47.4567230447067" lon="6.937441915117278"><ele>577.0</ele><time>2026-05-03T15:10:00.999Z</time></trkpt><trkpt lat="47.45669638977453" lon="6.937632167925941"><ele>577.0</ele><time>2026-05-03T15:10:01.999Z</time></trkpt><trkpt lat="47.45663195582468" lon="6.937677869404082"><ele>577.0</ele><time>2026-05-03T15:10:02.999Z</time></trkpt><trkpt lat="47.456543134454044" lon="6.937771836913019"><ele>577.0</ele><time>2026-05-03T15:10:03.999Z</time></trkpt><trkpt lat="47.45647308917471" lon="6.93784268916529"><ele>577.0</ele><time>2026-05-03T15:10:04.999Z</time></trkpt><trkpt lat="47.456406467642765" lon="6.937919238617692"><ele>577.0</ele><time>2026-05-03T15:10:05.999Z</time></trkpt><trkpt lat="47.456305438024174" lon="6.938010652334085"><ele>577.0</ele><time>2026-05-03T15:10:06.999Z</time></trkpt><trkpt lat="47.45623719781501" lon="6.938023569208355"><ele>577.0</ele><time>2026-05-03T15:10:07.999Z</time></trkpt><trkpt lat="47.4561802087285" lon="6.938133760095448"><ele>579.1666666666667</ele><time>2026-05-03T15:10:08.999Z</time></trkpt><trkpt lat="47.456209669047155" lon="6.938252621070184"><ele>581.3333333333334</ele><time>2026-05-03T15:10:09.999Z</time></trkpt><trkpt lat="47.45612828292975" lon="6.938307581495625"><ele>583.5</ele><time>2026-05-03T15:10:10.999Z</time></trkpt><trkpt lat="47.45603360900282" lon="6.938333187364451"><ele>585.6666666666666</ele><time>2026-05-03T15:10:11.999Z</time></trkpt><trkpt lat="47.455964203729366" lon="6.9383345175138915"><ele>587.8333333333333</ele><time>2026-05-03T15:10:12.999Z</time></trkpt><trkpt lat="47.455904537653865" lon="6.938379155878791"><ele>590.0</ele><time>2026-05-03T15:10:13.999Z</time></trkpt><trkpt lat="47.45579146385673" lon="6.938396399075618"><ele>590.0</ele><time>2026-05-03T15:10:15.999Z</time></trkpt><trkpt lat="47.455678161360204" lon="6.938396512372462"><ele>590.0</ele><time>2026-05-03T15:10:16.999Z</time></trkpt><trkpt lat="47.4555961286794" lon="6.93846463015784"><ele>590.0</ele><time>2026-05-03T15:10:18.999Z</time></trkpt><trkpt lat="47.45550387105372" lon="6.938409768467024"><ele>590.0</ele><time>2026-05-03T15:10:19.999Z</time></trkpt><trkpt lat="47.45543610054629" lon="6.938409116208982"><ele>590.0</ele><time>2026-05-03T15:10:20.999Z</time></trkpt><trkpt lat="47.45534951885033" lon="6.938397070670706"><ele>590.0</ele><time>2026-05-03T15:10:21.999Z</time></trkpt><trkpt lat="47.45526757263868" lon="6.9384257840448695"><ele>590.0</ele><time>2026-05-03T15:10:22.999Z</time></trkpt><trkpt lat="47.45520845741819" lon="6.938498239436217"><ele>590.0</ele><time>2026-05-03T15:10:23.999Z</time></trkpt><trkpt lat="47.45514770786233" lon="6.938612084852346"><ele>590.0</ele><time>2026-05-03T15:10:24.999Z</time></trkpt><trkpt lat="47.455090381764705" lon="6.938663473758266"><ele>590.0</ele><time>2026-05-03T15:10:25.999Z</time></trkpt><trkpt lat="47.45499604468357" lon="6.938676463444814"><ele>590.0</ele><time>2026-05-03T15:10:26.999Z</time></trkpt><trkpt lat="47.45490238722362" lon="6.938651500587668"><ele>590.0</ele><time>2026-05-03T15:10:27.999Z</time></trkpt><trkpt lat="47.454785547798394" lon="6.938581807227025"><ele>590.0</ele><time>2026-05-03T15:10:29.999Z</time></trkpt><trkpt lat="47.454703226241634" lon="6.938469952314524"><ele>590.0</ele><time>2026-05-03T15:10:30.999Z</time></trkpt><trkpt lat="47.45467085897622" lon="6.938372935806665"><ele>590.0</ele><time>2026-05-03T15:10:33Z</time></trkpt><trkpt lat="47.45465972403157" lon="6.938206622627125"><ele>590.0</ele><time>2026-05-03T15:10:35Z</time></trkpt><trkpt lat="47.454633271440784" lon="6.9380543913357196"><ele>590.0</ele><time>2026-05-03T15:10:37Z</time></trkpt><trkpt lat="47.45458022007998" lon="6.937964555670467"><ele>590.0</ele><time>2026-05-03T15:10:39Z</time></trkpt><trkpt lat="47.45471200306664" lon="6.937981395868754"><ele>590.0</ele><time>2026-05-03T15:10:41Z</time></trkpt><trkpt lat="47.45478085957285" lon="6.937954425894085"><ele>590.0</ele><time>2026-05-03T15:10:52Z</time></trkpt><trkpt lat="47.4548165767667" lon="6.938070137053431"><ele>590.0</ele><time>2026-05-03T15:11:03Z</time></trkpt><trkpt lat="47.4548099485214" lon="6.937951103375519"><ele>590.0</ele><time>2026-05-03T15:11:13Z</time></trkpt><trkpt lat="47.45469201359641" lon="6.937878713297999"><ele>590.0</ele><time>2026-05-03T15:13:03Z</time></trkpt><trkpt lat="47.45461847920286" lon="6.937846719757256"><ele>590.0</ele><time>2026-05-03T15:13:07Z</time></trkpt><trkpt lat="47.4545476041226" lon="6.937841988618909"><ele>590.0</ele><time>2026-05-03T15:13:09Z</time></trkpt><trkpt lat="47.4544817463603" lon="6.937860461001001"><ele>590.0</ele><time>2026-05-03T15:13:48Z</time></trkpt><trkpt lat="47.45443160560495" lon="6.937982731889205"><ele>590.0</ele><time>2026-05-03T15:13:51Z</time></trkpt><trkpt lat="47.454443625271665" lon="6.938203948778914"><ele>587.5</ele><time>2026-05-03T15:13:52Z</time></trkpt><trkpt lat="47.45441102972028" lon="6.938398022489823"><ele>585.0</ele><time>2026-05-03T15:13:53Z</time></trkpt><trkpt lat="47.45440377040381" lon="6.938564331494905"><ele>582.5</ele><time>2026-05-03T15:13:54Z</time></trkpt><trkpt lat="47.45438532581925" lon="6.938713852339494"><ele>580.0</ele><time>2026-05-03T15:13:55Z</time></trkpt><trkpt lat="47.45431104788701" lon="6.9388666247544055"><ele>580.0</ele><time>2026-05-03T15:13:56Z</time></trkpt><trkpt lat="47.45425461802131" lon="6.939022999693988"><ele>580.0</ele><time>2026-05-03T15:13:57Z</time></trkpt><trkpt lat="47.45421242193008" lon="6.93916790370448"><ele>580.0</ele><time>2026-05-03T15:13:58Z</time></trkpt><trkpt lat="47.45414543665955" lon="6.93931823925371"><ele>580.0</ele><time>2026-05-03T15:13:59Z</time></trkpt><trkpt lat="47.454086869944526" lon="6.939461040839103"><ele>580.4</ele><time>2026-05-03T15:14:00Z</time></trkpt><trkpt lat="47.45403616941512" lon="6.939596142862413"><ele>580.8</ele><time>2026-05-03T15:14:01Z</time></trkpt><trkpt lat="47.454007491351945" lon="6.939724126206696"><ele>581.2</ele><time>2026-05-03T15:14:02Z</time></trkpt><trkpt lat="47.453978876064845" lon="6.939880545996981"><ele>581.6</ele><time>2026-05-03T15:14:03Z</time></trkpt><trkpt lat="47.45395099293503" lon="6.940069146935946"><ele>582.0</ele><time>2026-05-03T15:14:04Z</time></trkpt><trkpt lat="47.45390995758842" lon="6.940281872661707"><ele>582.5</ele><time>2026-05-03T15:14:05Z</time></trkpt><trkpt lat="47.45388116192584" lon="6.9404893802985015"><ele>583.0</ele><time>2026-05-03T15:14:06Z</time></trkpt><trkpt lat="47.45385444137765" lon="6.940685940438242"><ele>583.5</ele><time>2026-05-03T15:14:07Z</time></trkpt><trkpt lat="47.45383431634536" lon="6.940879322045767"><ele>584.0</ele><time>2026-05-03T15:14:08Z</time></trkpt><trkpt lat="47.45382300386501" lon="6.94109840671175"><ele>581.75</ele><time>2026-05-03T15:14:09Z</time></trkpt><trkpt lat="47.45378798047214" lon="6.941303409684341"><ele>579.5</ele><time>2026-05-03T15:14:10Z</time></trkpt><trkpt lat="47.453754036649585" lon="6.9414965841790846"><ele>577.25</ele><time>2026-05-03T15:14:11Z</time></trkpt><trkpt lat="47.453724732857616" lon="6.941655750267011"><ele>575.0</ele><time>2026-05-03T15:14:12Z</time></trkpt><trkpt lat="47.45369190859144" lon="6.941802061740439"><ele>575.0</ele><time>2026-05-03T15:14:13Z</time></trkpt><trkpt lat="47.45366802725241" lon="6.941933987036094"><ele>575.0</ele><time>2026-05-03T15:14:14Z</time></trkpt><trkpt lat="47.45363611175288" lon="6.9420399364921925"><ele>575.0</ele><time>2026-05-03T15:14:15Z</time></trkpt><trkpt lat="47.453589492699216" lon="6.942127648539891"><ele>575.0</ele><time>2026-05-03T15:14:17Z</time></trkpt><trkpt lat="47.453516159778914" lon="6.942078248226845"><ele>575.0</ele><time>2026-05-03T15:14:20Z</time></trkpt><trkpt lat="47.45345442372414" lon="6.942103689734299"><ele>575.0</ele><time>2026-05-03T15:14:22Z</time></trkpt><trkpt lat="47.45325502983757" lon="6.9417559026611295"><ele>575.0</ele><time>2026-05-03T15:14:25Z</time></trkpt><trkpt lat="47.45317019893893" lon="6.941638529484107"><ele>575.0</ele><time>2026-05-03T15:14:27Z</time></trkpt><trkpt lat="47.453119961011666" lon="6.941570992932027"><ele>575.0</ele><time>2026-05-03T15:14:28Z</time></trkpt><trkpt lat="47.45306555888163" lon="6.941492737016257"><ele>575.0</ele><time>2026-05-03T15:14:29Z</time></trkpt><trkpt lat="47.4529952238041" lon="6.9413678947133235"><ele>575.0</ele><time>2026-05-03T15:14:30Z</time></trkpt><trkpt lat="47.45291748041844" lon="6.941278353073448"><ele>575.0</ele><time>2026-05-03T15:14:31Z</time></trkpt><trkpt lat="47.45286573649403" lon="6.941193450433173"><ele>575.0</ele><time>2026-05-03T15:14:32Z</time></trkpt><trkpt lat="47.45282111509616" lon="6.941108881461761"><ele>575.0</ele><time>2026-05-03T15:14:33Z</time></trkpt><trkpt lat="47.45272249696418" lon="6.940958418249324"><ele>575.0</ele><time>2026-05-03T15:14:35Z</time></trkpt><trkpt lat="47.452671459981126" lon="6.940874893669161"><ele>575.0</ele><time>2026-05-03T15:14:36Z</time></trkpt><trkpt lat="47.45262217684394" lon="6.940799928928481"><ele>575.0</ele><time>2026-05-03T15:14:37Z</time></trkpt><trkpt lat="47.45257860052833" lon="6.940722209802391"><ele>575.0</ele><time>2026-05-03T15:14:38Z</time></trkpt><trkpt lat="47.45252602064885" lon="6.940618668893452"><ele>575.0</ele><time>2026-05-03T15:14:39Z</time></trkpt><trkpt lat="47.452474201082886" lon="6.940559045987554"><ele>575.0</ele><time>2026-05-03T15:14:40Z</time></trkpt><trkpt lat="47.45241833347001" lon="6.940480775470485"><ele>575.0</ele><time>2026-05-03T15:14:41Z</time></trkpt><trkpt lat="47.452362630104645" lon="6.940400121186181"><ele>575.0</ele><time>2026-05-03T15:14:42Z</time></trkpt><trkpt lat="47.45231149659377" lon="6.940310458674478"><ele>575.0</ele><time>2026-05-03T15:14:43Z</time></trkpt><trkpt lat="47.452255288351516" lon="6.940244669197561"><ele>575.0</ele><time>2026-05-03T15:14:44Z</time></trkpt><trkpt lat="47.452196036999986" lon="6.940196723835079"><ele>575.0</ele><time>2026-05-03T15:14:45Z</time></trkpt><trkpt lat="47.45213081634743" lon="6.940154117333535"><ele>575.0</ele><time>2026-05-03T15:14:46Z</time></trkpt><trkpt lat="47.4520495678082" lon="6.940127773334523"><ele>575.0</ele><time>2026-05-03T15:14:47Z</time></trkpt><trkpt lat="47.45198642593772" lon="6.940127951692518"><ele>575.0</ele><time>2026-05-03T15:14:48Z</time></trkpt><trkpt lat="47.45190001412231" lon="6.940091164043154"><ele>575.0</ele><time>2026-05-03T15:14:50Z</time></trkpt><trkpt lat="47.45180382493505" lon="6.940063808212982"><ele>575.1666666666666</ele><time>2026-05-03T15:14:53Z</time></trkpt><trkpt lat="47.45172191979786" lon="6.940047812793679"><ele>575.3333333333333</ele><time>2026-05-03T15:14:55Z</time></trkpt><trkpt lat="47.451641860138906" lon="6.940019545437241"><ele>575.5</ele><time>2026-05-03T15:14:57Z</time></trkpt><trkpt lat="47.45153220672827" lon="6.939992490680647"><ele>575.6666666666666</ele><time>2026-05-03T15:14:59Z</time></trkpt><trkpt lat="47.45146201312351" lon="6.939961583740319"><ele>575.8333333333334</ele><time>2026-05-03T15:15:00Z</time></trkpt><trkpt lat="47.451385922947324" lon="6.939897658649313"><ele>576.0</ele><time>2026-05-03T15:15:01Z</time></trkpt><trkpt lat="47.451310260812285" lon="6.939867554685253"><ele>576.1666666666666</ele><time>2026-05-03T15:15:02Z</time></trkpt><trkpt lat="47.45122539827175" lon="6.939833325206361"><ele>576.3333333333334</ele><time>2026-05-03T15:15:03Z</time></trkpt><trkpt lat="47.451157578398906" lon="6.939801555543367"><ele>576.5</ele><time>2026-05-03T15:15:04Z</time></trkpt><trkpt lat="47.45108956518851" lon="6.939771880810661"><ele>576.6666666666667</ele><time>2026-05-03T15:15:05Z</time></trkpt><trkpt lat="47.451002331114765" lon="6.939750379871507"><ele>576.8333333333334</ele><time>2026-05-03T15:15:06Z</time></trkpt><trkpt lat="47.45092966339647" lon="6.939742454261798"><ele>577.0</ele><time>2026-05-03T15:15:07Z</time></trkpt><trkpt lat="47.45082743435119" lon="6.9397507743392834"><ele>577.0</ele><time>2026-05-03T15:15:08Z</time></trkpt><trkpt lat="47.450751657424256" lon="6.939740942950279"><ele>577.0</ele><time>2026-05-03T15:15:09Z</time></trkpt><trkpt lat="47.450659137107166" lon="6.939724607880415"><ele>577.0</ele><time>2026-05-03T15:15:10Z</time></trkpt><trkpt lat="47.45059139781379" lon="6.939713362896087"><ele>577.0</ele><time>2026-05-03T15:15:11Z</time></trkpt><trkpt lat="47.45047150487175" lon="6.939700334974438"><ele>577.0</ele><time>2026-05-03T15:15:13Z</time></trkpt><trkpt lat="47.450356643474834" lon="6.939661805091326"><ele>577.6</ele><time>2026-05-03T15:15:15Z</time></trkpt><trkpt lat="47.45025838236203" lon="6.939668406610037"><ele>578.2</ele><time>2026-05-03T15:15:17Z</time></trkpt><trkpt lat="47.450160544094295" lon="6.939634253569843"><ele>578.8</ele><time>2026-05-03T15:15:19Z</time></trkpt><trkpt lat="47.45003567275506" lon="6.9396167094151"><ele>579.4</ele><time>2026-05-03T15:15:21Z</time></trkpt><trkpt lat="47.4499132269154" lon="6.939623585868393"><ele>580.0</ele><time>2026-05-03T15:15:23Z</time></trkpt><trkpt lat="47.44980400086653" lon="6.939608444665654"><ele>580.0</ele><time>2026-05-03T15:15:25Z</time></trkpt><trkpt lat="47.449699651154795" lon="6.93957154839186"><ele>580.0</ele><time>2026-05-03T15:15:27Z</time></trkpt><trkpt lat="47.44959207982458" lon="6.9395830260262015"><ele>580.0</ele><time>2026-05-03T15:15:29Z</time></trkpt><trkpt lat="47.44946402762638" lon="6.939574681479543"><ele>580.0</ele><time>2026-05-03T15:15:31Z</time></trkpt><trkpt lat="47.449398645287815" lon="6.939546895897866"><ele>580.0</ele><time>2026-05-03T15:15:32Z</time></trkpt><trkpt lat="47.449294637065336" lon="6.939531035822803"><ele>580.4</ele><time>2026-05-03T15:15:34Z</time></trkpt><trkpt lat="47.449173385317486" lon="6.9395279779734125"><ele>580.8</ele><time>2026-05-03T15:15:36Z</time></trkpt><trkpt lat="47.44907225881022" lon="6.93949319347305"><ele>581.2</ele><time>2026-05-03T15:15:38Z</time></trkpt><trkpt lat="47.44894185789623" lon="6.939469782924871"><ele>581.6</ele><time>2026-05-03T15:15:40Z</time></trkpt><trkpt lat="47.44887902955978" lon="6.939458503511484"><ele>582.0</ele><time>2026-05-03T15:15:41Z</time></trkpt><trkpt lat="47.44881498327853" lon="6.939470297969636"><ele>583.0</ele><time>2026-05-03T15:15:42Z</time></trkpt><trkpt lat="47.44869126419433" lon="6.939452280831187"><ele>584.0</ele><time>2026-05-03T15:15:44Z</time></trkpt><trkpt lat="47.44857874884736" lon="6.939446145341961"><ele>585.0</ele><time>2026-05-03T15:15:46Z</time></trkpt><trkpt lat="47.44855184247997" lon="6.939559129340036"><ele>586.0</ele><time>2026-05-03T15:15:48Z</time></trkpt><trkpt lat="47.44854615865735" lon="6.939724628680741"><ele>587.0</ele><time>2026-05-03T15:15:50Z</time></trkpt><trkpt lat="47.448545022222795" lon="6.93984601669394"><ele>587.0</ele><time>2026-05-03T15:15:51Z</time></trkpt><trkpt lat="47.44855866239396" lon="6.939953661791976"><ele>587.0</ele><time>2026-05-03T15:15:52Z</time></trkpt><trkpt lat="47.448554322253315" lon="6.940046644776448"><ele>587.0</ele><time>2026-05-03T15:15:53Z</time></trkpt><trkpt lat="47.44855041964128" lon="6.940150578870577"><ele>587.0</ele><time>2026-05-03T15:15:55Z</time></trkpt><trkpt lat="47.448530225711146" lon="6.940309103820794"><ele>587.0</ele><time>2026-05-03T15:15:57Z</time></trkpt><trkpt lat="47.448521797511994" lon="6.940484499856255"><ele>587.0</ele><time>2026-05-03T15:15:59Z</time></trkpt><trkpt lat="47.448517100905136" lon="6.940578471764812"><ele>587.0</ele><time>2026-05-03T15:16:00Z</time></trkpt><trkpt lat="47.44851170653995" lon="6.940694822047115"><ele>587.0</ele><time>2026-05-03T15:16:01Z</time></trkpt><trkpt lat="47.44852058646548" lon="6.940828977782281"><ele>587.0</ele><time>2026-05-03T15:16:03Z</time></trkpt><trkpt lat="47.448518179157574" lon="6.940930875271798"><ele>587.0</ele><time>2026-05-03T15:16:04Z</time></trkpt><trkpt lat="47.44851963261201" lon="6.9411061986625855"><ele>587.0</ele><time>2026-05-03T15:16:06Z</time></trkpt><trkpt lat="47.44849437661228" lon="6.941200740431848"><ele>587.0</ele><time>2026-05-03T15:16:07Z</time></trkpt><trkpt lat="47.44848195473416" lon="6.941300319271624"><ele>587.0</ele><time>2026-05-03T15:16:08Z</time></trkpt><trkpt lat="47.44846661636364" lon="6.941410491623503"><ele>587.0</ele><time>2026-05-03T15:16:09Z</time></trkpt><trkpt lat="47.44846305905037" lon="6.941541023057271"><ele>587.0</ele><time>2026-05-03T15:16:11Z</time></trkpt><trkpt lat="47.44843651443717" lon="6.941690977452467"><ele>587.0</ele><time>2026-05-03T15:16:13Z</time></trkpt><trkpt lat="47.44840370347616" lon="6.94179087447423"><ele>587.0</ele><time>2026-05-03T15:16:14Z</time></trkpt><trkpt lat="47.44838606856454" lon="6.941891316801926"><ele>587.0</ele><time>2026-05-03T15:16:15Z</time></trkpt><trkpt lat="47.44837024058164" lon="6.942072448768756"><ele>587.0</ele><time>2026-05-03T15:16:17Z</time></trkpt><trkpt lat="47.44835102884719" lon="6.942165948641522"><ele>587.0</ele><time>2026-05-03T15:16:18Z</time></trkpt><trkpt lat="47.44833104095308" lon="6.9423025790804305"><ele>587.0</ele><time>2026-05-03T15:16:20Z</time></trkpt><trkpt lat="47.44830260088567" lon="6.942387493403206"><ele>587.0</ele><time>2026-05-03T15:16:21Z</time></trkpt><trkpt lat="47.44828658981474" lon="6.942492677979808"><ele>587.0</ele><time>2026-05-03T15:16:22Z</time></trkpt><trkpt lat="47.44827052105775" lon="6.942598241555305"><ele>587.0</ele><time>2026-05-03T15:16:23Z</time></trkpt><trkpt lat="47.44826829889904" lon="6.942722822177372"><ele>587.0</ele><time>2026-05-03T15:16:24Z</time></trkpt><trkpt lat="47.44825235076755" lon="6.942840300530696"><ele>587.0</ele><time>2026-05-03T15:16:25Z</time></trkpt><trkpt lat="47.448232284438944" lon="6.942954483360374"><ele>587.0</ele><time>2026-05-03T15:16:26Z</time></trkpt><trkpt lat="47.44822122173672" lon="6.943076889911605"><ele>587.0</ele><time>2026-05-03T15:16:27Z</time></trkpt><trkpt lat="47.44821642783876" lon="6.943183702227395"><ele>587.0</ele><time>2026-05-03T15:16:28Z</time></trkpt><trkpt lat="47.44818569489104" lon="6.94329131006267"><ele>587.0</ele><time>2026-05-03T15:16:29Z</time></trkpt><trkpt lat="47.44816112736845" lon="6.9433900645270805"><ele>587.0</ele><time>2026-05-03T15:16:30Z</time></trkpt><trkpt lat="47.44811845964597" lon="6.943465271078534"><ele>587.0</ele><time>2026-05-03T15:16:31Z</time></trkpt><trkpt lat="47.44805223024457" lon="6.9434635983359465"><ele>587.0</ele><time>2026-05-03T15:16:32Z</time></trkpt><trkpt lat="47.447909762296405" lon="6.943424512504673"><ele>587.0</ele><time>2026-05-03T15:16:34Z</time></trkpt><trkpt lat="47.447804080302895" lon="6.943423371880787"><ele>587.0</ele><time>2026-05-03T15:16:35Z</time></trkpt><trkpt lat="47.447599855573884" lon="6.943425249146991"><ele>588.3333333333333</ele><time>2026-05-03T15:16:36Z</time></trkpt><trkpt lat="47.447435569077825" lon="6.943455637127635"><ele>589.6666666666666</ele><time>2026-05-03T15:16:37Z</time></trkpt><trkpt lat="47.44725692097183" lon="6.943445093794933"><ele>591.0</ele><time>2026-05-03T15:16:38Z</time></trkpt><trkpt lat="47.447099429369025" lon="6.9434765326973205"><ele>592.75</ele><time>2026-05-03T15:16:39Z</time></trkpt><trkpt lat="47.44696194602483" lon="6.943479811658911"><ele>594.5</ele><time>2026-05-03T15:16:40Z</time></trkpt><trkpt lat="47.44682708038693" lon="6.943485180170321"><ele>596.25</ele><time>2026-05-03T15:16:41Z</time></trkpt><trkpt lat="47.446706916216186" lon="6.943492934504849"><ele>598.0</ele><time>2026-05-03T15:16:42Z</time></trkpt><trkpt lat="47.446598729985745" lon="6.943488877967847"><ele>598.0</ele><time>2026-05-03T15:16:43Z</time></trkpt><trkpt lat="47.44650116034936" lon="6.94349448575486"><ele>598.0</ele><time>2026-05-03T15:16:44Z</time></trkpt><trkpt lat="47.44641582957997" lon="6.943497074874556"><ele>598.0</ele><time>2026-05-03T15:16:45Z</time></trkpt><trkpt lat="47.44634032265278" lon="6.943489790627111"><ele>598.0</ele><time>2026-05-03T15:16:46Z</time></trkpt><trkpt lat="47.44627604723638" lon="6.9434865824238985"><ele>598.0</ele><time>2026-05-03T15:16:47Z</time></trkpt><trkpt lat="47.44620533878811" lon="6.943494059753079"><ele>598.0</ele><time>2026-05-03T15:16:48Z</time></trkpt><trkpt lat="47.44614397808404" lon="6.943517171220198"><ele>599.4</ele><time>2026-05-03T15:16:49Z</time></trkpt><trkpt lat="47.44608602024942" lon="6.94357653377835"><ele>600.8</ele><time>2026-05-03T15:16:50Z</time></trkpt><trkpt lat="47.445969839197325" lon="6.94365756777876"><ele>602.2</ele><time>2026-05-03T15:16:52Z</time></trkpt><trkpt lat="47.44584305487939" lon="6.9437471814345875"><ele>603.6</ele><time>2026-05-03T15:16:54Z</time></trkpt><trkpt lat="47.445782096955135" lon="6.943781212443077"><ele>605.0</ele><time>2026-05-03T15:16:55Z</time></trkpt><trkpt lat="47.44572696026698" lon="6.943826354795812"><ele>605.0</ele><time>2026-05-03T15:16:56Z</time></trkpt><trkpt lat="47.445669117242424" lon="6.943868060954547"><ele>605.0</ele><time>2026-05-03T15:16:57Z</time></trkpt><trkpt lat="47.44558317273729" lon="6.943934322556487"><ele>605.0</ele><time>2026-05-03T15:16:59Z</time></trkpt><trkpt lat="47.445479842306405" lon="6.943969814495151"><ele>605.0</ele><time>2026-05-03T15:17:01Z</time></trkpt><trkpt lat="47.44538957916805" lon="6.944041564481598"><ele>605.0</ele><time>2026-05-03T15:17:03Z</time></trkpt><trkpt lat="47.4453045232631" lon="6.944059440426102"><ele>606.0</ele><time>2026-05-03T15:17:05Z</time></trkpt><trkpt lat="47.44524106572353" lon="6.944112454934736"><ele>607.0</ele><time>2026-05-03T15:17:07Z</time></trkpt><trkpt lat="47.44533550604864" lon="6.944384395786101"><ele>608.0</ele><time>2026-05-03T15:17:10Z</time></trkpt><trkpt lat="47.445405223950694" lon="6.944473862909076"><ele>609.0</ele><time>2026-05-03T15:17:11Z</time></trkpt><trkpt lat="47.445484337889766" lon="6.94463572067801"><ele>604.0</ele><time>2026-05-03T15:17:12Z</time></trkpt><trkpt lat="47.44561840914077" lon="6.944872220777982"><ele>599.0</ele><time>2026-05-03T15:17:13Z</time></trkpt><trkpt lat="47.44571446818399" lon="6.945065859187971"><ele>594.0</ele><time>2026-05-03T15:17:14Z</time></trkpt><trkpt lat="47.445840342630504" lon="6.945362235546845"><ele>592.5</ele><time>2026-05-03T15:17:15Z</time></trkpt><trkpt lat="47.445956390739255" lon="6.945732137895283"><ele>591.0</ele><time>2026-05-03T15:17:16Z</time></trkpt><trkpt lat="47.44603410408525" lon="6.946044282923499"><ele>591.0</ele><time>2026-05-03T15:17:17Z</time></trkpt><trkpt lat="47.44606076965042" lon="6.94631901668593"><ele>591.0</ele><time>2026-05-03T15:17:18Z</time></trkpt><trkpt lat="47.446059990739364" lon="6.946589711106085"><ele>591.0</ele><time>2026-05-03T15:17:19Z</time></trkpt><trkpt lat="47.446059856101456" lon="6.9468919066394905"><ele>593.0</ele><time>2026-05-03T15:17:20Z</time></trkpt><trkpt lat="47.44607436032072" lon="6.947221650605788"><ele>595.0</ele><time>2026-05-03T15:17:21Z</time></trkpt><trkpt lat="47.4461291116756" lon="6.947562500534482"><ele>595.5</ele><time>2026-05-03T15:17:22Z</time></trkpt><trkpt lat="47.44621252482556" lon="6.9478931306183425"><ele>596.0</ele><time>2026-05-03T15:17:23Z</time></trkpt><trkpt lat="47.446304333766285" lon="6.948233485343133"><ele>598.0</ele><time>2026-05-03T15:17:24Z</time></trkpt><trkpt lat="47.446464779252906" lon="6.948519344541504"><ele>600.0</ele><time>2026-05-03T15:17:25Z</time></trkpt><trkpt lat="47.44661347317335" lon="6.948737663908927"><ele>600.0</ele><time>2026-05-03T15:17:26Z</time></trkpt><trkpt lat="47.44674460907115" lon="6.94889868900547"><ele>600.0</ele><time>2026-05-03T15:17:27Z</time></trkpt><trkpt lat="47.44685278397224" lon="6.948990136479431"><ele>600.0</ele><time>2026-05-03T15:17:28Z</time></trkpt><trkpt lat="47.44690894691959" lon="6.9490476979016735"><ele>600.0</ele><time>2026-05-03T15:17:29Z</time></trkpt><trkpt lat="47.44688782279352" lon="6.949176793890578"><ele>600.4</ele><time>2026-05-03T15:17:32Z</time></trkpt><trkpt lat="47.4468352099059" lon="6.94925741028549"><ele>600.8</ele><time>2026-05-03T15:17:33Z</time></trkpt><trkpt lat="47.446755098986316" lon="6.949374952499614"><ele>601.2</ele><time>2026-05-03T15:17:35Z</time></trkpt><trkpt lat="47.446680704924475" lon="6.949524477153103"><ele>601.6</ele><time>2026-05-03T15:17:37Z</time></trkpt><trkpt lat="47.44660230204432" lon="6.949641450839557"><ele>602.0</ele><time>2026-05-03T15:17:39Z</time></trkpt><trkpt lat="47.446532307113074" lon="6.949770152560413"><ele>602.0</ele><time>2026-05-03T15:17:41Z</time></trkpt><trkpt lat="47.446485857468794" lon="6.949849698173521"><ele>602.0</ele><time>2026-05-03T15:17:42Z</time></trkpt><trkpt lat="47.44641313157061" lon="6.949966902528393"><ele>602.0</ele><time>2026-05-03T15:17:44Z</time></trkpt><trkpt lat="47.44637398289934" lon="6.9500475633422605"><ele>602.0</ele><time>2026-05-03T15:17:45Z</time></trkpt><trkpt lat="47.446322242047486" lon="6.9501388570383416"><ele>602.0</ele><time>2026-05-03T15:17:46Z</time></trkpt><trkpt lat="47.44625287007016" lon="6.950212214468782"><ele>602.0</ele><time>2026-05-03T15:17:48Z</time></trkpt><trkpt lat="47.446201225200184" lon="6.9502769901166745"><ele>602.0</ele><time>2026-05-03T15:17:49Z</time></trkpt><trkpt lat="47.446147027726425" lon="6.950397430173261"><ele>602.0</ele><time>2026-05-03T15:17:51Z</time></trkpt><trkpt lat="47.446105703035414" lon="6.950519986499477"><ele>602.0</ele><time>2026-05-03T15:17:53Z</time></trkpt><trkpt lat="47.446061853402014" lon="6.950674690787783"><ele>602.0</ele><time>2026-05-03T15:17:55Z</time></trkpt><trkpt lat="47.44603605627266" lon="6.950772324289573"><ele>602.0</ele><time>2026-05-03T15:17:56Z</time></trkpt><trkpt lat="47.445975502756646" lon="6.950904577795934"><ele>602.2</ele><time>2026-05-03T15:17:58Z</time></trkpt><trkpt lat="47.44589165706305" lon="6.951029479889897"><ele>602.4000000000001</ele><time>2026-05-03T15:18:00Z</time></trkpt><trkpt lat="47.44580814657764" lon="6.951155084052649"><ele>602.5999999999999</ele><time>2026-05-03T15:18:02Z</time></trkpt><trkpt lat="47.445748174581745" lon="6.951212472734403"><ele>602.8</ele><time>2026-05-03T15:18:03Z</time></trkpt><trkpt lat="47.445691096246314" lon="6.95127539146325"><ele>603.0</ele><time>2026-05-03T15:18:04Z</time></trkpt><trkpt lat="47.445596104476486" lon="6.951367227235453"><ele>603.0</ele><time>2026-05-03T15:18:06Z</time></trkpt><trkpt lat="47.445505271789564" lon="6.951458359853217"><ele>603.0</ele><time>2026-05-03T15:18:08Z</time></trkpt><trkpt lat="47.4454080322871" lon="6.95154694820262"><ele>603.0</ele><time>2026-05-03T15:18:10Z</time></trkpt><trkpt lat="47.44532139718827" lon="6.951617813371371"><ele>603.0</ele><time>2026-05-03T15:18:12Z</time></trkpt><trkpt lat="47.44526111019926" lon="6.951654132962785"><ele>603.0</ele><time>2026-05-03T15:18:13Z</time></trkpt><trkpt lat="47.44514400040203" lon="6.951721791163496"><ele>601.8</ele><time>2026-05-03T15:18:15Z</time></trkpt><trkpt lat="47.44504751588143" lon="6.951775267156443"><ele>600.5999999999999</ele><time>2026-05-03T15:18:17Z</time></trkpt><trkpt lat="47.4449375541579" lon="6.951839686389517"><ele>599.4000000000001</ele><time>2026-05-03T15:18:19Z</time></trkpt><trkpt lat="47.4448408683707" lon="6.951888498117833"><ele>598.2</ele><time>2026-05-03T15:18:21Z</time></trkpt><trkpt lat="47.44473302450229" lon="6.951946377005389"><ele>597.0</ele><time>2026-05-03T15:18:23Z</time></trkpt><trkpt lat="47.44464086360167" lon="6.952025994270738"><ele>596.6666666666666</ele><time>2026-05-03T15:18:25Z</time></trkpt><trkpt lat="47.44457267116468" lon="6.952066031900283"><ele>596.3333333333334</ele><time>2026-05-03T15:18:26Z</time></trkpt><trkpt lat="47.444514321023675" lon="6.9521059356718204"><ele>596.0</ele><time>2026-05-03T15:18:27Z</time></trkpt><trkpt lat="47.444459947784395" lon="6.952165493317354"><ele>595.6666666666667</ele><time>2026-05-03T15:18:28Z</time></trkpt><trkpt lat="47.44438131431995" lon="6.95221833997618"><ele>595.3333333333334</ele><time>2026-05-03T15:18:29Z</time></trkpt><trkpt lat="47.44428023399599" lon="6.952295223570725"><ele>595.0</ele><time>2026-05-03T15:18:31Z</time></trkpt><trkpt lat="47.44422034623094" lon="6.9523461529465305"><ele>595.0</ele><time>2026-05-03T15:18:32Z</time></trkpt><trkpt lat="47.444159824442686" lon="6.952423628988664"><ele>595.0</ele><time>2026-05-03T15:18:33Z</time></trkpt><trkpt lat="47.44409818289681" lon="6.952473045232726"><ele>595.0</ele><time>2026-05-03T15:18:34Z</time></trkpt><trkpt lat="47.44398750187494" lon="6.9525416594376725"><ele>595.0</ele><time>2026-05-03T15:18:36Z</time></trkpt><trkpt lat="47.44387529471106" lon="6.952656884576204"><ele>595.0</ele><time>2026-05-03T15:18:38Z</time></trkpt><trkpt lat="47.44381416878058" lon="6.952699908957536"><ele>594.8</ele><time>2026-05-03T15:18:39Z</time></trkpt><trkpt lat="47.44370737039627" lon="6.952772875258091"><ele>594.6</ele><time>2026-05-03T15:18:41Z</time></trkpt><trkpt lat="47.4436373621964" lon="6.952834443692293"><ele>594.4</ele><time>2026-05-03T15:18:42Z</time></trkpt><trkpt lat="47.443560744100154" lon="6.95289971334788"><ele>594.2</ele><time>2026-05-03T15:18:43Z</time></trkpt><trkpt lat="47.443441517041705" lon="6.9529713744574195"><ele>594.0</ele><time>2026-05-03T15:18:44Z</time></trkpt><trkpt lat="47.44333844367357" lon="6.95306448878983"><ele>594.0</ele><time>2026-05-03T15:18:45Z</time></trkpt><trkpt lat="47.44325193862316" lon="6.953166741416369"><ele>594.0</ele><time>2026-05-03T15:18:46Z</time></trkpt><trkpt lat="47.44318104734115" lon="6.9532415864061266"><ele>594.0</ele><time>2026-05-03T15:18:47Z</time></trkpt><trkpt lat="47.44310967473684" lon="6.953337098008598"><ele>594.0</ele><time>2026-05-03T15:18:48Z</time></trkpt><trkpt lat="47.44306264925851" lon="6.95345312043365"><ele>594.0</ele><time>2026-05-03T15:18:49Z</time></trkpt><trkpt lat="47.44302524537231" lon="6.953545877305059"><ele>593.6666666666666</ele><time>2026-05-03T15:18:50Z</time></trkpt><trkpt lat="47.44298520841933" lon="6.953640821608303"><ele>593.3333333333334</ele><time>2026-05-03T15:18:51Z</time></trkpt><trkpt lat="47.44295178520069" lon="6.953729501671328"><ele>593.0</ele><time>2026-05-03T15:18:52Z</time></trkpt><trkpt lat="47.44288975144349" lon="6.953858299721153"><ele>592.6666666666667</ele><time>2026-05-03T15:18:54Z</time></trkpt><trkpt lat="47.44293132033324" lon="6.954012074779523"><ele>592.3333333333334</ele><time>2026-05-03T15:18:55Z</time></trkpt><trkpt lat="47.44294056803859" lon="6.954117731890409"><ele>592.0</ele><time>2026-05-03T15:18:56Z</time></trkpt><trkpt lat="47.442964791200936" lon="6.954225006756597"><ele>591.6666666666667</ele><time>2026-05-03T15:18:57Z</time></trkpt><trkpt lat="47.4429935921503" lon="6.954320702154368"><ele>591.3333333333334</ele><time>2026-05-03T15:18:58Z</time></trkpt><trkpt lat="47.44299316674409" lon="6.954416457815542"><ele>591.0</ele><time>2026-05-03T15:18:59Z</time></trkpt><trkpt lat="47.44302906328343" lon="6.954511914043126"><ele>590.6666666666666</ele><time>2026-05-03T15:19:01Z</time></trkpt><trkpt lat="47.44308863128847" lon="6.9545693619147"><ele>590.3333333333333</ele><time>2026-05-03T15:19:03Z</time></trkpt><trkpt lat="47.44318782860507" lon="6.954539789035456"><ele>590.0</ele><time>2026-05-03T15:19:04Z</time></trkpt><trkpt lat="47.44328469863533" lon="6.954542898216507"><ele>590.0</ele><time>2026-05-03T15:19:05Z</time></trkpt><trkpt lat="47.44339968267185" lon="6.954608965575174"><ele>590.0</ele><time>2026-05-03T15:19:06Z</time></trkpt><trkpt lat="47.44349916361277" lon="6.954631783776017"><ele>590.0</ele><time>2026-05-03T15:19:07Z</time></trkpt><trkpt lat="47.443577997693474" lon="6.954667716577206"><ele>590.0</ele><time>2026-05-03T15:19:08Z</time></trkpt><trkpt lat="47.443660798542204" lon="6.954700361445012"><ele>590.0</ele><time>2026-05-03T15:19:10Z</time></trkpt><trkpt lat="47.443947634514195" lon="6.955158218796852"><ele>590.0</ele><time>2026-05-03T15:19:16Z</time></trkpt><trkpt lat="47.44385737355856" lon="6.95508908410269"><ele>590.0</ele><time>2026-05-03T15:19:18Z</time></trkpt><trkpt lat="47.44374871961726" lon="6.955055134290428"><ele>590.0</ele><time>2026-05-03T15:19:20Z</time></trkpt><trkpt lat="47.4434827326824" lon="6.954755784975546"><ele>590.0</ele><time>2026-05-03T15:19:21Z</time></trkpt><trkpt lat="47.443418867392694" lon="6.95478937004647"><ele>590.0</ele><time>2026-05-03T15:20:01Z</time></trkpt><trkpt lat="47.443346152721645" lon="6.9548121144787425"><ele>590.0</ele><time>2026-05-03T15:20:08Z</time></trkpt><trkpt lat="47.44334337407372" lon="6.954905679936652"><ele>590.0</ele><time>2026-05-03T15:20:18Z</time></trkpt><trkpt lat="47.44331948465655" lon="6.95502172553376"><ele>590.0</ele><time>2026-05-03T15:20:24Z</time></trkpt><trkpt lat="47.44318395046735" lon="6.954669159815268"><ele>590.0</ele><time>2026-05-03T15:21:50.691Z</time></trkpt></trkseg><trkseg><trkpt lat="47.4435220137058" lon="6.954833862698358"><ele>590.0</ele><time>2026-05-03T15:40:09.254Z</time></trkpt><trkpt lat="47.44334681594905" lon="6.954802133426272"><ele>590.0</ele><time>2026-05-03T15:40:13.998Z</time></trkpt><trkpt lat="47.44341692549365" lon="6.954869874221303"><ele>590.0</ele><time>2026-05-03T15:40:19.999Z</time></trkpt><trkpt lat="47.44347769920255" lon="6.954946060926904"><ele>590.0</ele><time>2026-05-03T15:40:29.999Z</time></trkpt><trkpt lat="47.44353431585094" lon="6.954902303024575"><ele>590.0</ele><time>2026-05-03T15:40:51Z</time></trkpt><trkpt lat="47.44359865362706" lon="6.954825803648826"><ele>590.0</ele><time>2026-05-03T15:40:53Z</time></trkpt><trkpt lat="47.443651079592726" lon="6.954764624703108"><ele>590.0</ele><time>2026-05-03T15:40:55Z</time></trkpt><trkpt lat="47.44365427805675" lon="6.954665914419047"><ele>590.0</ele><time>2026-05-03T15:40:58Z</time></trkpt><trkpt lat="47.443593367935115" lon="6.95462977844563"><ele>590.0</ele><time>2026-05-03T15:40:59Z</time></trkpt><trkpt lat="47.443489441601166" lon="6.954578898654842"><ele>590.0</ele><time>2026-05-03T15:41:00Z</time></trkpt><trkpt lat="47.443355209676" lon="6.954548480893273"><ele>590.0</ele><time>2026-05-03T15:41:01Z</time></trkpt><trkpt lat="47.44323612379451" lon="6.954501019866067"><ele>590.0</ele><time>2026-05-03T15:41:02Z</time></trkpt><trkpt lat="47.443141849135614" lon="6.954480237749839"><ele>590.0</ele><time>2026-05-03T15:41:03Z</time></trkpt><trkpt lat="47.44307891659777" lon="6.954433308868072"><ele>590.0</ele><time>2026-05-03T15:41:04Z</time></trkpt><trkpt lat="47.44301738521564" lon="6.954281555616068"><ele>590.0</ele><time>2026-05-03T15:41:06Z</time></trkpt><trkpt lat="47.44300397564468" lon="6.954163294423985"><ele>590.0</ele><time>2026-05-03T15:41:08Z</time></trkpt><trkpt lat="47.44293742724715" lon="6.953926289303794"><ele>590.2</ele><time>2026-05-03T15:41:39Z</time></trkpt><trkpt lat="47.44292528562943" lon="6.953833077531965"><ele>590.4</ele><time>2026-05-03T15:41:40Z</time></trkpt><trkpt lat="47.44295067226585" lon="6.953687449429561"><ele>590.6</ele><time>2026-05-03T15:41:42Z</time></trkpt><trkpt lat="47.44298827383781" lon="6.953585223136001"><ele>590.8</ele><time>2026-05-03T15:41:43Z</time></trkpt><trkpt lat="47.443053713684414" lon="6.953481442435161"><ele>591.0</ele><time>2026-05-03T15:41:44Z</time></trkpt><trkpt lat="47.44312753988064" lon="6.953342250140096"><ele>591.75</ele><time>2026-05-03T15:41:45Z</time></trkpt><trkpt lat="47.443214530095254" lon="6.953195033453343"><ele>592.5</ele><time>2026-05-03T15:41:46Z</time></trkpt><trkpt lat="47.443299424187984" lon="6.9530816930217005"><ele>593.25</ele><time>2026-05-03T15:41:47Z</time></trkpt><trkpt lat="47.44343734196858" lon="6.952963278997231"><ele>594.0</ele><time>2026-05-03T15:41:48Z</time></trkpt><trkpt lat="47.443609116531796" lon="6.952833818030603"><ele>594.0</ele><time>2026-05-03T15:41:49Z</time></trkpt><trkpt lat="47.44378633834015" lon="6.952693015629251"><ele>594.0</ele><time>2026-05-03T15:41:50Z</time></trkpt><trkpt lat="47.44397031772232" lon="6.952547749159097"><ele>594.0</ele><time>2026-05-03T15:41:51Z</time></trkpt><trkpt lat="47.44415858718386" lon="6.9524005042731325"><ele>594.3333333333334</ele><time>2026-05-03T15:41:52Z</time></trkpt><trkpt lat="47.444335871387956" lon="6.9522225411734215"><ele>594.6666666666667</ele><time>2026-05-03T15:41:53Z</time></trkpt><trkpt lat="47.44452336327289" lon="6.9520676997410815"><ele>595.0</ele><time>2026-05-03T15:41:54Z</time></trkpt><trkpt lat="47.44468862580936" lon="6.951941846759956"><ele>595.6666666666667</ele><time>2026-05-03T15:41:55Z</time></trkpt><trkpt lat="47.44485670334802" lon="6.951833382501276"><ele>596.3333333333334</ele><time>2026-05-03T15:41:56Z</time></trkpt><trkpt lat="47.44503267593661" lon="6.9517375240818025"><ele>597.0</ele><time>2026-05-03T15:41:57Z</time></trkpt><trkpt lat="47.44519117593862" lon="6.9516768099180855"><ele>597.0</ele><time>2026-05-03T15:41:58Z</time></trkpt><trkpt lat="47.44534545024669" lon="6.951587501229361"><ele>597.0</ele><time>2026-05-03T15:41:59Z</time></trkpt><trkpt lat="47.44549542040688" lon="6.951478700406066"><ele>597.0</ele><time>2026-05-03T15:42:00Z</time></trkpt><trkpt lat="47.44562578049543" lon="6.951359361487901"><ele>598.25</ele><time>2026-05-03T15:42:01Z</time></trkpt><trkpt lat="47.44575590956914" lon="6.951248618117756"><ele>599.5</ele><time>2026-05-03T15:42:02Z</time></trkpt><trkpt lat="47.4458711637575" lon="6.951097980188695"><ele>600.75</ele><time>2026-05-03T15:42:03Z</time></trkpt><trkpt lat="47.44597334720525" lon="6.950959283609983"><ele>602.0</ele><time>2026-05-03T15:42:04Z</time></trkpt><trkpt lat="47.44606206621639" lon="6.950816192609386"><ele>602.0</ele><time>2026-05-03T15:42:05Z</time></trkpt><trkpt lat="47.446117179727366" lon="6.950659362611086"><ele>602.0</ele><time>2026-05-03T15:42:06Z</time></trkpt><trkpt lat="47.446149390001544" lon="6.950483635401251"><ele>602.0</ele><time>2026-05-03T15:42:07Z</time></trkpt><trkpt lat="47.44619360477498" lon="6.950333148914879"><ele>602.0</ele><time>2026-05-03T15:42:08Z</time></trkpt><trkpt lat="47.44627285224353" lon="6.950191456633647"><ele>602.0</ele><time>2026-05-03T15:42:09Z</time></trkpt><trkpt lat="47.446356816101726" lon="6.950053516242191"><ele>602.0</ele><time>2026-05-03T15:42:10Z</time></trkpt><trkpt lat="47.4464645530298" lon="6.9498907928117335"><ele>602.0</ele><time>2026-05-03T15:42:11Z</time></trkpt><trkpt lat="47.44657069865709" lon="6.949683627975194"><ele>602.0</ele><time>2026-05-03T15:42:12Z</time></trkpt><trkpt lat="47.446668327610986" lon="6.949521870236892"><ele>602.0</ele><time>2026-05-03T15:42:13Z</time></trkpt><trkpt lat="47.44673476828444" lon="6.949399148562698"><ele>602.0</ele><time>2026-05-03T15:42:14Z</time></trkpt><trkpt lat="47.44679257379895" lon="6.949297363008718"><ele>602.0</ele><time>2026-05-03T15:42:15Z</time></trkpt><trkpt lat="47.44685264263752" lon="6.94919798316962"><ele>602.0</ele><time>2026-05-03T15:42:16Z</time></trkpt><trkpt lat="47.446947156177934" lon="6.949145934875593"><ele>601.5</ele><time>2026-05-03T15:42:18Z</time></trkpt><trkpt lat="47.44699860960913" lon="6.949089708901983"><ele>601.0</ele><time>2026-05-03T15:42:20Z</time></trkpt><trkpt lat="47.446835723412946" lon="6.948882270870384"><ele>600.5</ele><time>2026-05-03T15:42:21Z</time></trkpt><trkpt lat="47.44673583453492" lon="6.948771165098216"><ele>600.0</ele><time>2026-05-03T15:42:22Z</time></trkpt><trkpt lat="47.44660594230533" lon="6.948614671320126"><ele>600.0</ele><time>2026-05-03T15:42:23Z</time></trkpt><trkpt lat="47.44647806224845" lon="6.948419312432212"><ele>600.0</ele><time>2026-05-03T15:42:24Z</time></trkpt><trkpt lat="47.446340007176865" lon="6.948158658389499"><ele>600.0</ele><time>2026-05-03T15:42:25Z</time></trkpt><trkpt lat="47.446234348486" lon="6.947865646841492"><ele>598.6666666666666</ele><time>2026-05-03T15:42:26Z</time></trkpt><trkpt lat="47.44614566747689" lon="6.947604410070461"><ele>597.3333333333333</ele><time>2026-05-03T15:42:27Z</time></trkpt><trkpt lat="47.44606673589454" lon="6.947280534567837"><ele>596.0</ele><time>2026-05-03T15:42:28Z</time></trkpt><trkpt lat="47.4460720456282" lon="6.946868428093405"><ele>593.5</ele><time>2026-05-03T15:42:29Z</time></trkpt><trkpt lat="47.44609381693774" lon="6.946535991929802"><ele>591.0</ele><time>2026-05-03T15:42:30Z</time></trkpt><trkpt lat="47.44608165916613" lon="6.9461479399173"><ele>591.0</ele><time>2026-05-03T15:42:31Z</time></trkpt><trkpt lat="47.44602020856406" lon="6.945761305482083"><ele>591.0</ele><time>2026-05-03T15:42:32Z</time></trkpt><trkpt lat="47.44591592944543" lon="6.9454374589836485"><ele>591.0</ele><time>2026-05-03T15:42:33Z</time></trkpt><trkpt lat="47.445810522858615" lon="6.945160343966578"><ele>591.0</ele><time>2026-05-03T15:42:34Z</time></trkpt><trkpt lat="47.44571362464713" lon="6.944876154767721"><ele>591.0</ele><time>2026-05-03T15:42:35Z</time></trkpt><trkpt lat="47.44560291433253" lon="6.944672896892817"><ele>591.6</ele><time>2026-05-03T15:42:36Z</time></trkpt><trkpt lat="47.44550615449024" lon="6.944498290322153"><ele>592.2</ele><time>2026-05-03T15:42:37Z</time></trkpt><trkpt lat="47.44541969109964" lon="6.944371446738505"><ele>592.8</ele><time>2026-05-03T15:42:38Z</time></trkpt><trkpt lat="47.44535256724055" lon="6.944282046072078"><ele>593.4</ele><time>2026-05-03T15:42:39Z</time></trkpt><trkpt lat="47.44528567811606" lon="6.944214283264625"><ele>594.0</ele><time>2026-05-03T15:42:40Z</time></trkpt><trkpt lat="47.44522088974794" lon="6.944154771341774"><ele>597.6666666666666</ele><time>2026-05-03T15:42:42Z</time></trkpt><trkpt lat="47.44536362669766" lon="6.944064014646257"><ele>601.3333333333333</ele><time>2026-05-03T15:42:46Z</time></trkpt><trkpt lat="47.445540260159625" lon="6.943989214475281"><ele>605.0</ele><time>2026-05-03T15:42:47Z</time></trkpt><trkpt lat="47.44568175522732" lon="6.943898493350779"><ele>605.0</ele><time>2026-05-03T15:42:48Z</time></trkpt><trkpt lat="47.44581007175073" lon="6.943798737416862"><ele>605.0</ele><time>2026-05-03T15:42:49Z</time></trkpt><trkpt lat="47.44593240048882" lon="6.943716059363553"><ele>605.0</ele><time>2026-05-03T15:42:50Z</time></trkpt><trkpt lat="47.44604864688929" lon="6.943648522310929"><ele>605.0</ele><time>2026-05-03T15:42:51Z</time></trkpt><trkpt lat="47.446173640767476" lon="6.94358232262313"><ele>603.25</ele><time>2026-05-03T15:42:52Z</time></trkpt><trkpt lat="47.44629745674465" lon="6.943535111778314"><ele>601.5</ele><time>2026-05-03T15:42:53Z</time></trkpt><trkpt lat="47.446428021838585" lon="6.943521195827311"><ele>599.75</ele><time>2026-05-03T15:42:54Z</time></trkpt><trkpt lat="47.44661734383063" lon="6.943498216321561"><ele>598.0</ele><time>2026-05-03T15:42:55Z</time></trkpt><trkpt lat="47.44679343341144" lon="6.943495126002492"><ele>594.5</ele><time>2026-05-03T15:42:56Z</time></trkpt><trkpt lat="47.44719223881426" lon="6.943482080403523"><ele>591.0</ele><time>2026-05-03T15:42:58Z</time></trkpt><trkpt lat="47.44737503607927" lon="6.943478043324273"><ele>591.0</ele><time>2026-05-03T15:42:59Z</time></trkpt><trkpt lat="47.44756512950102" lon="6.943475635056896"><ele>591.0</ele><time>2026-05-03T15:43:00Z</time></trkpt><trkpt lat="47.44773768454844" lon="6.94347264225344"><ele>591.0</ele><time>2026-05-03T15:43:01Z</time></trkpt><trkpt lat="47.44787493074619" lon="6.943476631418922"><ele>590.3333333333334</ele><time>2026-05-03T15:43:02Z</time></trkpt><trkpt lat="47.44798986458795" lon="6.943475412816026"><ele>589.6666666666666</ele><time>2026-05-03T15:43:03Z</time></trkpt><trkpt lat="47.44808299281114" lon="6.943477914839778"><ele>589.0</ele><time>2026-05-03T15:43:04Z</time></trkpt><trkpt lat="47.44815296730816" lon="6.943455775457993"><ele>588.3333333333333</ele><time>2026-05-03T15:43:05Z</time></trkpt><trkpt lat="47.44821910468167" lon="6.943396373127952"><ele>587.6666666666666</ele><time>2026-05-03T15:43:06Z</time></trkpt><trkpt lat="47.44826723772533" lon="6.943302537821762"><ele>587.0</ele><time>2026-05-03T15:43:07Z</time></trkpt><trkpt lat="47.44823392000626" lon="6.943202609937393"><ele>587.0</ele><time>2026-05-03T15:43:08Z</time></trkpt><trkpt lat="47.44824919856477" lon="6.943056173769155"><ele>587.0</ele><time>2026-05-03T15:43:09Z</time></trkpt><trkpt lat="47.448258173934946" lon="6.942858961154826"><ele>587.0</ele><time>2026-05-03T15:43:10Z</time></trkpt><trkpt lat="47.44828625756929" lon="6.942649913639034"><ele>587.0</ele><time>2026-05-03T15:43:11Z</time></trkpt><trkpt lat="47.448317259798884" lon="6.942432384661517"><ele>587.0</ele><time>2026-05-03T15:43:12Z</time></trkpt><trkpt lat="47.44836524840966" lon="6.942214123277478"><ele>587.0</ele><time>2026-05-03T15:43:13Z</time></trkpt><trkpt lat="47.44839103995907" lon="6.941965045685042"><ele>587.0</ele><time>2026-05-03T15:43:14Z</time></trkpt><trkpt lat="47.44844013212414" lon="6.941728425057489"><ele>587.0</ele><time>2026-05-03T15:43:15Z</time></trkpt><trkpt lat="47.44847752656497" lon="6.941508588762026"><ele>587.0</ele><time>2026-05-03T15:43:16Z</time></trkpt><trkpt lat="47.44851561198899" lon="6.9412847224399"><ele>587.0</ele><time>2026-05-03T15:43:17Z</time></trkpt><trkpt lat="47.44854310413403" lon="6.941098432621327"><ele>587.0</ele><time>2026-05-03T15:43:18Z</time></trkpt><trkpt lat="47.448551375721195" lon="6.940893958367717"><ele>587.75</ele><time>2026-05-03T15:43:19Z</time></trkpt><trkpt lat="47.44854430648675" lon="6.940654407410647"><ele>588.5</ele><time>2026-05-03T15:43:20Z</time></trkpt><trkpt lat="47.448548251236446" lon="6.940416257317759"><ele>589.25</ele><time>2026-05-03T15:43:21Z</time></trkpt><trkpt lat="47.44855916647054" lon="6.9402362741924835"><ele>590.0</ele><time>2026-05-03T15:43:22Z</time></trkpt><trkpt lat="47.448566188203465" lon="6.94005667947257"><ele>589.4</ele><time>2026-05-03T15:43:23Z</time></trkpt><trkpt lat="47.44856838634795" lon="6.939900087040915"><ele>588.8</ele><time>2026-05-03T15:43:24Z</time></trkpt><trkpt lat="47.448570311780685" lon="6.939762568320167"><ele>588.2</ele><time>2026-05-03T15:43:25Z</time></trkpt><trkpt lat="47.448572655717705" lon="6.939652362191956"><ele>587.6</ele><time>2026-05-03T15:43:26Z</time></trkpt><trkpt lat="47.448595082806776" lon="6.939512921180968"><ele>587.0</ele><time>2026-05-03T15:43:28Z</time></trkpt><trkpt lat="47.44874401863056" lon="6.939488178023569"><ele>585.3333333333333</ele><time>2026-05-03T15:43:32Z</time></trkpt><trkpt lat="47.44887703416794" lon="6.939507563189172"><ele>583.6666666666666</ele><time>2026-05-03T15:43:33Z</time></trkpt><trkpt lat="47.44903996347674" lon="6.939513359354882"><ele>582.0</ele><time>2026-05-03T15:43:34Z</time></trkpt><trkpt lat="47.44920600779292" lon="6.939566442019655"><ele>582.0</ele><time>2026-05-03T15:43:35Z</time></trkpt><trkpt lat="47.44936235369791" lon="6.939591014178917"><ele>582.0</ele><time>2026-05-03T15:43:36Z</time></trkpt><trkpt lat="47.449525221730234" lon="6.939592937905039"><ele>582.0</ele><time>2026-05-03T15:43:37Z</time></trkpt><trkpt lat="47.44968665195318" lon="6.939607553116066"><ele>581.3333333333334</ele><time>2026-05-03T15:43:38Z</time></trkpt><trkpt lat="47.44986412505398" lon="6.939624357379255"><ele>580.6666666666667</ele><time>2026-05-03T15:43:39Z</time></trkpt><trkpt lat="47.45005338282544" lon="6.939650561507317"><ele>580.0</ele><time>2026-05-03T15:43:40Z</time></trkpt><trkpt lat="47.4502523618518" lon="6.939675889239026"><ele>580.0</ele><time>2026-05-03T15:43:41Z</time></trkpt><trkpt lat="47.450450850381166" lon="6.939708131456862"><ele>580.0</ele><time>2026-05-03T15:43:42Z</time></trkpt><trkpt lat="47.450699812290864" lon="6.939754936960484"><ele>579.0</ele><time>2026-05-03T15:43:43Z</time></trkpt><trkpt lat="47.450911299797646" lon="6.9397825182174575"><ele>578.0</ele><time>2026-05-03T15:43:44Z</time></trkpt><trkpt lat="47.45109879298364" lon="6.939815315050912"><ele>577.0</ele><time>2026-05-03T15:43:45Z</time></trkpt><trkpt lat="47.4512810975533" lon="6.939906764279655"><ele>576.6666666666667</ele><time>2026-05-03T15:43:46Z</time></trkpt><trkpt lat="47.45147294980053" lon="6.939958344936791"><ele>576.3333333333334</ele><time>2026-05-03T15:43:47Z</time></trkpt><trkpt lat="47.45165636595033" lon="6.9400298848644"><ele>576.0</ele><time>2026-05-03T15:43:48Z</time></trkpt><trkpt lat="47.451827349386356" lon="6.940087782879672"><ele>575.75</ele><time>2026-05-03T15:43:49Z</time></trkpt><trkpt lat="47.45198166834595" lon="6.940139908926714"><ele>575.5</ele><time>2026-05-03T15:43:50Z</time></trkpt><trkpt lat="47.452111019563375" lon="6.940185543195022"><ele>575.25</ele><time>2026-05-03T15:43:51Z</time></trkpt><trkpt lat="47.45223133776253" lon="6.940279187010617"><ele>575.0</ele><time>2026-05-03T15:43:52Z</time></trkpt><trkpt lat="47.45232939577676" lon="6.940393434689907"><ele>575.0</ele><time>2026-05-03T15:43:53Z</time></trkpt><trkpt lat="47.45241916999822" lon="6.940535298991537"><ele>575.0</ele><time>2026-05-03T15:43:54Z</time></trkpt><trkpt lat="47.452516937156226" lon="6.94068823444594"><ele>575.0</ele><time>2026-05-03T15:43:55Z</time></trkpt><trkpt lat="47.45262796196243" lon="6.940858331090504"><ele>575.0</ele><time>2026-05-03T15:43:56Z</time></trkpt><trkpt lat="47.452759965555494" lon="6.941056478599205"><ele>575.0</ele><time>2026-05-03T15:43:57Z</time></trkpt><trkpt lat="47.452891704146865" lon="6.941263660637142"><ele>575.0</ele><time>2026-05-03T15:43:58Z</time></trkpt><trkpt lat="47.453011395870945" lon="6.941420692446895"><ele>575.0</ele><time>2026-05-03T15:43:59Z</time></trkpt><trkpt lat="47.453101391969746" lon="6.941567005806401"><ele>575.0</ele><time>2026-05-03T15:44:00Z</time></trkpt><trkpt lat="47.45319012420689" lon="6.941698041048479"><ele>575.0</ele><time>2026-05-03T15:44:01Z</time></trkpt><trkpt lat="47.453278014415865" lon="6.941796616731521"><ele>575.0</ele><time>2026-05-03T15:44:02Z</time></trkpt><trkpt lat="47.45335167172406" lon="6.941869010001593"><ele>575.0</ele><time>2026-05-03T15:44:03Z</time></trkpt><trkpt lat="47.45342125441647" lon="6.941929074301664"><ele>575.0</ele><time>2026-05-03T15:44:04Z</time></trkpt><trkpt lat="47.45347237041313" lon="6.94198535697768"><ele>575.0</ele><time>2026-05-03T15:44:05Z</time></trkpt><trkpt lat="47.45353317140055" lon="6.942106675076466"><ele>575.0</ele><time>2026-05-03T15:44:07Z</time></trkpt><trkpt lat="47.4536406060031" lon="6.942140529625999"><ele>575.0</ele><time>2026-05-03T15:44:09Z</time></trkpt><trkpt lat="47.453711411098276" lon="6.942105080008244"><ele>575.0</ele><time>2026-05-03T15:44:11Z</time></trkpt><trkpt lat="47.45377202848672" lon="6.942029917221535"><ele>575.0</ele><time>2026-05-03T15:44:13Z</time></trkpt><trkpt lat="47.45373578015525" lon="6.941560117255116"><ele>574.8</ele><time>2026-05-03T15:44:14Z</time></trkpt><trkpt lat="47.45376497836341" lon="6.941415595549786"><ele>574.6</ele><time>2026-05-03T15:44:15Z</time></trkpt><trkpt lat="47.45379579957198" lon="6.941260065954529"><ele>574.4</ele><time>2026-05-03T15:44:16Z</time></trkpt><trkpt lat="47.45382672673754" lon="6.941093424030772"><ele>574.2</ele><time>2026-05-03T15:44:17Z</time></trkpt><trkpt lat="47.45384321473054" lon="6.94092522137098"><ele>574.0</ele><time>2026-05-03T15:44:18Z</time></trkpt><trkpt lat="47.45386332805687" lon="6.9407637953888495"><ele>575.6666666666667</ele><time>2026-05-03T15:44:19Z</time></trkpt><trkpt lat="47.453854871869744" lon="6.940613316408771"><ele>577.3333333333334</ele><time>2026-05-03T15:44:20Z</time></trkpt><trkpt lat="47.45391072918714" lon="6.940688511160556"><ele>579.0</ele><time>2026-05-03T15:44:25Z</time></trkpt><trkpt lat="47.45383910791456" lon="6.940659627514845"><ele>580.6666666666666</ele><time>2026-05-03T15:44:42Z</time></trkpt><trkpt lat="47.45389739219255" lon="6.940701067918853"><ele>582.3333333333333</ele><time>2026-05-03T15:44:50Z</time></trkpt><trkpt lat="47.4539234842646" lon="6.940586005541301"><ele>584.0</ele><time>2026-05-03T15:46:22Z</time></trkpt><trkpt lat="47.454006657652364" lon="6.940543547000204"><ele>584.0</ele><time>2026-05-03T15:46:26Z</time></trkpt><trkpt lat="47.454109279582156" lon="6.940572732304561"><ele>584.0</ele><time>2026-05-03T15:46:28Z</time></trkpt><trkpt lat="47.45422610891696" lon="6.9405733956324"><ele>584.0</ele><time>2026-05-03T15:46:30Z</time></trkpt><trkpt lat="47.45431204341314" lon="6.94059279315144"><ele>584.0</ele><time>2026-05-03T15:46:31Z</time></trkpt><trkpt lat="47.45441232949699" lon="6.940607409460235"><ele>584.0</ele><time>2026-05-03T15:46:33Z</time></trkpt><trkpt lat="47.4545012246241" lon="6.940619216209892"><ele>584.0</ele><time>2026-05-03T15:46:36Z</time></trkpt><trkpt lat="47.454551294967764" lon="6.940471097224306"><ele>584.0</ele><time>2026-05-03T15:46:38Z</time></trkpt><trkpt lat="47.454567379502215" lon="6.940364677050284"><ele>584.0</ele><time>2026-05-03T15:46:39Z</time></trkpt><trkpt lat="47.454587989657114" lon="6.940264116679427"><ele>584.0</ele><time>2026-05-03T15:46:40Z</time></trkpt><trkpt lat="47.454622136206936" lon="6.940156574845921"><ele>584.0</ele><time>2026-05-03T15:46:41Z</time></trkpt><trkpt lat="47.4546688362894" lon="6.940016683842549"><ele>584.0</ele><time>2026-05-03T15:46:43Z</time></trkpt><trkpt lat="47.454725911365905" lon="6.939912743139271"><ele>585.4</ele><time>2026-05-03T15:46:45Z</time></trkpt><trkpt lat="47.45475518377094" lon="6.939825370286577"><ele>586.8</ele><time>2026-05-03T15:46:46Z</time></trkpt><trkpt lat="47.454818307702936" lon="6.939668000900891"><ele>588.2</ele><time>2026-05-03T15:46:48Z</time></trkpt><trkpt lat="47.454871907546405" lon="6.939561070598433"><ele>589.6</ele><time>2026-05-03T15:46:50Z</time></trkpt><trkpt lat="47.45490999429285" lon="6.939407800939637"><ele>591.0</ele><time>2026-05-03T15:46:52Z</time></trkpt><trkpt lat="47.454937315394126" lon="6.9392831361826515"><ele>590.8333333333334</ele><time>2026-05-03T15:46:54Z</time></trkpt><trkpt lat="47.4549478653029" lon="6.939164720154817"><ele>590.6666666666666</ele><time>2026-05-03T15:46:55Z</time></trkpt><trkpt lat="47.455005228126524" lon="6.939006352378405"><ele>590.5</ele><time>2026-05-03T15:46:57Z</time></trkpt><trkpt lat="47.45502504990315" lon="6.938896038348926"><ele>590.3333333333333</ele><time>2026-05-03T15:46:58Z</time></trkpt><trkpt lat="47.45507727163599" lon="6.938819584242938"><ele>590.1666666666666</ele><time>2026-05-03T15:46:59Z</time></trkpt><trkpt lat="47.45513068829028" lon="6.938739194642019"><ele>590.0</ele><time>2026-05-03T15:47:00Z</time></trkpt><trkpt lat="47.455191050763446" lon="6.938587023043583"><ele>590.0</ele><time>2026-05-03T15:47:02Z</time></trkpt><trkpt lat="47.45524532906041" lon="6.938491993191036"><ele>590.0</ele><time>2026-05-03T15:47:04Z</time></trkpt><trkpt lat="47.45530820487795" lon="6.938409052893433"><ele>590.0</ele><time>2026-05-03T15:47:05Z</time></trkpt><trkpt lat="47.4553955442012" lon="6.938382736235883"><ele>590.0</ele><time>2026-05-03T15:47:06Z</time></trkpt><trkpt lat="47.45546028836751" lon="6.938327716516157"><ele>590.0</ele><time>2026-05-03T15:47:07Z</time></trkpt><trkpt lat="47.45552285809614" lon="6.938313102150908"><ele>590.0</ele><time>2026-05-03T15:47:08Z</time></trkpt><trkpt lat="47.45565450523327" lon="6.938417371564756"><ele>590.0</ele><time>2026-05-03T15:47:10Z</time></trkpt><trkpt lat="47.45574846491828" lon="6.938442367750803"><ele>590.0</ele><time>2026-05-03T15:47:13Z</time></trkpt><trkpt lat="47.45582369084818" lon="6.93840077028258"><ele>590.0</ele><time>2026-05-03T15:47:15Z</time></trkpt><trkpt lat="47.45589613465525" lon="6.938368219191434"><ele>590.0</ele><time>2026-05-03T15:47:17Z</time></trkpt><trkpt lat="47.455967452181206" lon="6.938352145105708"><ele>590.0</ele><time>2026-05-03T15:47:19Z</time></trkpt><trkpt lat="47.4560442204678" lon="6.938310920547236"><ele>590.0</ele><time>2026-05-03T15:47:20Z</time></trkpt><trkpt lat="47.45614065977996" lon="6.9382962672576705"><ele>590.0</ele><time>2026-05-03T15:47:22Z</time></trkpt><trkpt lat="47.456213392126614" lon="6.938280583053323"><ele>590.0</ele><time>2026-05-03T15:47:24Z</time></trkpt><trkpt lat="47.45630151899015" lon="6.938160537137572"><ele>590.0</ele><time>2026-05-03T15:47:26Z</time></trkpt><trkpt lat="47.45630837842856" lon="6.938066492340053"><ele>590.0</ele><time>2026-05-03T15:47:27Z</time></trkpt><trkpt lat="47.45637063911222" lon="6.937923609535229"><ele>590.0</ele><time>2026-05-03T15:47:29Z</time></trkpt><trkpt lat="47.45644237994158" lon="6.937850754378648"><ele>588.4</ele><time>2026-05-03T15:47:32Z</time></trkpt><trkpt lat="47.45654267117062" lon="6.937814898084475"><ele>586.8</ele><time>2026-05-03T15:47:34Z</time></trkpt><trkpt lat="47.45664011217076" lon="6.937736690953469"><ele>585.2</ele><time>2026-05-03T15:47:36Z</time></trkpt><trkpt lat="47.45671111752105" lon="6.937691317056433"><ele>583.6</ele><time>2026-05-03T15:47:37Z</time></trkpt><trkpt lat="47.45680971528034" lon="6.937610088202199"><ele>582.0</ele><time>2026-05-03T15:47:39Z</time></trkpt><trkpt lat="47.45689714838435" lon="6.937487459979996"><ele>582.0</ele><time>2026-05-03T15:47:40Z</time></trkpt><trkpt lat="47.45695304567853" lon="6.937441500151356"><ele>582.0</ele><time>2026-05-03T15:47:41Z</time></trkpt><trkpt lat="47.45705741403702" lon="6.937442723901829"><ele>582.0</ele><time>2026-05-03T15:47:44Z</time></trkpt><trkpt lat="47.4571009758778" lon="6.937514925212814"><ele>582.0</ele><time>2026-05-03T15:47:45Z</time></trkpt><trkpt lat="47.45710948479892" lon="6.937613464378318"><ele>582.0</ele><time>2026-05-03T15:47:46Z</time></trkpt><trkpt lat="47.45710370795152" lon="6.937787604090884"><ele>582.0</ele><time>2026-05-03T15:47:48Z</time></trkpt><trkpt lat="47.45714835116689" lon="6.937884983758988"><ele>581.6</ele><time>2026-05-03T15:47:49Z</time></trkpt><trkpt lat="47.45718210618673" lon="6.9380208578851805"><ele>581.2</ele><time>2026-05-03T15:47:50Z</time></trkpt><trkpt lat="47.457249919203576" lon="6.938162246881274"><ele>580.8</ele><time>2026-05-03T15:47:51Z</time></trkpt><trkpt lat="47.457283922371424" lon="6.938283412851085"><ele>580.4</ele><time>2026-05-03T15:47:52Z</time></trkpt><trkpt lat="47.45732509187158" lon="6.938379359370475"><ele>580.0</ele><time>2026-05-03T15:47:53Z</time></trkpt><trkpt lat="47.45735950014926" lon="6.93850501202801"><ele>579.8</ele><time>2026-05-03T15:47:54Z</time></trkpt><trkpt lat="47.45741080958806" lon="6.938653823061209"><ele>579.6</ele><time>2026-05-03T15:47:56Z</time></trkpt><trkpt lat="47.45743077278618" lon="6.9388063791722026"><ele>579.4</ele><time>2026-05-03T15:47:58Z</time></trkpt><trkpt lat="47.457484913580195" lon="6.938906902172002"><ele>579.2</ele><time>2026-05-03T15:48:00Z</time></trkpt><trkpt lat="47.45754895035735" lon="6.939001943876045"><ele>579.0</ele><time>2026-05-03T15:48:02Z</time></trkpt><trkpt lat="47.457610006539326" lon="6.939059794989388"><ele>579.0</ele><time>2026-05-03T15:48:03Z</time></trkpt><trkpt lat="47.45770730814157" lon="6.939168764270576"><ele>579.0</ele><time>2026-05-03T15:48:05Z</time></trkpt><trkpt lat="47.457764560587776" lon="6.939229315756336"><ele>579.0</ele><time>2026-05-03T15:48:06Z</time></trkpt><trkpt lat="47.45782123609714" lon="6.939277428283984"><ele>579.0</ele><time>2026-05-03T15:48:07Z</time></trkpt><trkpt lat="47.45784650813884" lon="6.939380150178397"><ele>579.0</ele><time>2026-05-03T15:48:08Z</time></trkpt><trkpt lat="47.457930688118324" lon="6.939455745523153"><ele>579.0</ele><time>2026-05-03T15:48:10Z</time></trkpt><trkpt lat="47.45801547297488" lon="6.939446970085151"><ele>578.6666666666666</ele><time>2026-05-03T15:48:12Z</time></trkpt><trkpt lat="47.45814215718274" lon="6.939522174629728"><ele>578.3333333333334</ele><time>2026-05-03T15:48:14Z</time></trkpt><trkpt lat="47.45821676835533" lon="6.939562879516241"><ele>578.0</ele><time>2026-05-03T15:48:15Z</time></trkpt><trkpt lat="47.45828832296935" lon="6.939618913711867"><ele>577.6666666666667</ele><time>2026-05-03T15:48:16Z</time></trkpt><trkpt lat="47.45835692511758" lon="6.939650221575253"><ele>577.3333333333334</ele><time>2026-05-03T15:48:17Z</time></trkpt><trkpt lat="47.45841811111709" lon="6.939712938056758"><ele>577.0</ele><time>2026-05-03T15:48:18Z</time></trkpt><trkpt lat="47.458479851272884" lon="6.939741179219806"><ele>577.0</ele><time>2026-05-03T15:48:19Z</time></trkpt><trkpt lat="47.4586071542976" lon="6.939846988887601"><ele>577.0</ele><time>2026-05-03T15:48:21Z</time></trkpt><trkpt lat="47.45868113574814" lon="6.939928392360274"><ele>577.0</ele><time>2026-05-03T15:48:22Z</time></trkpt><trkpt lat="47.45875159519168" lon="6.939995414390791"><ele>577.0</ele><time>2026-05-03T15:48:23Z</time></trkpt><trkpt lat="47.458810648116156" lon="6.940047287492705"><ele>577.0</ele><time>2026-05-03T15:48:24Z</time></trkpt><trkpt lat="47.4589083826" lon="6.940072952034636"><ele>575.8000000000001</ele><time>2026-05-03T15:48:26Z</time></trkpt><trkpt lat="47.458978712258556" lon="6.940067613039026"><ele>574.6</ele><time>2026-05-03T15:48:29Z</time></trkpt><trkpt lat="47.45903892046246" lon="6.940010541347316"><ele>573.4000000000001</ele><time>2026-05-03T15:48:31Z</time></trkpt><trkpt lat="47.45911889435782" lon="6.939945859745143"><ele>572.2</ele><time>2026-05-03T15:48:32Z</time></trkpt><trkpt lat="47.459208220825246" lon="6.939849462431529"><ele>571.0</ele><time>2026-05-03T15:48:33Z</time></trkpt><trkpt lat="47.45929625747106" lon="6.939704881475992"><ele>571.0</ele><time>2026-05-03T15:48:34Z</time></trkpt><trkpt lat="47.4594002205425" lon="6.939549062913292"><ele>571.0</ele><time>2026-05-03T15:48:35Z</time></trkpt><trkpt lat="47.45947808142358" lon="6.939421941755768"><ele>571.0</ele><time>2026-05-03T15:48:36Z</time></trkpt><trkpt lat="47.45955242421302" lon="6.939336305960749"><ele>571.0</ele><time>2026-05-03T15:48:37Z</time></trkpt><trkpt lat="47.45963244080799" lon="6.939270419486495"><ele>571.25</ele><time>2026-05-03T15:48:38Z</time></trkpt><trkpt lat="47.45971945933659" lon="6.939210504472266"><ele>571.5</ele><time>2026-05-03T15:48:39Z</time></trkpt><trkpt lat="47.45981806323599" lon="6.939164388264135"><ele>571.75</ele><time>2026-05-03T15:48:40Z</time></trkpt><trkpt lat="47.459950480398696" lon="6.939142113851323"><ele>572.0</ele><time>2026-05-03T15:48:41Z</time></trkpt><trkpt lat="47.46009348847963" lon="6.9391437960764994"><ele>572.0</ele><time>2026-05-03T15:48:42Z</time></trkpt><trkpt lat="47.460247853190374" lon="6.93915887266894"><ele>572.0</ele><time>2026-05-03T15:48:43Z</time></trkpt><trkpt lat="47.460377828523995" lon="6.939169261552208"><ele>572.0</ele><time>2026-05-03T15:48:44Z</time></trkpt><trkpt lat="47.46049977421197" lon="6.939225715631135"><ele>572.0</ele><time>2026-05-03T15:48:45Z</time></trkpt><trkpt lat="47.46061369038217" lon="6.939261405622994"><ele>571.2</ele><time>2026-05-03T15:48:46Z</time></trkpt><trkpt lat="47.460713436729776" lon="6.939312499275006"><ele>570.4000000000001</ele><time>2026-05-03T15:48:47Z</time></trkpt><trkpt lat="47.46081073857251" lon="6.939380091230524"><ele>569.5999999999999</ele><time>2026-05-03T15:48:48Z</time></trkpt><trkpt lat="47.46090302030879" lon="6.939479260582455"><ele>568.8</ele><time>2026-05-03T15:48:49Z</time></trkpt><trkpt lat="47.4609952090272" lon="6.939560931869933"><ele>568.0</ele><time>2026-05-03T15:48:50Z</time></trkpt><trkpt lat="47.46107990682675" lon="6.939633706767778"><ele>568.0</ele><time>2026-05-03T15:48:51Z</time></trkpt><trkpt lat="47.46116513199483" lon="6.939700767276541"><ele>568.0</ele><time>2026-05-03T15:48:52Z</time></trkpt><trkpt lat="47.46124397245364" lon="6.939739048371794"><ele>568.0</ele><time>2026-05-03T15:48:53Z</time></trkpt><trkpt lat="47.46133821717458" lon="6.939747230978197"><ele>568.0</ele><time>2026-05-03T15:48:54Z</time></trkpt><trkpt lat="47.46146358808316" lon="6.939763605395294"><ele>568.0</ele><time>2026-05-03T15:48:55Z</time></trkpt><trkpt lat="47.46160633308844" lon="6.93976547016057"><ele>568.3333333333334</ele><time>2026-05-03T15:48:56Z</time></trkpt><trkpt lat="47.461787732826956" lon="6.939732258777385"><ele>568.6666666666666</ele><time>2026-05-03T15:48:57Z</time></trkpt><trkpt lat="47.46195533095803" lon="6.939731095727951"><ele>569.0</ele><time>2026-05-03T15:48:58Z</time></trkpt><trkpt lat="47.4621049557186" lon="6.9397316123922215"><ele>568.5</ele><time>2026-05-03T15:48:59Z</time></trkpt><trkpt lat="47.46224713610786" lon="6.939734095754596"><ele>568.0</ele><time>2026-05-03T15:49:00Z</time></trkpt><trkpt lat="47.46238417039004" lon="6.939732588522886"><ele>567.5</ele><time>2026-05-03T15:49:01Z</time></trkpt><trkpt lat="47.46251123949601" lon="6.939733623750059"><ele>567.0</ele><time>2026-05-03T15:49:02Z</time></trkpt><trkpt lat="47.46262292926838" lon="6.939752703692045"><ele>567.0</ele><time>2026-05-03T15:49:03Z</time></trkpt><trkpt lat="47.462744163058446" lon="6.939745583014513"><ele>567.0</ele><time>2026-05-03T15:49:04Z</time></trkpt><trkpt lat="47.46286838124225" lon="6.9397044427794015"><ele>567.0</ele><time>2026-05-03T15:49:05Z</time></trkpt><trkpt lat="47.46298892249333" lon="6.9396847654497105"><ele>567.0</ele><time>2026-05-03T15:49:06Z</time></trkpt><trkpt lat="47.46310840925698" lon="6.939652061762494"><ele>566.0</ele><time>2026-05-03T15:49:07Z</time></trkpt><trkpt lat="47.463226429301095" lon="6.939621856504992"><ele>565.0</ele><time>2026-05-03T15:49:08Z</time></trkpt><trkpt lat="47.463331548575916" lon="6.939589961041706"><ele>564.0</ele><time>2026-05-03T15:49:09Z</time></trkpt><trkpt lat="47.463444093303515" lon="6.939547434148561"><ele>563.0</ele><time>2026-05-03T15:49:10Z</time></trkpt><trkpt lat="47.46356950116283" lon="6.9394809307702925"><ele>563.0</ele><time>2026-05-03T15:49:11Z</time></trkpt><trkpt lat="47.4636845262551" lon="6.939468247911023"><ele>563.0</ele><time>2026-05-03T15:49:12Z</time></trkpt><trkpt lat="47.463782698752695" lon="6.939478795066592"><ele>563.0</ele><time>2026-05-03T15:49:13Z</time></trkpt><trkpt lat="47.463870928508165" lon="6.939457991697189"><ele>563.0</ele><time>2026-05-03T15:49:14Z</time></trkpt><trkpt lat="47.46394237952444" lon="6.939459194687535"><ele>563.0</ele><time>2026-05-03T15:49:15Z</time></trkpt><trkpt lat="47.464053032241594" lon="6.939503982136425"><ele>564.4</ele><time>2026-05-03T15:49:17Z</time></trkpt><trkpt lat="47.46413041506872" lon="6.9395565384859275"><ele>565.8</ele><time>2026-05-03T15:49:19Z</time></trkpt><trkpt lat="47.46418605654712" lon="6.939601513658381"><ele>567.2</ele><time>2026-05-03T15:49:21Z</time></trkpt><trkpt lat="47.46421354980731" lon="6.9396994805585"><ele>568.6</ele><time>2026-05-03T15:49:23Z</time></trkpt><trkpt lat="47.46423961950707" lon="6.939885508959527"><ele>570.0</ele><time>2026-05-03T15:49:25Z</time></trkpt><trkpt lat="47.464253426477676" lon="6.94004427658107"><ele>570.8</ele><time>2026-05-03T15:49:27Z</time></trkpt><trkpt lat="47.464274438745306" lon="6.9402027510226665"><ele>571.6</ele><time>2026-05-03T15:49:29Z</time></trkpt><trkpt lat="47.464283759321816" lon="6.940305200753502"><ele>572.4</ele><time>2026-05-03T15:49:30Z</time></trkpt><trkpt lat="47.46429857626566" lon="6.940469394761288"><ele>573.2</ele><time>2026-05-03T15:49:32Z</time></trkpt><trkpt lat="47.46432146983479" lon="6.940630837801355"><ele>574.0</ele><time>2026-05-03T15:49:34Z</time></trkpt><trkpt lat="47.464321432056884" lon="6.940725849694769"><ele>574.0</ele><time>2026-05-03T15:49:35Z</time></trkpt><trkpt lat="47.464379588915044" lon="6.940847432631808"><ele>574.0</ele><time>2026-05-03T15:49:37Z</time></trkpt><trkpt lat="47.464443859576804" lon="6.940980389253187"><ele>574.0</ele><time>2026-05-03T15:49:39Z</time></trkpt><trkpt lat="47.46449906399844" lon="6.941111448871233"><ele>574.0</ele><time>2026-05-03T15:49:41Z</time></trkpt><trkpt lat="47.46457820112463" lon="6.941212759031402"><ele>574.0</ele><time>2026-05-03T15:49:43Z</time></trkpt><trkpt lat="47.46462870889941" lon="6.9412858184563735"><ele>575.6</ele><time>2026-05-03T15:49:45Z</time></trkpt><trkpt lat="47.46465553458972" lon="6.941376252569006"><ele>577.2</ele><time>2026-05-03T15:49:47Z</time></trkpt><trkpt lat="47.464751680924095" lon="6.941396408618361"><ele>578.8000000000001</ele><time>2026-05-03T15:49:50Z</time></trkpt><trkpt lat="47.464871732825074" lon="6.9413643820480075"><ele>580.4</ele><time>2026-05-03T15:49:52Z</time></trkpt><trkpt lat="47.46495801474252" lon="6.941320896495118"><ele>582.0</ele><time>2026-05-03T15:49:53Z</time></trkpt><trkpt lat="47.46503196882556" lon="6.941310342446957"><ele>582.0</ele><time>2026-05-03T15:49:54Z</time></trkpt><trkpt lat="47.46510741036815" lon="6.941315905067768"><ele>582.0</ele><time>2026-05-03T15:49:56Z</time></trkpt><trkpt lat="47.46517466679995" lon="6.941356030244566"><ele>582.0</ele><time>2026-05-03T15:49:58Z</time></trkpt><trkpt lat="47.46523129064682" lon="6.941407507524704"><ele>582.0</ele><time>2026-05-03T15:49:59Z</time></trkpt><trkpt lat="47.46530114627528" lon="6.941479712159423"><ele>582.0</ele><time>2026-05-03T15:50:00Z</time></trkpt><trkpt lat="47.465366556201694" lon="6.941536714306138"><ele>582.0</ele><time>2026-05-03T15:50:01Z</time></trkpt><trkpt lat="47.465436253016335" lon="6.9415737761824285"><ele>582.3333333333334</ele><time>2026-05-03T15:50:02Z</time></trkpt><trkpt lat="47.46549947285804" lon="6.941607778597839"><ele>582.6666666666666</ele><time>2026-05-03T15:50:03Z</time></trkpt><trkpt lat="47.465540293723414" lon="6.9416815659460225"><ele>583.0</ele><time>2026-05-03T15:50:05Z</time></trkpt><trkpt lat="47.465650176633694" lon="6.941719090652944"><ele>583.3333333333333</ele><time>2026-05-03T15:50:07Z</time></trkpt><trkpt lat="47.465718590575186" lon="6.941731558775071"><ele>583.6666666666666</ele><time>2026-05-03T15:50:08Z</time></trkpt><trkpt lat="47.46582486606759" lon="6.941754393633613"><ele>584.0</ele><time>2026-05-03T15:50:10Z</time></trkpt><trkpt lat="47.46591455610851" lon="6.941757388576914"><ele>584.0</ele><time>2026-05-03T15:50:11Z</time></trkpt><trkpt lat="47.46597691409226" lon="6.941743081580774"><ele>584.0</ele><time>2026-05-03T15:50:12Z</time></trkpt><trkpt lat="47.46604127797587" lon="6.941739005624698"><ele>584.0</ele><time>2026-05-03T15:50:13Z</time></trkpt><trkpt lat="47.46610998330019" lon="6.941710752278535"><ele>584.0</ele><time>2026-05-03T15:50:14Z</time></trkpt><trkpt lat="47.46621049798046" lon="6.941683474398019"><ele>584.0</ele><time>2026-05-03T15:50:16Z</time></trkpt><trkpt lat="47.46629567671217" lon="6.941715556623514"><ele>584.0</ele><time>2026-05-03T15:50:18Z</time></trkpt><trkpt lat="47.466362859306344" lon="6.941740747468047"><ele>584.2</ele><time>2026-05-03T15:50:19Z</time></trkpt><trkpt lat="47.46642700894806" lon="6.941769399784024"><ele>584.4</ele><time>2026-05-03T15:50:20Z</time></trkpt><trkpt lat="47.466537458110786" lon="6.941799494098656"><ele>584.6</ele><time>2026-05-03T15:50:22Z</time></trkpt><trkpt lat="47.46661641424599" lon="6.941840735869466"><ele>584.8</ele><time>2026-05-03T15:50:24Z</time></trkpt><trkpt lat="47.46669085018328" lon="6.941927720196317"><ele>585.0</ele><time>2026-05-03T15:50:26Z</time></trkpt><trkpt lat="47.466821257969585" lon="6.941961025451981"><ele>585.0</ele><time>2026-05-03T15:50:28Z</time></trkpt><trkpt lat="47.46688647778664" lon="6.942042240407284"><ele>585.0</ele><time>2026-05-03T15:50:29Z</time></trkpt><trkpt lat="47.46695032635896" lon="6.942060667018312"><ele>585.0</ele><time>2026-05-03T15:50:30Z</time></trkpt><trkpt lat="47.467040155131045" lon="6.942101185104691"><ele>585.0</ele><time>2026-05-03T15:50:32Z</time></trkpt><trkpt lat="47.467113405123754" lon="6.942127212998798"><ele>585.0</ele><time>2026-05-03T15:50:33Z</time></trkpt><trkpt lat="47.46721678215143" lon="6.942116460547555"><ele>585.0</ele><time>2026-05-03T15:50:35Z</time></trkpt><trkpt lat="47.467277787741295" lon="6.942166053944106"><ele>583.8333333333334</ele><time>2026-05-03T15:50:37Z</time></trkpt><trkpt lat="47.467355925668414" lon="6.94211870868785"><ele>582.6666666666666</ele><time>2026-05-03T15:50:39Z</time></trkpt><trkpt lat="47.4674141762743" lon="6.942076880424717"><ele>581.5</ele><time>2026-05-03T15:50:40Z</time></trkpt><trkpt lat="47.467474296233206" lon="6.9420112454341"><ele>580.3333333333333</ele><time>2026-05-03T15:50:41Z</time></trkpt><trkpt lat="47.46755150663939" lon="6.941946712636807"><ele>579.1666666666666</ele><time>2026-05-03T15:50:43Z</time></trkpt><trkpt lat="47.467626550130376" lon="6.941924944681419"><ele>578.0</ele><time>2026-05-03T15:50:47Z</time></trkpt><trkpt lat="47.46769230293164" lon="6.941978705532687"><ele>578.0</ele><time>2026-05-03T15:50:51Z</time></trkpt><trkpt lat="47.46775810733025" lon="6.942075358824"><ele>578.0</ele><time>2026-05-03T15:50:54Z</time></trkpt><trkpt lat="47.4678368200556" lon="6.942119544101732"><ele>578.0</ele><time>2026-05-03T15:50:57Z</time></trkpt><trkpt lat="47.46789365842521" lon="6.942190807665783"><ele>578.0</ele><time>2026-05-03T15:51:00Z</time></trkpt><trkpt lat="47.46796521332245" lon="6.942182893845"><ele>578.0</ele><time>2026-05-03T15:51:07Z</time></trkpt><trkpt lat="47.468025674972" lon="6.942135903765157"><ele>578.0</ele><time>2026-05-03T15:51:12Z</time></trkpt><trkpt lat="47.4680858053348" lon="6.94209271855"><ele>576.5</ele><time>2026-05-03T15:51:14Z</time></trkpt><trkpt lat="47.46804371427585" lon="6.9420008492758045"><ele>575.0</ele><time>2026-05-03T15:51:28Z</time></trkpt><trkpt lat="47.46804623896609" lon="6.94209623890066"><ele>573.5</ele><time>2026-05-03T15:51:37Z</time></trkpt><trkpt lat="47.46804275546909" lon="6.9422113509895285"><ele>572.0</ele><time>2026-05-03T15:51:47Z</time></trkpt><trkpt lat="47.467961772737" lon="6.942310741310617"><ele>570.5</ele><time>2026-05-03T15:51:49Z</time></trkpt><trkpt lat="47.4680221693353" lon="6.94236321090704"><ele>569.0</ele><time>2026-05-03T15:52:25Z</time></trkpt><trkpt lat="47.46796726484129" lon="6.942300141935288"><ele>569.0</ele><time>2026-05-03T15:53:28Z</time></trkpt><trkpt lat="47.46804986510858" lon="6.942210509739835"><ele>569.0</ele><time>2026-05-03T15:53:33Z</time></trkpt><trkpt lat="47.46807265511394" lon="6.94212183139938"><ele>569.0</ele><time>2026-05-03T15:53:38Z</time></trkpt><trkpt lat="47.46798691771348" lon="6.942141670859144"><ele>569.0</ele><time>2026-05-03T15:53:42Z</time></trkpt><trkpt lat="47.4678995336157" lon="6.942149580905411"><ele>569.0</ele><time>2026-05-03T15:53:45Z</time></trkpt><trkpt lat="47.46783567764804" lon="6.942129949499266"><ele>569.0</ele><time>2026-05-03T15:53:47Z</time></trkpt><trkpt lat="47.46779315175518" lon="6.942034838744362"><ele>570.5</ele><time>2026-05-03T15:53:50Z</time></trkpt><trkpt lat="47.46770795284439" lon="6.942013102996407"><ele>572.0</ele><time>2026-05-03T15:53:52Z</time></trkpt><trkpt lat="47.467611053382335" lon="6.9420034412078895"><ele>573.5</ele><time>2026-05-03T15:53:54Z</time></trkpt><trkpt lat="47.46753107713701" lon="6.942029414765259"><ele>575.0</ele><time>2026-05-03T15:53:56Z</time></trkpt><trkpt lat="47.46746376335326" lon="6.94201289909515"><ele>576.5</ele><time>2026-05-03T15:53:58Z</time></trkpt><trkpt lat="47.467378904996814" lon="6.942087787910767"><ele>578.0</ele><time>2026-05-03T15:54:00Z</time></trkpt><trkpt lat="47.46733080430084" lon="6.942151358145512"><ele>578.0</ele><time>2026-05-03T15:54:01Z</time></trkpt><trkpt lat="47.46724413182498" lon="6.942109920372316"><ele>578.0</ele><time>2026-05-03T15:54:02Z</time></trkpt><trkpt lat="47.4671234386756" lon="6.942089882192841"><ele>578.0</ele><time>2026-05-03T15:54:04Z</time></trkpt><trkpt lat="47.46705030980889" lon="6.942050485132353"><ele>578.0</ele><time>2026-05-03T15:54:05Z</time></trkpt><trkpt lat="47.466949786340194" lon="6.941995622021776"><ele>578.0</ele><time>2026-05-03T15:54:07Z</time></trkpt><trkpt lat="47.46688675774757" lon="6.941980522130676"><ele>578.3333333333333</ele><time>2026-05-03T15:54:08Z</time></trkpt><trkpt lat="47.46681249047744" lon="6.94194975727525"><ele>578.6666666666666</ele><time>2026-05-03T15:54:09Z</time></trkpt><trkpt lat="47.466743855726165" lon="6.941926972639322"><ele>579.0</ele><time>2026-05-03T15:54:10Z</time></trkpt><trkpt lat="47.466658066495654" lon="6.9418676135204125"><ele>579.3333333333334</ele><time>2026-05-03T15:54:12Z</time></trkpt><trkpt lat="47.46659378527651" lon="6.941826533417092"><ele>579.6666666666667</ele><time>2026-05-03T15:54:13Z</time></trkpt><trkpt lat="47.46651996969274" lon="6.941752534831379"><ele>580.0</ele><time>2026-05-03T15:54:15Z</time></trkpt><trkpt lat="47.46644485432924" lon="6.941714534856094"><ele>580.0</ele><time>2026-05-03T15:54:17Z</time></trkpt><trkpt lat="47.46637513910846" lon="6.941684699648153"><ele>580.0</ele><time>2026-05-03T15:54:19Z</time></trkpt><trkpt lat="47.46627112805953" lon="6.941665684332999"><ele>580.0</ele><time>2026-05-03T15:54:21Z</time></trkpt><trkpt lat="47.46617775958568" lon="6.941642951509686"><ele>580.0</ele><time>2026-05-03T15:54:23Z</time></trkpt><trkpt lat="47.46610512202912" lon="6.941689231177142"><ele>580.0</ele><time>2026-05-03T15:54:25Z</time></trkpt><trkpt lat="47.4660147578413" lon="6.941702457926364"><ele>580.0</ele><time>2026-05-03T15:54:27Z</time></trkpt><trkpt lat="47.46590021243351" lon="6.941748555277743"><ele>581.0</ele><time>2026-05-03T15:54:29Z</time></trkpt><trkpt lat="47.465768069625724" lon="6.941738480111774"><ele>582.0</ele><time>2026-05-03T15:54:31Z</time></trkpt><trkpt lat="47.46564655016729" lon="6.941696234288416"><ele>583.0</ele><time>2026-05-03T15:54:33Z</time></trkpt><trkpt lat="47.46551872293154" lon="6.941646488267087"><ele>584.0</ele><time>2026-05-03T15:54:35Z</time></trkpt><trkpt lat="47.46546740144387" lon="6.941582873344656"><ele>583.6</ele><time>2026-05-03T15:54:36Z</time></trkpt><trkpt lat="47.46541274213282" lon="6.941534661067399"><ele>583.2</ele><time>2026-05-03T15:54:36.999Z</time></trkpt><trkpt lat="47.46531004292239" lon="6.941496612872201"><ele>582.8000000000001</ele><time>2026-05-03T15:54:38.999Z</time></trkpt><trkpt lat="47.46521250313161" lon="6.941402114231767"><ele>582.4</ele><time>2026-05-03T15:54:40.999Z</time></trkpt><trkpt lat="47.46512995863312" lon="6.941287832734299"><ele>582.0</ele><time>2026-05-03T15:54:42.999Z</time></trkpt><trkpt lat="47.465063289364714" lon="6.941167612821493"><ele>582.0</ele><time>2026-05-03T15:54:44.999Z</time></trkpt><trkpt lat="47.46502159184901" lon="6.9410554232085575"><ele>582.0</ele><time>2026-05-03T15:54:46.999Z</time></trkpt><trkpt lat="47.46498289466982" lon="6.9409263056686035"><ele>582.0</ele><time>2026-05-03T15:54:48.999Z</time></trkpt><trkpt lat="47.464989397137444" lon="6.940768618127285"><ele>582.0</ele><time>2026-05-03T15:54:50.999Z</time></trkpt><trkpt lat="47.46498204459925" lon="6.940653870674705"><ele>582.0</ele><time>2026-05-03T15:54:52.999Z</time></trkpt><trkpt lat="47.46495088832013" lon="6.940516990307768"><ele>581.6666666666666</ele><time>2026-05-03T15:54:55Z</time></trkpt><trkpt lat="47.46487182302384" lon="6.940369205625489"><ele>581.3333333333334</ele><time>2026-05-03T15:54:57Z</time></trkpt><trkpt lat="47.46483778423119" lon="6.940264917486481"><ele>581.0</ele><time>2026-05-03T15:54:58Z</time></trkpt><trkpt lat="47.464798329964964" lon="6.9401699786853515"><ele>580.6666666666667</ele><time>2026-05-03T15:54:59Z</time></trkpt><trkpt lat="47.464754408525216" lon="6.940071124283392"><ele>580.3333333333334</ele><time>2026-05-03T15:55:00Z</time></trkpt><trkpt lat="47.46472164255065" lon="6.939980565137363"><ele>580.0</ele><time>2026-05-03T15:55:01Z</time></trkpt><trkpt lat="47.46465202202484" lon="6.9398923043491605"><ele>578.0</ele><time>2026-05-03T15:55:02Z</time></trkpt><trkpt lat="47.464596101772536" lon="6.9397949898136035"><ele>576.0</ele><time>2026-05-03T15:55:03Z</time></trkpt><trkpt lat="47.464539761670146" lon="6.939723426466774"><ele>574.0</ele><time>2026-05-03T15:55:04Z</time></trkpt><trkpt lat="47.46441390931988" lon="6.939640383163993"><ele>572.0</ele><time>2026-05-03T15:55:06Z</time></trkpt><trkpt lat="47.4643647462875" lon="6.939577192233981"><ele>570.0</ele><time>2026-05-03T15:55:07Z</time></trkpt><trkpt lat="47.46426779412491" lon="6.939533593722376"><ele>570.0</ele><time>2026-05-03T15:55:09Z</time></trkpt><trkpt lat="47.46420063448735" lon="6.939541928336813"><ele>570.0</ele><time>2026-05-03T15:55:10Z</time></trkpt><trkpt lat="47.464091693236384" lon="6.9395111690123965"><ele>570.0</ele><time>2026-05-03T15:55:12Z</time></trkpt><trkpt lat="47.46401204300678" lon="6.9394738138668055"><ele>570.0</ele><time>2026-05-03T15:55:13Z</time></trkpt><trkpt lat="47.46392524797991" lon="6.939462465486972"><ele>570.0</ele><time>2026-05-03T15:55:14Z</time></trkpt><trkpt lat="47.46380091892268" lon="6.9394449016851745"><ele>568.8333333333334</ele><time>2026-05-03T15:55:16Z</time></trkpt><trkpt lat="47.46373439006836" lon="6.939430401733482"><ele>567.6666666666666</ele><time>2026-05-03T15:55:17Z</time></trkpt><trkpt lat="47.463624112792644" lon="6.9394413769688015"><ele>566.5</ele><time>2026-05-03T15:55:19Z</time></trkpt><trkpt lat="47.46352969949165" lon="6.939470890975889"><ele>565.3333333333333</ele><time>2026-05-03T15:55:21Z</time></trkpt><trkpt lat="47.46345677229458" lon="6.939482854717232"><ele>564.1666666666666</ele><time>2026-05-03T15:55:23Z</time></trkpt><trkpt lat="47.463415470572016" lon="6.939404275654332"><ele>563.0</ele><time>2026-05-03T15:55:26Z</time></trkpt><trkpt lat="47.463387263392285" lon="6.939309496690541"><ele>563.4</ele><time>2026-05-03T15:55:28Z</time></trkpt><trkpt lat="47.46330556164219" lon="6.9391580841496125"><ele>563.8</ele><time>2026-05-03T15:55:30Z</time></trkpt><trkpt lat="47.46328353127115" lon="6.939063178557726"><ele>564.2</ele><time>2026-05-03T15:55:31Z</time></trkpt><trkpt lat="47.46326469871275" lon="6.938974120065244"><ele>564.6</ele><time>2026-05-03T15:55:32Z</time></trkpt><trkpt lat="47.46328112230603" lon="6.938831272307912"><ele>565.0</ele><time>2026-05-03T15:55:34Z</time></trkpt><trkpt lat="47.46329731862178" lon="6.938665587148109"><ele>565.0</ele><time>2026-05-03T15:55:36Z</time></trkpt><trkpt lat="47.46329723562564" lon="6.9385639938756345"><ele>565.0</ele><time>2026-05-03T15:55:37Z</time></trkpt><trkpt lat="47.463314293978414" lon="6.938427429286984"><ele>565.0</ele><time>2026-05-03T15:55:39Z</time></trkpt><trkpt lat="47.463279460577425" lon="6.9382797217034815"><ele>565.0</ele><time>2026-05-03T15:55:41Z</time></trkpt><trkpt lat="47.46328156492599" lon="6.938185612253338"><ele>565.0</ele><time>2026-05-03T15:55:42Z</time></trkpt><trkpt lat="47.46333344159037" lon="6.938000997712613"><ele>564.1666666666667</ele><time>2026-05-03T15:55:44Z</time></trkpt><trkpt lat="47.4633237062986" lon="6.937840935112118"><ele>563.3333333333334</ele><time>2026-05-03T15:55:46Z</time></trkpt><trkpt lat="47.46329029130825" lon="6.937694498083161"><ele>562.5</ele><time>2026-05-03T15:55:48Z</time></trkpt><trkpt lat="47.46332383877576" lon="6.93760073078981"><ele>561.6666666666666</ele><time>2026-05-03T15:55:49Z</time></trkpt><trkpt lat="47.46335604123073" lon="6.937515533554246"><ele>560.8333333333333</ele><time>2026-05-03T15:55:50Z</time></trkpt><trkpt lat="47.46339664121414" lon="6.937422805846657"><ele>560.0</ele><time>2026-05-03T15:55:51Z</time></trkpt><trkpt lat="47.46345420161938" lon="6.937350778356085"><ele>558.25</ele><time>2026-05-03T15:55:52Z</time></trkpt><trkpt lat="47.46351790783563" lon="6.937271764005151"><ele>556.5</ele><time>2026-05-03T15:55:54Z</time></trkpt><trkpt lat="47.46357706819461" lon="6.9370925502745795"><ele>554.75</ele><time>2026-05-03T15:55:56Z</time></trkpt><trkpt lat="47.463688735143904" lon="6.936993948775897"><ele>553.0</ele><time>2026-05-03T15:55:58Z</time></trkpt><trkpt lat="47.463768087833785" lon="6.936871061065208"><ele>553.1666666666667</ele><time>2026-05-03T15:56:00Z</time></trkpt><trkpt lat="47.46382194054368" lon="6.936805664028163"><ele>553.3333333333334</ele><time>2026-05-03T15:56:01Z</time></trkpt><trkpt lat="47.46389063248412" lon="6.9367726394880735"><ele>553.5</ele><time>2026-05-03T15:56:02Z</time></trkpt><trkpt lat="47.46396883000825" lon="6.936757056781149"><ele>553.6666666666666</ele><time>2026-05-03T15:56:04Z</time></trkpt><trkpt lat="47.46403311819398" lon="6.936763783503933"><ele>553.8333333333333</ele><time>2026-05-03T15:56:05Z</time></trkpt><trkpt lat="47.46410284658149" lon="6.936770445735752"><ele>554.0</ele><time>2026-05-03T15:56:06Z</time></trkpt><trkpt lat="47.464184737085" lon="6.936645062927532"><ele>554.0</ele><time>2026-05-03T15:56:08Z</time></trkpt><trkpt lat="47.4642556069589" lon="6.936596074620341"><ele>554.0</ele><time>2026-05-03T15:56:09Z</time></trkpt><trkpt lat="47.46434430575224" lon="6.9365552401380555"><ele>554.0</ele><time>2026-05-03T15:56:10Z</time></trkpt><trkpt lat="47.46441607762983" lon="6.936482042424536"><ele>554.0</ele><time>2026-05-03T15:56:11Z</time></trkpt><trkpt lat="47.46451962481249" lon="6.936404434936326"><ele>554.0</ele><time>2026-05-03T15:56:12Z</time></trkpt><trkpt lat="47.464583673493344" lon="6.936355638945078"><ele>554.0</ele><time>2026-05-03T15:56:13Z</time></trkpt><trkpt lat="47.464641093532386" lon="6.936315927079371"><ele>554.1666666666666</ele><time>2026-05-03T15:56:14Z</time></trkpt><trkpt lat="47.46469638783258" lon="6.936265931615167"><ele>554.3333333333333</ele><time>2026-05-03T15:56:15Z</time></trkpt><trkpt lat="47.46473920946967" lon="6.936186815709019"><ele>554.5</ele><time>2026-05-03T15:56:16Z</time></trkpt><trkpt lat="47.46480834169177" lon="6.93608046696573"><ele>554.6666666666666</ele><time>2026-05-03T15:56:18Z</time></trkpt><trkpt lat="47.46489519718565" lon="6.93594551700151"><ele>554.8333333333334</ele><time>2026-05-03T15:56:20Z</time></trkpt><trkpt lat="47.464959996261605" lon="6.93587337563282"><ele>555.0</ele><time>2026-05-03T15:56:21Z</time></trkpt><trkpt lat="47.46505062587001" lon="6.93575742410814"><ele>554.5</ele><time>2026-05-03T15:56:23Z</time></trkpt><trkpt lat="47.465112209573185" lon="6.935700596555872"><ele>554.0</ele><time>2026-05-03T15:56:23.999Z</time></trkpt><trkpt lat="47.465159080631025" lon="6.935631495217556"><ele>553.5</ele><time>2026-05-03T15:56:24.999Z</time></trkpt><trkpt lat="47.46520339958029" lon="6.9354753145452515"><ele>553.0</ele><time>2026-05-03T15:56:26.999Z</time></trkpt><trkpt lat="47.46528898356759" lon="6.935366112263075"><ele>552.5</ele><time>2026-05-03T15:56:28.999Z</time></trkpt><trkpt lat="47.46534951433755" lon="6.935339210992901"><ele>552.0</ele><time>2026-05-03T15:56:29.999Z</time></trkpt><trkpt lat="47.4654532044149" lon="6.935258118633488"><ele>550.8000000000001</ele><time>2026-05-03T15:56:31.999Z</time></trkpt><trkpt lat="47.46555022769674" lon="6.9352441869925325"><ele>549.6</ele><time>2026-05-03T15:56:33.999Z</time></trkpt><trkpt lat="47.465680476354216" lon="6.935278713354308"><ele>548.4000000000001</ele><time>2026-05-03T15:56:35.999Z</time></trkpt><trkpt lat="47.46576656935553" lon="6.935305678134209"><ele>547.2</ele><time>2026-05-03T15:56:37.999Z</time></trkpt><trkpt lat="47.465887782108254" lon="6.935351073889484"><ele>546.0</ele><time>2026-05-03T15:56:39.999Z</time></trkpt><trkpt lat="47.46595211569162" lon="6.935367426968474"><ele>546.0</ele><time>2026-05-03T15:56:40.999Z</time></trkpt><trkpt lat="47.46604472882877" lon="6.935386319472939"><ele>546.0</ele><time>2026-05-03T15:56:41.999Z</time></trkpt><trkpt lat="47.46611513302909" lon="6.935445488299827"><ele>546.0</ele><time>2026-05-03T15:56:42.999Z</time></trkpt><trkpt lat="47.4662178791705" lon="6.935464321666177"><ele>546.0</ele><time>2026-05-03T15:56:43.999Z</time></trkpt><trkpt lat="47.46631573359689" lon="6.935465660415039"><ele>546.0</ele><time>2026-05-03T15:56:44.999Z</time></trkpt><trkpt lat="47.46641198907826" lon="6.935483327957592"><ele>545.5</ele><time>2026-05-03T15:56:45.999Z</time></trkpt><trkpt lat="47.46647596043994" lon="6.935497857765104"><ele>545.0</ele><time>2026-05-03T15:56:46.999Z</time></trkpt><trkpt lat="47.46654941617445" lon="6.935457975260392"><ele>544.5</ele><time>2026-05-03T15:56:47.999Z</time></trkpt><trkpt lat="47.46662147540998" lon="6.935431974925051"><ele>544.0</ele><time>2026-05-03T15:56:48.999Z</time></trkpt><trkpt lat="47.46668272630774" lon="6.935356970267398"><ele>543.5</ele><time>2026-05-03T15:56:49.999Z</time></trkpt><trkpt lat="47.4667710424314" lon="6.935346790926778"><ele>543.0</ele><time>2026-05-03T15:56:50.999Z</time></trkpt><trkpt lat="47.466877428874994" lon="6.935336141982844"><ele>543.0</ele><time>2026-05-03T15:56:51.999Z</time></trkpt><trkpt lat="47.46696481434809" lon="6.93530297489423"><ele>543.0</ele><time>2026-05-03T15:56:52.999Z</time></trkpt><trkpt lat="47.46705407693023" lon="6.935317128659998"><ele>543.0</ele><time>2026-05-03T15:56:53.999Z</time></trkpt><trkpt lat="47.467129584823475" lon="6.935276820418419"><ele>543.0</ele><time>2026-05-03T15:56:54.999Z</time></trkpt><trkpt lat="47.467234282299145" lon="6.935264673935815"><ele>543.0</ele><time>2026-05-03T15:56:55.999Z</time></trkpt><trkpt lat="47.46740569683215" lon="6.935284316958037"><ele>542.1999999999999</ele><time>2026-05-03T15:56:57.999Z</time></trkpt><trkpt lat="47.467531485566454" lon="6.935293250035736"><ele>541.4</ele><time>2026-05-03T15:56:58.999Z</time></trkpt><trkpt lat="47.4675958858478" lon="6.935304394493551"><ele>540.5999999999999</ele><time>2026-05-03T15:56:59.999Z</time></trkpt><trkpt lat="47.467662622301845" lon="6.935334005635618"><ele>539.8</ele><time>2026-05-03T15:57:01Z</time></trkpt><trkpt lat="47.46773114189665" lon="6.935364813244601"><ele>539.0</ele><time>2026-05-03T15:57:03Z</time></trkpt><trkpt lat="47.46784848527582" lon="6.935305726694165"><ele>538.2</ele><time>2026-05-03T15:57:05Z</time></trkpt><trkpt lat="47.467954165020565" lon="6.935335087909858"><ele>537.4</ele><time>2026-05-03T15:57:11Z</time></trkpt><trkpt lat="47.46803552765764" lon="6.935291427379285"><ele>536.6</ele><time>2026-05-03T15:57:13Z</time></trkpt><trkpt lat="47.468167358459176" lon="6.935260142684117"><ele>535.8</ele><time>2026-05-03T15:57:15Z</time></trkpt><trkpt lat="47.46822974535382" lon="6.935295953543662"><ele>535.0</ele><time>2026-05-03T15:57:16Z</time></trkpt><trkpt lat="47.4683436074878" lon="6.935374231265494"><ele>535.0</ele><time>2026-05-03T15:57:18Z</time></trkpt><trkpt lat="47.46840241454058" lon="6.935424154229352"><ele>535.0</ele><time>2026-05-03T15:57:19Z</time></trkpt><trkpt lat="47.46846981566822" lon="6.935544895386418"><ele>535.0</ele><time>2026-05-03T15:57:20Z</time></trkpt><trkpt lat="47.468528520165414" lon="6.935602230737428"><ele>535.0</ele><time>2026-05-03T15:57:21Z</time></trkpt><trkpt lat="47.468591649862944" lon="6.935637678742656"><ele>535.0</ele><time>2026-05-03T15:57:22Z</time></trkpt><trkpt lat="47.46859405397504" lon="6.9357383962552035"><ele>535.0</ele><time>2026-05-03T15:57:23Z</time></trkpt><trkpt lat="47.46864149290633" lon="6.935837614611464"><ele>535.8</ele><time>2026-05-03T15:57:24Z</time></trkpt><trkpt lat="47.46869886149427" lon="6.936011133330687"><ele>536.6</ele><time>2026-05-03T15:57:26Z</time></trkpt><trkpt lat="47.46876817952264" lon="6.936069396250779"><ele>537.4</ele><time>2026-05-03T15:57:27Z</time></trkpt><trkpt lat="47.46885413653271" lon="6.936077069906724"><ele>538.2</ele><time>2026-05-03T15:57:28Z</time></trkpt><trkpt lat="47.46885310024443" lon="6.936207496953464"><ele>539.0</ele><time>2026-05-03T15:57:29Z</time></trkpt><trkpt lat="47.46890367698509" lon="6.93627468215922"><ele>537.5</ele><time>2026-05-03T15:57:30Z</time></trkpt><trkpt lat="47.46897391069018" lon="6.936329743340695"><ele>536.0</ele><time>2026-05-03T15:57:31Z</time></trkpt><trkpt lat="47.46905708955888" lon="6.936398319023183"><ele>534.5</ele><time>2026-05-03T15:57:32Z</time></trkpt><trkpt lat="47.469130348283215" lon="6.93646049200118"><ele>533.0</ele><time>2026-05-03T15:57:33Z</time></trkpt><trkpt lat="47.46920685416229" lon="6.93651387720629"><ele>531.5</ele><time>2026-05-03T15:57:34Z</time></trkpt><trkpt lat="47.46928837459593" lon="6.936582987867834"><ele>530.0</ele><time>2026-05-03T15:57:35Z</time></trkpt><trkpt lat="47.469337128904534" lon="6.936698103668348"><ele>530.6666666666666</ele><time>2026-05-03T15:57:36Z</time></trkpt><trkpt lat="47.46936855323432" lon="6.936787276161786"><ele>531.3333333333333</ele><time>2026-05-03T15:57:37Z</time></trkpt><trkpt lat="47.46942674835332" lon="6.936835334290953"><ele>532.0</ele><time>2026-05-03T15:57:38Z</time></trkpt><trkpt lat="47.469451742724836" lon="6.9369302827297"><ele>532.6666666666666</ele><time>2026-05-03T15:57:39Z</time></trkpt><trkpt lat="47.46949326994597" lon="6.937013124428566"><ele>533.3333333333334</ele><time>2026-05-03T15:57:40Z</time></trkpt><trkpt lat="47.4695349972948" lon="6.937168403696201"><ele>534.0</ele><time>2026-05-03T15:57:42Z</time></trkpt><trkpt lat="47.46957081323454" lon="6.9372635951685675"><ele>532.3333333333334</ele><time>2026-05-03T15:57:43Z</time></trkpt><trkpt lat="47.46964243570098" lon="6.937295562361862"><ele>530.6666666666666</ele><time>2026-05-03T15:57:44Z</time></trkpt><trkpt lat="47.46972961136902" lon="6.937325772847596"><ele>529.0</ele><time>2026-05-03T15:57:45Z</time></trkpt><trkpt lat="47.46979241152141" lon="6.937368696968166"><ele>527.3333333333333</ele><time>2026-05-03T15:57:46Z</time></trkpt><trkpt lat="47.46986159214678" lon="6.937395406518048"><ele>525.6666666666666</ele><time>2026-05-03T15:57:47Z</time></trkpt><trkpt lat="47.46994747772555" lon="6.937361202183677"><ele>524.0</ele><time>2026-05-03T15:57:48Z</time></trkpt><trkpt lat="47.47005266757998" lon="6.937381699870669"><ele>524.0</ele><time>2026-05-03T15:57:50Z</time></trkpt><trkpt lat="47.470187921521585" lon="6.9373609356191075"><ele>524.0</ele><time>2026-05-03T15:57:53Z</time></trkpt><trkpt lat="47.470229983150844" lon="6.937276370500449"><ele>524.0</ele><time>2026-05-03T15:57:54Z</time></trkpt><trkpt lat="47.470372893440995" lon="6.93727354104628"><ele>524.0</ele><time>2026-05-03T15:57:56Z</time></trkpt><trkpt lat="47.470478557891866" lon="6.937262393688877"><ele>523.7142857142858</ele><time>2026-05-03T15:57:57Z</time></trkpt><trkpt lat="47.470555360854576" lon="6.937298005721357"><ele>523.4285714285714</ele><time>2026-05-03T15:57:59Z</time></trkpt><trkpt lat="47.470609723018434" lon="6.937346990398919"><ele>523.1428571428571</ele><time>2026-05-03T15:58:01Z</time></trkpt><trkpt lat="47.47066478732721" lon="6.937395526185872"><ele>522.8571428571429</ele><time>2026-05-03T15:58:03Z</time></trkpt><trkpt lat="47.470735959303816" lon="6.937472296525785"><ele>522.5714285714286</ele><time>2026-05-03T15:58:06Z</time></trkpt><trkpt lat="47.4707567513493" lon="6.937561643859781"><ele>522.2857142857143</ele><time>2026-05-03T15:58:08Z</time></trkpt><trkpt lat="47.4707927247947" lon="6.937651150481107"><ele>522.0</ele><time>2026-05-03T15:58:12Z</time></trkpt><trkpt lat="47.470747128174374" lon="6.937532596490617"><ele>522.3333333333334</ele><time>2026-05-03T15:58:21Z</time></trkpt><trkpt lat="47.47066532037812" lon="6.937456527894588"><ele>522.6666666666666</ele><time>2026-05-03T15:58:23Z</time></trkpt><trkpt lat="47.47058449217837" lon="6.937330310451341"><ele>523.0</ele><time>2026-05-03T15:58:25Z</time></trkpt><trkpt lat="47.47051045796607" lon="6.937320388921338"><ele>523.3333333333333</ele><time>2026-05-03T15:58:26Z</time></trkpt><trkpt lat="47.4704399758612" lon="6.937313997046482"><ele>523.6666666666666</ele><time>2026-05-03T15:58:27Z</time></trkpt><trkpt lat="47.47037232886173" lon="6.937339780553794"><ele>524.0</ele><time>2026-05-03T15:58:29Z</time></trkpt><trkpt lat="47.470292947537246" lon="6.937347808888693"><ele>524.0</ele><time>2026-05-03T15:58:30Z</time></trkpt><trkpt lat="47.47017539299859" lon="6.937323717400753"><ele>524.0</ele><time>2026-05-03T15:58:32Z</time></trkpt><trkpt lat="47.4700646393279" lon="6.937331166322313"><ele>524.0</ele><time>2026-05-03T15:58:34Z</time></trkpt><trkpt lat="47.46997915436588" lon="6.937321973422822"><ele>524.0</ele><time>2026-05-03T15:58:36Z</time></trkpt><trkpt lat="47.46991296470545" lon="6.937306323072218"><ele>524.0</ele><time>2026-05-03T15:58:38Z</time></trkpt><trkpt lat="47.46985098306984" lon="6.937276742380235"><ele>524.0</ele><time>2026-05-03T15:58:39.999Z</time></trkpt><trkpt lat="47.46978805385067" lon="6.937231969345464"><ele>524.0</ele><time>2026-05-03T15:58:40.999Z</time></trkpt><trkpt lat="47.469672393432596" lon="6.937187724956428"><ele>524.0</ele><time>2026-05-03T15:58:42.999Z</time></trkpt><trkpt lat="47.469583810973425" lon="6.93714363011887"><ele>524.0</ele><time>2026-05-03T15:58:43.999Z</time></trkpt><trkpt lat="47.469522281339444" lon="6.937120611147608"><ele>524.0</ele><time>2026-05-03T15:58:44.999Z</time></trkpt><trkpt lat="47.4694508583494" lon="6.937055630446544"><ele>524.0</ele><time>2026-05-03T15:58:46.999Z</time></trkpt><trkpt lat="47.46939788258236" lon="6.936987233502638"><ele>524.0</ele><time>2026-05-03T15:58:47.999Z</time></trkpt><trkpt lat="47.469352192915665" lon="6.936915301552733"><ele>525.0</ele><time>2026-05-03T15:58:48.999Z</time></trkpt><trkpt lat="47.46931312347419" lon="6.936835511617794"><ele>526.0</ele><time>2026-05-03T15:58:49.999Z</time></trkpt><trkpt lat="47.46929362953924" lon="6.936678933445755"><ele>527.0</ele><time>2026-05-03T15:58:50.999Z</time></trkpt><trkpt lat="47.469267284125124" lon="6.9365733254342725"><ele>528.0</ele><time>2026-05-03T15:58:51.999Z</time></trkpt><trkpt lat="47.469205890560055" lon="6.9364949512422305"><ele>529.0</ele><time>2026-05-03T15:58:52.999Z</time></trkpt><trkpt lat="47.46913664687624" lon="6.93641658031062"><ele>530.0</ele><time>2026-05-03T15:58:53.999Z</time></trkpt><trkpt lat="47.469011979215146" lon="6.93632050889237"><ele>530.0</ele><time>2026-05-03T15:58:55.999Z</time></trkpt><trkpt lat="47.4689721453179" lon="6.936217338759831"><ele>530.0</ele><time>2026-05-03T15:58:56.999Z</time></trkpt><trkpt lat="47.46886836220625" lon="6.936124265913578"><ele>530.0</ele><time>2026-05-03T15:58:57.999Z</time></trkpt><trkpt lat="47.46880029802868" lon="6.935986407318915"><ele>530.0</ele><time>2026-05-03T15:58:59.999Z</time></trkpt><trkpt lat="47.468744002373406" lon="6.93592936604271"><ele>530.0</ele><time>2026-05-03T15:59:00.999Z</time></trkpt><trkpt lat="47.46869099236136" lon="6.935852181237113"><ele>530.8333333333333</ele><time>2026-05-03T15:59:01.999Z</time></trkpt><trkpt lat="47.46863033183523" lon="6.9357761057446545"><ele>531.6666666666666</ele><time>2026-05-03T15:59:02.999Z</time></trkpt><trkpt lat="47.46857923061588" lon="6.935696351871449"><ele>532.5</ele><time>2026-05-03T15:59:03.999Z</time></trkpt><trkpt lat="47.46852128739098" lon="6.9355827297106165"><ele>533.3333333333334</ele><time>2026-05-03T15:59:04.999Z</time></trkpt><trkpt lat="47.46846700970147" lon="6.935493075983238"><ele>534.1666666666667</ele><time>2026-05-03T15:59:05.999Z</time></trkpt><trkpt lat="47.46839747657582" lon="6.935431610933418"><ele>535.0</ele><time>2026-05-03T15:59:07Z</time></trkpt><trkpt lat="47.468306324173305" lon="6.93542905967812"><ele>535.0</ele><time>2026-05-03T15:59:08Z</time></trkpt><trkpt lat="47.468214471104375" lon="6.935329158740842"><ele>535.0</ele><time>2026-05-03T15:59:10Z</time></trkpt><trkpt lat="47.468147151832056" lon="6.935245116199461"><ele>535.0</ele><time>2026-05-03T15:59:11Z</time></trkpt><trkpt lat="47.46804747160009" lon="6.93513292607468"><ele>535.0</ele><time>2026-05-03T15:59:13Z</time></trkpt><trkpt lat="47.46798970678308" lon="6.93517191561465"><ele>535.0</ele><time>2026-05-03T15:59:14Z</time></trkpt><trkpt lat="47.46787516192018" lon="6.9351946579168295"><ele>535.8</ele><time>2026-05-03T15:59:16Z</time></trkpt><trkpt lat="47.46778738002533" lon="6.935260893961944"><ele>536.6</ele><time>2026-05-03T15:59:18Z</time></trkpt><trkpt lat="47.46769198001448" lon="6.935293343264767"><ele>537.4</ele><time>2026-05-03T15:59:20Z</time></trkpt><trkpt lat="47.46760177751365" lon="6.9353638044234085"><ele>538.2</ele><time>2026-05-03T15:59:22Z</time></trkpt><trkpt lat="47.467499897500474" lon="6.935322557390074"><ele>539.0</ele><time>2026-05-03T15:59:24Z</time></trkpt><trkpt lat="47.46743967698365" lon="6.93526559389083"><ele>539.0</ele><time>2026-05-03T15:59:25Z</time></trkpt><trkpt lat="47.46737037091652" lon="6.9352673336879915"><ele>539.0</ele><time>2026-05-03T15:59:26Z</time></trkpt><trkpt lat="47.46730915570455" lon="6.9352973132145"><ele>539.0</ele><time>2026-05-03T15:59:27Z</time></trkpt><trkpt lat="47.46723535497313" lon="6.935283739453772"><ele>539.0</ele><time>2026-05-03T15:59:28Z</time></trkpt><trkpt lat="47.467118700287116" lon="6.93528912753812"><ele>539.0</ele><time>2026-05-03T15:59:30Z</time></trkpt><trkpt lat="47.467011204401665" lon="6.9352897419739055"><ele>539.0</ele><time>2026-05-03T15:59:32Z</time></trkpt><trkpt lat="47.46692615340654" lon="6.9353347612819185"><ele>539.8</ele><time>2026-05-03T15:59:34Z</time></trkpt><trkpt lat="47.46681530081788" lon="6.935363022586222"><ele>540.5999999999999</ele><time>2026-05-03T15:59:36Z</time></trkpt><trkpt lat="47.46674868853105" lon="6.93539568907341"><ele>541.4</ele><time>2026-05-03T15:59:37Z</time></trkpt><trkpt lat="47.46666520759169" lon="6.935418989427963"><ele>542.1999999999999</ele><time>2026-05-03T15:59:38Z</time></trkpt><trkpt lat="47.46651210422841" lon="6.935442699603631"><ele>543.0</ele><time>2026-05-03T15:59:39Z</time></trkpt><trkpt lat="47.466388579080395" lon="6.935431461300307"><ele>543.0</ele><time>2026-05-03T15:59:40Z</time></trkpt><trkpt lat="47.46628481846568" lon="6.935389863482566"><ele>543.0</ele><time>2026-05-03T15:59:41Z</time></trkpt><trkpt lat="47.46619311880488" lon="6.935407119941636"><ele>543.0</ele><time>2026-05-03T15:59:42Z</time></trkpt><trkpt lat="47.46610484602547" lon="6.935383850595646"><ele>543.0</ele><time>2026-05-03T15:59:43Z</time></trkpt><trkpt lat="47.46597904312819" lon="6.935328391253382"><ele>543.0</ele><time>2026-05-03T15:59:44Z</time></trkpt><trkpt lat="47.46587195960549" lon="6.935305916323294"><ele>543.6</ele><time>2026-05-03T15:59:45Z</time></trkpt><trkpt lat="47.46577563993688" lon="6.935303953374426"><ele>544.1999999999999</ele><time>2026-05-03T15:59:46Z</time></trkpt><trkpt lat="47.46567427460628" lon="6.93534441797521"><ele>544.8</ele><time>2026-05-03T15:59:48Z</time></trkpt><trkpt lat="47.46556335513024" lon="6.935321302630498"><ele>545.4</ele><time>2026-05-03T15:59:50Z</time></trkpt><trkpt lat="47.46550033235557" lon="6.935297631592082"><ele>546.0</ele><time>2026-05-03T15:59:51Z</time></trkpt><trkpt lat="47.46542445355262" lon="6.935265797327835"><ele>547.2</ele><time>2026-05-03T15:59:52Z</time></trkpt><trkpt lat="47.46529863357826" lon="6.935356281152529"><ele>548.4000000000001</ele><time>2026-05-03T15:59:54Z</time></trkpt><trkpt lat="47.46519341264863" lon="6.935412989711566"><ele>549.6</ele><time>2026-05-03T15:59:56Z</time></trkpt><trkpt lat="47.46512640340152" lon="6.935561014473087"><ele>550.8000000000001</ele><time>2026-05-03T15:59:58Z</time></trkpt><trkpt lat="47.46506753676328" lon="6.935627495651657"><ele>552.0</ele><time>2026-05-03T15:59:59Z</time></trkpt><trkpt lat="47.465043048363164" lon="6.9357150273314"><ele>552.0</ele><time>2026-05-03T16:00:00Z</time></trkpt><trkpt lat="47.464991258828306" lon="6.935804549158859"><ele>552.0</ele><time>2026-05-03T16:00:01Z</time></trkpt><trkpt lat="47.46489136443287" lon="6.935935974905196"><ele>552.0</ele><time>2026-05-03T16:00:03Z</time></trkpt><trkpt lat="47.4648538801566" lon="6.936023208114276"><ele>552.0</ele><time>2026-05-03T16:00:04Z</time></trkpt><trkpt lat="47.4647844858937" lon="6.936102486255131"><ele>552.0</ele><time>2026-05-03T16:00:05Z</time></trkpt><trkpt lat="47.46471066054476" lon="6.936221389118193"><ele>552.3333333333334</ele><time>2026-05-03T16:00:07Z</time></trkpt><trkpt lat="47.46465339730179" lon="6.9362940167405975"><ele>552.6666666666666</ele><time>2026-05-03T16:00:08Z</time></trkpt><trkpt lat="47.464559416170836" lon="6.9363700010348195"><ele>553.0</ele><time>2026-05-03T16:00:10Z</time></trkpt><trkpt lat="47.46448154939678" lon="6.936419278122196"><ele>553.3333333333333</ele><time>2026-05-03T16:00:11Z</time></trkpt><trkpt lat="47.464403356478364" lon="6.936470471381253"><ele>553.6666666666666</ele><time>2026-05-03T16:00:12Z</time></trkpt><trkpt lat="47.464343563603805" lon="6.936523160236011"><ele>554.0</ele><time>2026-05-03T16:00:13Z</time></trkpt><trkpt lat="47.46428656936019" lon="6.9365881657211"><ele>554.0</ele><time>2026-05-03T16:00:14Z</time></trkpt><trkpt lat="47.46420349963002" lon="6.93663064377201"><ele>554.0</ele><time>2026-05-03T16:00:15Z</time></trkpt><trkpt lat="47.464119758983465" lon="6.936694147585731"><ele>554.0</ele><time>2026-05-03T16:00:17Z</time></trkpt><trkpt lat="47.464047484172056" lon="6.936770890845585"><ele>554.0</ele><time>2026-05-03T16:00:19Z</time></trkpt><trkpt lat="47.4639502164715" lon="6.936795053298304"><ele>554.0</ele><time>2026-05-03T16:00:21Z</time></trkpt><trkpt lat="47.46386086218514" lon="6.936776180898642"><ele>553.8</ele><time>2026-05-03T16:00:24Z</time></trkpt><trkpt lat="47.46377454212871" lon="6.936914551358425"><ele>553.5999999999999</ele><time>2026-05-03T16:00:25.999Z</time></trkpt><trkpt lat="47.46372443847779" lon="6.936984786087788"><ele>553.4</ele><time>2026-05-03T16:00:26.999Z</time></trkpt><trkpt lat="47.46363024688916" lon="6.937076519397292"><ele>553.1999999999999</ele><time>2026-05-03T16:00:28.999Z</time></trkpt><trkpt lat="47.46354961112047" lon="6.937177121115192"><ele>553.0</ele><time>2026-05-03T16:00:30.999Z</time></trkpt><trkpt lat="47.4634679576305" lon="6.937318337095072"><ele>553.0</ele><time>2026-05-03T16:00:32.999Z</time></trkpt><trkpt lat="47.46342040446309" lon="6.93744530383564"><ele>553.0</ele><time>2026-05-03T16:00:34.999Z</time></trkpt><trkpt lat="47.46332607160465" lon="6.937566687655858"><ele>553.0</ele><time>2026-05-03T16:00:36.999Z</time></trkpt><trkpt lat="47.46328406372778" lon="6.937702423880766"><ele>553.0</ele><time>2026-05-03T16:00:38.999Z</time></trkpt><trkpt lat="47.46331180181227" lon="6.937835678186253"><ele>553.0</ele><time>2026-05-03T16:00:40.999Z</time></trkpt><trkpt lat="47.46330594094756" lon="6.937968455243532"><ele>554.1666666666667</ele><time>2026-05-03T16:00:42.999Z</time></trkpt><trkpt lat="47.463296121977876" lon="6.9380868874080885"><ele>555.3333333333334</ele><time>2026-05-03T16:00:45.999Z</time></trkpt><trkpt lat="47.46331639145176" lon="6.93820926581907"><ele>556.5</ele><time>2026-05-03T16:00:47.999Z</time></trkpt><trkpt lat="47.46331401345645" lon="6.938334701444846"><ele>557.6666666666666</ele><time>2026-05-03T16:00:50.999Z</time></trkpt><trkpt lat="47.46326303807245" lon="6.938433802427458"><ele>558.8333333333333</ele><time>2026-05-03T16:00:52.999Z</time></trkpt><trkpt lat="47.4633001754544" lon="6.938510386928343"><ele>560.0</ele><time>2026-05-03T16:00:54.999Z</time></trkpt><trkpt lat="47.46327602726237" lon="6.938615848948554"><ele>561.0</ele><time>2026-05-03T16:00:56.999Z</time></trkpt><trkpt lat="47.46328141523914" lon="6.938744744316125"><ele>562.0</ele><time>2026-05-03T16:00:58.999Z</time></trkpt><trkpt lat="47.46329028422886" lon="6.938875832924554"><ele>563.0</ele><time>2026-05-03T16:01:00.999Z</time></trkpt><trkpt lat="47.46329142961125" lon="6.93898429594357"><ele>564.0</ele><time>2026-05-03T16:01:02.999Z</time></trkpt><trkpt lat="47.46318875764555" lon="6.939120073631382"><ele>565.0</ele><time>2026-05-03T16:01:04.999Z</time></trkpt><trkpt lat="47.463144009077965" lon="6.939187303074087"><ele>565.0</ele><time>2026-05-03T16:01:05.999Z</time></trkpt><trkpt lat="47.4630541199779" lon="6.939221116666801"><ele>565.0</ele><time>2026-05-03T16:01:07.999Z</time></trkpt><trkpt lat="47.46297794945725" lon="6.939191930887249"><ele>565.0</ele><time>2026-05-03T16:01:08.999Z</time></trkpt><trkpt lat="47.46290651744289" lon="6.93915894878359"><ele>565.0</ele><time>2026-05-03T16:01:09.999Z</time></trkpt><trkpt lat="47.46283009146727" lon="6.939115597092239"><ele>565.0</ele><time>2026-05-03T16:01:10.999Z</time></trkpt><trkpt lat="47.46272852732375" lon="6.939084142761423"><ele>565.0</ele><time>2026-05-03T16:01:12.999Z</time></trkpt><trkpt lat="47.462643068916954" lon="6.939063785387537"><ele>566.2</ele><time>2026-05-03T16:01:14.999Z</time></trkpt><trkpt lat="47.462520000814116" lon="6.939082745936189"><ele>567.4</ele><time>2026-05-03T16:01:16.999Z</time></trkpt><trkpt lat="47.46245640701329" lon="6.93909457106255"><ele>568.6</ele><time>2026-05-03T16:01:18Z</time></trkpt><trkpt lat="47.462354195276426" lon="6.939117040361014"><ele>569.8</ele><time>2026-05-03T16:01:20Z</time></trkpt><trkpt lat="47.462218896134004" lon="6.939139852758693"><ele>571.0</ele><time>2026-05-03T16:01:22Z</time></trkpt><trkpt lat="47.462129233660455" lon="6.93913865924286"><ele>571.3333333333334</ele><time>2026-05-03T16:01:23Z</time></trkpt><trkpt lat="47.4620690681577" lon="6.939183999799896"><ele>571.6666666666667</ele><time>2026-05-03T16:01:24Z</time></trkpt><trkpt lat="47.461936789943124" lon="6.939211827938043"><ele>572.0</ele><time>2026-05-03T16:01:26Z</time></trkpt><trkpt lat="47.461874028849714" lon="6.939240077651085"><ele>572.3333333333334</ele><time>2026-05-03T16:01:27Z</time></trkpt><trkpt lat="47.46175599866979" lon="6.939264916301445"><ele>572.6666666666666</ele><time>2026-05-03T16:01:29Z</time></trkpt><trkpt lat="47.46169321549252" lon="6.939253156248932"><ele>573.0</ele><time>2026-05-03T16:01:30Z</time></trkpt><trkpt lat="47.46162121189864" lon="6.939243571707419"><ele>573.0</ele><time>2026-05-03T16:01:31Z</time></trkpt><trkpt lat="47.46148893439254" lon="6.93925497454416"><ele>573.0</ele><time>2026-05-03T16:01:33Z</time></trkpt><trkpt lat="47.461415003823475" lon="6.939247472359677"><ele>573.0</ele><time>2026-05-03T16:01:34Z</time></trkpt><trkpt lat="47.46130781509335" lon="6.939212155387055"><ele>573.0</ele><time>2026-05-03T16:01:36Z</time></trkpt><trkpt lat="47.46119234664409" lon="6.939139005709186"><ele>573.0</ele><time>2026-05-03T16:01:38Z</time></trkpt><trkpt lat="47.46107401052279" lon="6.939151297856893"><ele>572.8</ele><time>2026-05-03T16:01:40Z</time></trkpt><trkpt lat="47.46100045490976" lon="6.939160834759303"><ele>572.5999999999999</ele><time>2026-05-03T16:01:41Z</time></trkpt><trkpt lat="47.46091057223246" lon="6.939142567302289"><ele>572.4000000000001</ele><time>2026-05-03T16:01:42Z</time></trkpt><trkpt lat="47.46078852711091" lon="6.939093622449363"><ele>572.2</ele><time>2026-05-03T16:01:43Z</time></trkpt><trkpt lat="47.46072663607012" lon="6.939068611810787"><ele>572.0</ele><time>2026-05-03T16:01:44Z</time></trkpt><trkpt lat="47.460606519946026" lon="6.939032825002867"><ele>572.0</ele><time>2026-05-03T16:01:46Z</time></trkpt><trkpt lat="47.46052126234971" lon="6.938962090334113"><ele>572.0</ele><time>2026-05-03T16:01:49Z</time></trkpt><trkpt lat="47.46043809602439" lon="6.938977180179485"><ele>572.0</ele><time>2026-05-03T16:01:50Z</time></trkpt><trkpt lat="47.4603335453131" lon="6.938976773215033"><ele>572.0</ele><time>2026-05-03T16:01:52Z</time></trkpt><trkpt lat="47.460207552547686" lon="6.938972636602529"><ele>572.0</ele><time>2026-05-03T16:01:54Z</time></trkpt><trkpt lat="47.46010657385584" lon="6.938976603622995"><ele>572.0</ele><time>2026-05-03T16:01:56Z</time></trkpt><trkpt lat="47.46000597016772" lon="6.938977915634861"><ele>572.0</ele><time>2026-05-03T16:01:58Z</time></trkpt><trkpt lat="47.459935624294566" lon="6.9389734316248965"><ele>572.0</ele><time>2026-05-03T16:01:59Z</time></trkpt><trkpt lat="47.459845567040595" lon="6.93899000691399"><ele>572.0</ele><time>2026-05-03T16:02:01Z</time></trkpt><trkpt lat="47.459730540469295" lon="6.9389955974319495"><ele>572.0</ele><time>2026-05-03T16:02:04Z</time></trkpt><trkpt lat="47.45964695384021" lon="6.939009954424362"><ele>571.8333333333333</ele><time>2026-05-03T16:02:06Z</time></trkpt><trkpt lat="47.459574617906355" lon="6.939039407615641"><ele>571.6666666666666</ele><time>2026-05-03T16:02:08Z</time></trkpt><trkpt lat="47.45946326170392" lon="6.939078296006875"><ele>571.5</ele><time>2026-05-03T16:02:10Z</time></trkpt><trkpt lat="47.45939388945719" lon="6.939117669890743"><ele>571.3333333333334</ele><time>2026-05-03T16:02:12Z</time></trkpt><trkpt lat="47.459326703910115" lon="6.939150861690545"><ele>571.1666666666667</ele><time>2026-05-03T16:02:14Z</time></trkpt><trkpt lat="47.4592635900667" lon="6.939222402884858"><ele>571.0</ele><time>2026-05-03T16:02:16Z</time></trkpt><trkpt lat="47.45920286259046" lon="6.939349835493041"><ele>571.0</ele><time>2026-05-03T16:02:18Z</time></trkpt><trkpt lat="47.459155407087515" lon="6.939446609115147"><ele>571.0</ele><time>2026-05-03T16:02:19Z</time></trkpt><trkpt lat="47.45908652284436" lon="6.939607532975563"><ele>571.0</ele><time>2026-05-03T16:02:21Z</time></trkpt><trkpt lat="47.459059990416186" lon="6.939717178346049"><ele>571.0</ele><time>2026-05-03T16:02:23Z</time></trkpt><trkpt lat="47.45900313295937" lon="6.939834163403086"><ele>571.0</ele><time>2026-05-03T16:02:25Z</time></trkpt><trkpt lat="47.458998580714955" lon="6.939939701186128"><ele>571.0</ele><time>2026-05-03T16:02:26Z</time></trkpt><trkpt lat="47.459009702918166" lon="6.9400696478973085"><ele>571.0</ele><time>2026-05-03T16:02:28Z</time></trkpt><trkpt lat="47.459371625696505" lon="6.9392245783024515"><ele>570.0</ele><time>2026-05-03T16:02:38Z</time></trkpt><trkpt lat="47.459533766824585" lon="6.939190070475286"><ele>569.0</ele><time>2026-05-03T16:02:39Z</time></trkpt><trkpt lat="47.459728332203014" lon="6.939223717586845"><ele>568.0</ele><time>2026-05-03T16:02:40Z</time></trkpt><trkpt lat="47.45990876561776" lon="6.939278477885499"><ele>568.0</ele><time>2026-05-03T16:02:41Z</time></trkpt><trkpt lat="47.46010467076408" lon="6.939289210024881"><ele>568.0</ele><time>2026-05-03T16:02:42Z</time></trkpt><trkpt lat="47.46030506988599" lon="6.9394040145430385"><ele>568.0</ele><time>2026-05-03T16:02:43Z</time></trkpt><trkpt lat="47.460492244053256" lon="6.9394669472379995"><ele>568.0</ele><time>2026-05-03T16:02:44Z</time></trkpt><trkpt lat="47.46065896910977" lon="6.939580143000916"><ele>568.0</ele><time>2026-05-03T16:02:45Z</time></trkpt><trkpt lat="47.460801986040465" lon="6.939663035568077"><ele>568.0</ele><time>2026-05-03T16:02:46Z</time></trkpt><trkpt lat="47.46092022153537" lon="6.939756235894244"><ele>568.0</ele><time>2026-05-03T16:02:47Z</time></trkpt><trkpt lat="47.461049622666906" lon="6.939836797251027"><ele>568.0</ele><time>2026-05-03T16:02:48Z</time></trkpt><trkpt lat="47.46117438826326" lon="6.939881789111725"><ele>568.0</ele><time>2026-05-03T16:02:49Z</time></trkpt><trkpt lat="47.46130577874958" lon="6.939903295489899"><ele>568.0</ele><time>2026-05-03T16:02:50Z</time></trkpt><trkpt lat="47.461447180466145" lon="6.939865369737167"><ele>568.3333333333334</ele><time>2026-05-03T16:02:51Z</time></trkpt><trkpt lat="47.461635962218445" lon="6.939799084611997"><ele>568.6666666666666</ele><time>2026-05-03T16:02:52Z</time></trkpt><trkpt lat="47.46187017079806" lon="6.939724295488418"><ele>569.0</ele><time>2026-05-03T16:02:53Z</time></trkpt><trkpt lat="47.46202857628906" lon="6.9397147037449525"><ele>568.5</ele><time>2026-05-03T16:02:54Z</time></trkpt><trkpt lat="47.462183989139355" lon="6.939709966898541"><ele>568.0</ele><time>2026-05-03T16:02:55Z</time></trkpt><trkpt lat="47.462303603747" lon="6.93969179259702"><ele>567.5</ele><time>2026-05-03T16:02:56Z</time></trkpt><trkpt lat="47.46241391136525" lon="6.939688226526291"><ele>567.0</ele><time>2026-05-03T16:02:57Z</time></trkpt><trkpt lat="47.462510111971845" lon="6.939702172613943"><ele>567.0</ele><time>2026-05-03T16:02:58Z</time></trkpt><trkpt lat="47.46260965783315" lon="6.939697588563732"><ele>567.0</ele><time>2026-05-03T16:02:59Z</time></trkpt><trkpt lat="47.46271694100746" lon="6.9397002437903685"><ele>567.0</ele><time>2026-05-03T16:03:00Z</time></trkpt><trkpt lat="47.46283308065317" lon="6.939679432938629"><ele>567.0</ele><time>2026-05-03T16:03:01Z</time></trkpt><trkpt lat="47.46294836018537" lon="6.939673574130261"><ele>567.0</ele><time>2026-05-03T16:03:02Z</time></trkpt><trkpt lat="47.46303818849435" lon="6.939644675567546"><ele>566.3333333333334</ele><time>2026-05-03T16:03:03Z</time></trkpt><trkpt lat="47.463123301300605" lon="6.939616264257016"><ele>565.6666666666666</ele><time>2026-05-03T16:03:04Z</time></trkpt><trkpt lat="47.46321623979015" lon="6.939596936898603"><ele>565.0</ele><time>2026-05-03T16:03:05Z</time></trkpt><trkpt lat="47.463281237060265" lon="6.939577529900983"><ele>564.3333333333333</ele><time>2026-05-03T16:03:06Z</time></trkpt><trkpt lat="47.463346364472876" lon="6.93954881677097"><ele>563.6666666666666</ele><time>2026-05-03T16:03:07Z</time></trkpt><trkpt lat="47.46344448911485" lon="6.9394975379918264"><ele>563.0</ele><time>2026-05-03T16:03:09Z</time></trkpt><trkpt lat="47.46349480483058" lon="6.939389831931093"><ele>563.0</ele><time>2026-05-03T16:03:12Z</time></trkpt><trkpt lat="47.463469660974674" lon="6.939265593698238"><ele>563.0</ele><time>2026-05-03T16:03:13.999Z</time></trkpt><trkpt lat="47.463374248184785" lon="6.9391662168712624"><ele>563.0</ele><time>2026-05-03T16:03:15.999Z</time></trkpt><trkpt lat="47.46332591326323" lon="6.9390994288641"><ele>563.0</ele><time>2026-05-03T16:03:16.999Z</time></trkpt><trkpt lat="47.463285454288034" lon="6.939008513777296"><ele>563.0</ele><time>2026-05-03T16:03:17.999Z</time></trkpt><trkpt lat="47.46326184529545" lon="6.9388343451577095"><ele>563.3333333333333</ele><time>2026-05-03T16:03:20Z</time></trkpt><trkpt lat="47.463267132153966" lon="6.938726339235758"><ele>563.6666666666666</ele><time>2026-05-03T16:03:21Z</time></trkpt><trkpt lat="47.46327100618075" lon="6.938611956510051"><ele>564.0</ele><time>2026-05-03T16:03:22Z</time></trkpt><trkpt lat="47.46328411692354" lon="6.938509676427281"><ele>564.3333333333334</ele><time>2026-05-03T16:03:23Z</time></trkpt><trkpt lat="47.463283315394435" lon="6.938415949783977"><ele>564.6666666666667</ele><time>2026-05-03T16:03:24Z</time></trkpt><trkpt lat="47.46327120713714" lon="6.938245596561008"><ele>565.0</ele><time>2026-05-03T16:03:26Z</time></trkpt><trkpt lat="47.463291865604354" lon="6.938141233748526"><ele>564.1666666666667</ele><time>2026-05-03T16:03:27Z</time></trkpt><trkpt lat="47.46330404601019" lon="6.938027959130617"><ele>563.3333333333334</ele><time>2026-05-03T16:03:28Z</time></trkpt><trkpt lat="47.46332136145938" lon="6.937906582564588"><ele>562.5</ele><time>2026-05-03T16:03:30Z</time></trkpt><trkpt lat="47.46332369955562" lon="6.937791834466958"><ele>561.6666666666666</ele><time>2026-05-03T16:03:32Z</time></trkpt><trkpt lat="47.46332425385045" lon="6.937673352057272"><ele>560.8333333333333</ele><time>2026-05-03T16:03:33Z</time></trkpt><trkpt lat="47.46333056554554" lon="6.937535625650077"><ele>560.0</ele><time>2026-05-03T16:03:35Z</time></trkpt><trkpt lat="47.463401707865536" lon="6.937378881626924"><ele>559.8</ele><time>2026-05-03T16:03:37Z</time></trkpt><trkpt lat="47.46347555133151" lon="6.9372691946127265"><ele>559.6</ele><time>2026-05-03T16:03:39Z</time></trkpt><trkpt lat="47.4635898714321" lon="6.937158193705478"><ele>559.4</ele><time>2026-05-03T16:03:40Z</time></trkpt><trkpt lat="47.46361418310276" lon="6.9370669132788985"><ele>559.2</ele><time>2026-05-03T16:03:41Z</time></trkpt><trkpt lat="47.463726848162175" lon="6.936946458247207"><ele>559.0</ele><time>2026-05-03T16:03:43Z</time></trkpt><trkpt lat="47.46378775319426" lon="6.9369010221302405"><ele>559.0</ele><time>2026-05-03T16:03:44Z</time></trkpt><trkpt lat="47.46384905061901" lon="6.9368506241250465"><ele>559.0</ele><time>2026-05-03T16:03:45Z</time></trkpt><trkpt lat="47.46390802829106" lon="6.936791963044057"><ele>559.0</ele><time>2026-05-03T16:03:46Z</time></trkpt><trkpt lat="47.46396672659857" lon="6.936754148984099"><ele>559.0</ele><time>2026-05-03T16:03:47Z</time></trkpt><trkpt lat="47.46404180967347" lon="6.93678797317765"><ele>559.0</ele><time>2026-05-03T16:03:49Z</time></trkpt><trkpt lat="47.464128767703045" lon="6.936744584478705"><ele>559.0</ele><time>2026-05-03T16:03:51Z</time></trkpt><trkpt lat="47.464237549317836" lon="6.936636176168694"><ele>558.3333333333334</ele><time>2026-05-03T16:03:52Z</time></trkpt><trkpt lat="47.46430598101952" lon="6.936576109611227"><ele>557.6666666666667</ele><time>2026-05-03T16:03:53Z</time></trkpt><trkpt lat="47.46437675192033" lon="6.936519313376845"><ele>557.0</ele><time>2026-05-03T16:03:54Z</time></trkpt><trkpt lat="47.46444805409254" lon="6.936476640799157"><ele>556.3333333333334</ele><time>2026-05-03T16:03:55Z</time></trkpt><trkpt lat="47.46451597564233" lon="6.936405818774807"><ele>555.6666666666666</ele><time>2026-05-03T16:03:56Z</time></trkpt><trkpt lat="47.46460744766621" lon="6.936359260928576"><ele>555.0</ele><time>2026-05-03T16:03:57Z</time></trkpt><trkpt lat="47.46466503424388" lon="6.936317500311695"><ele>555.0</ele><time>2026-05-03T16:03:58Z</time></trkpt><trkpt lat="47.46474161911283" lon="6.936269139517813"><ele>555.0</ele><time>2026-05-03T16:03:59Z</time></trkpt><trkpt lat="47.464805739334146" lon="6.936221810395062"><ele>555.0</ele><time>2026-05-03T16:04:00Z</time></trkpt><trkpt lat="47.46488824910499" lon="6.936110329367489"><ele>555.0</ele><time>2026-05-03T16:04:02Z</time></trkpt><trkpt lat="47.46493978390483" lon="6.935944461489853"><ele>555.0</ele><time>2026-05-03T16:04:04Z</time></trkpt><trkpt lat="47.46499485174308" lon="6.935892143921041"><ele>554.5</ele><time>2026-05-03T16:04:05Z</time></trkpt><trkpt lat="47.465041832175714" lon="6.93581671030973"><ele>554.0</ele><time>2026-05-03T16:04:06Z</time></trkpt><trkpt lat="47.46508189952745" lon="6.935724708006327"><ele>553.5</ele><time>2026-05-03T16:04:07Z</time></trkpt><trkpt lat="47.46514917105139" lon="6.9356740217760695"><ele>553.0</ele><time>2026-05-03T16:04:08Z</time></trkpt><trkpt lat="47.46519278183514" lon="6.935563665042177"><ele>552.5</ele><time>2026-05-03T16:04:10Z</time></trkpt><trkpt lat="47.46517161018543" lon="6.935396645060482"><ele>552.0</ele><time>2026-05-03T16:04:12Z</time></trkpt><trkpt lat="47.46511818493643" lon="6.935271626004002"><ele>552.0</ele><time>2026-05-03T16:04:14Z</time></trkpt><trkpt lat="47.46506970724079" lon="6.935091585457806"><ele>552.0</ele><time>2026-05-03T16:04:15Z</time></trkpt><trkpt lat="47.46499218207101" lon="6.934928498730231"><ele>552.0</ele><time>2026-05-03T16:04:17Z</time></trkpt><trkpt lat="47.4649270521126" lon="6.93483575024001"><ele>552.0</ele><time>2026-05-03T16:04:18Z</time></trkpt><trkpt lat="47.46490999903818" lon="6.934727503493396"><ele>552.0</ele><time>2026-05-03T16:04:19Z</time></trkpt><trkpt lat="47.46486017801532" lon="6.934509182546123"><ele>552.0</ele><time>2026-05-03T16:04:21Z</time></trkpt><trkpt lat="47.464820309570776" lon="6.934385908997647"><ele>552.0</ele><time>2026-05-03T16:04:22Z</time></trkpt><trkpt lat="47.464762720715086" lon="6.934288297385403"><ele>552.0</ele><time>2026-05-03T16:04:23Z</time></trkpt><trkpt lat="47.46464434923358" lon="6.934287346966582"><ele>552.0</ele><time>2026-05-03T16:04:24Z</time></trkpt><trkpt lat="47.46456668666885" lon="6.934238058880345"><ele>552.0</ele><time>2026-05-03T16:04:25Z</time></trkpt><trkpt lat="47.46448618757325" lon="6.93420077708055"><ele>552.6666666666666</ele><time>2026-05-03T16:04:26Z</time></trkpt><trkpt lat="47.46442813931896" lon="6.934113495740482"><ele>553.3333333333334</ele><time>2026-05-03T16:04:27Z</time></trkpt><trkpt lat="47.46433159003767" lon="6.934115749575519"><ele>554.0</ele><time>2026-05-03T16:04:28Z</time></trkpt><trkpt lat="47.46429671124765" lon="6.934013570879504"><ele>554.6666666666667</ele><time>2026-05-03T16:04:29Z</time></trkpt><trkpt lat="47.464288089677034" lon="6.9338858193950195"><ele>555.3333333333334</ele><time>2026-05-03T16:04:31Z</time></trkpt><trkpt lat="47.46431671053086" lon="6.933790090982794"><ele>556.0</ele><time>2026-05-03T16:04:32Z</time></trkpt><trkpt lat="47.464383732385016" lon="6.933733177608321"><ele>556.0</ele><time>2026-05-03T16:04:33Z</time></trkpt><trkpt lat="47.464525105945555" lon="6.933692353882562"><ele>556.0</ele><time>2026-05-03T16:04:35Z</time></trkpt><trkpt lat="47.46461353932348" lon="6.933763758132993"><ele>556.0</ele><time>2026-05-03T16:04:36Z</time></trkpt><trkpt lat="47.46468174512933" lon="6.9337694728492085"><ele>556.0</ele><time>2026-05-03T16:04:37Z</time></trkpt><trkpt lat="47.46476057994119" lon="6.933846382437873"><ele>556.0</ele><time>2026-05-03T16:04:38Z</time></trkpt><trkpt lat="47.46482443123051" lon="6.933936299904753"><ele>555.6</ele><time>2026-05-03T16:04:39Z</time></trkpt><trkpt lat="47.4648987363229" lon="6.933998316217535"><ele>555.2</ele><time>2026-05-03T16:04:40Z</time></trkpt><trkpt lat="47.4649734108063" lon="6.934071988488841"><ele>554.8</ele><time>2026-05-03T16:04:41Z</time></trkpt><trkpt lat="47.465043992925395" lon="6.934138594000553"><ele>554.4</ele><time>2026-05-03T16:04:42Z</time></trkpt><trkpt lat="47.46513970371225" lon="6.934245617869601"><ele>554.0</ele><time>2026-05-03T16:04:43Z</time></trkpt><trkpt lat="47.465187595844895" lon="6.934330841599792"><ele>553.6</ele><time>2026-05-03T16:04:44Z</time></trkpt><trkpt lat="47.46531078527371" lon="6.934406285966055"><ele>553.2</ele><time>2026-05-03T16:04:46Z</time></trkpt><trkpt lat="47.46539432748501" lon="6.934400385863392"><ele>552.8000000000001</ele><time>2026-05-03T16:04:47Z</time></trkpt><trkpt lat="47.46545944302082" lon="6.934409466994598"><ele>552.4</ele><time>2026-05-03T16:04:48Z</time></trkpt><trkpt lat="47.465539543135755" lon="6.934371179204392"><ele>552.0</ele><time>2026-05-03T16:04:49Z</time></trkpt><trkpt lat="47.465630508375135" lon="6.934328781253557"><ele>551.8000000000001</ele><time>2026-05-03T16:04:50Z</time></trkpt><trkpt lat="47.4656307074744" lon="6.934213311812048"><ele>551.6</ele><time>2026-05-03T16:04:51Z</time></trkpt><trkpt lat="47.465713969758" lon="6.934119593728152"><ele>551.4000000000001</ele><time>2026-05-03T16:04:53Z</time></trkpt><trkpt lat="47.46585826648257" lon="6.9341031113863325"><ele>551.2</ele><time>2026-05-03T16:04:55Z</time></trkpt><trkpt lat="47.46593114797573" lon="6.934103317675006"><ele>551.0</ele><time>2026-05-03T16:04:56Z</time></trkpt><trkpt lat="47.46597442590104" lon="6.9341985667819035"><ele>551.0</ele><time>2026-05-03T16:04:57Z</time></trkpt><trkpt lat="47.4660447457003" lon="6.9341817307954745"><ele>551.0</ele><time>2026-05-03T16:04:58Z</time></trkpt><trkpt lat="47.4661924094254" lon="6.934172295073275"><ele>551.0</ele><time>2026-05-03T16:05:00Z</time></trkpt><trkpt lat="47.466300883663685" lon="6.93416486353896"><ele>551.0</ele><time>2026-05-03T16:05:01Z</time></trkpt><trkpt lat="47.466396652914185" lon="6.934171907154877"><ele>551.0</ele><time>2026-05-03T16:05:02Z</time></trkpt><trkpt lat="47.46650302834201" lon="6.934174347035722"><ele>549.8</ele><time>2026-05-03T16:05:03Z</time></trkpt><trkpt lat="47.46657492670952" lon="6.9341389306137335"><ele>548.6</ele><time>2026-05-03T16:05:04Z</time></trkpt><trkpt lat="47.466659106861336" lon="6.934136296479356"><ele>547.4</ele><time>2026-05-03T16:05:05Z</time></trkpt><trkpt lat="47.46675274939529" lon="6.9340903500158655"><ele>546.2</ele><time>2026-05-03T16:05:06Z</time></trkpt><trkpt lat="47.4668322434212" lon="6.934034137531169"><ele>545.0</ele><time>2026-05-03T16:05:07Z</time></trkpt><trkpt lat="47.466940577491044" lon="6.933965695783749"><ele>545.0</ele><time>2026-05-03T16:05:08Z</time></trkpt><trkpt lat="47.467032066935786" lon="6.933958506924694"><ele>545.0</ele><time>2026-05-03T16:05:09Z</time></trkpt><trkpt lat="47.46715436468003" lon="6.933893756877926"><ele>545.0</ele><time>2026-05-03T16:05:11Z</time></trkpt><trkpt lat="47.46723620244008" lon="6.933914716912356"><ele>545.0</ele><time>2026-05-03T16:05:12Z</time></trkpt><trkpt lat="47.46731277762484" lon="6.933917697013415"><ele>545.0</ele><time>2026-05-03T16:05:13Z</time></trkpt><trkpt lat="47.46739501828316" lon="6.933912435920279"><ele>544.8333333333333</ele><time>2026-05-03T16:05:14Z</time></trkpt><trkpt lat="47.46746451688843" lon="6.93389800167006"><ele>544.6666666666666</ele><time>2026-05-03T16:05:15Z</time></trkpt><trkpt lat="47.467529540544476" lon="6.933903002882688"><ele>544.5</ele><time>2026-05-03T16:05:16Z</time></trkpt><trkpt lat="47.46759378620961" lon="6.933901590090044"><ele>544.3333333333334</ele><time>2026-05-03T16:05:17Z</time></trkpt><trkpt lat="47.46771487529849" lon="6.93393549238165"><ele>544.1666666666667</ele><time>2026-05-03T16:05:19Z</time></trkpt><trkpt lat="47.46779812347618" lon="6.933906745986866"><ele>544.0</ele><time>2026-05-03T16:05:20Z</time></trkpt><trkpt lat="47.467894326297454" lon="6.933856978699882"><ele>542.25</ele><time>2026-05-03T16:05:22Z</time></trkpt><trkpt lat="47.46795908763553" lon="6.933849117684114"><ele>540.5</ele><time>2026-05-03T16:05:23Z</time></trkpt><trkpt lat="47.468072876022255" lon="6.933858922200349"><ele>538.75</ele><time>2026-05-03T16:05:24Z</time></trkpt><trkpt lat="47.468213906579656" lon="6.933889570210796"><ele>537.0</ele><time>2026-05-03T16:05:26Z</time></trkpt><trkpt lat="47.46834442994944" lon="6.933934584805473"><ele>537.0</ele><time>2026-05-03T16:05:28Z</time></trkpt><trkpt lat="47.46843233770169" lon="6.9339584081837735"><ele>537.0</ele><time>2026-05-03T16:05:29Z</time></trkpt><trkpt lat="47.46860062770768" lon="6.934013303310134"><ele>537.0</ele><time>2026-05-03T16:05:30Z</time></trkpt><trkpt lat="47.46872030499931" lon="6.934026935089288"><ele>537.0</ele><time>2026-05-03T16:05:31Z</time></trkpt><trkpt lat="47.468837933528654" lon="6.933971815215162"><ele>536.5</ele><time>2026-05-03T16:05:32Z</time></trkpt><trkpt lat="47.46898238531366" lon="6.933942365637196"><ele>536.0</ele><time>2026-05-03T16:05:33Z</time></trkpt><trkpt lat="47.46910076320408" lon="6.933884602452019"><ele>535.5</ele><time>2026-05-03T16:05:34Z</time></trkpt><trkpt lat="47.469208161794754" lon="6.933799097666131"><ele>535.0</ele><time>2026-05-03T16:05:35Z</time></trkpt><trkpt lat="47.46929079424474" lon="6.93379002872314"><ele>535.0</ele><time>2026-05-03T16:05:36Z</time></trkpt><trkpt lat="47.46937935545496" lon="6.933741993353335"><ele>535.0</ele><time>2026-05-03T16:05:37Z</time></trkpt><trkpt lat="47.469476879860906" lon="6.933712753340572"><ele>535.0</ele><time>2026-05-03T16:05:38Z</time></trkpt><trkpt lat="47.46958132196668" lon="6.933704632866765"><ele>535.0</ele><time>2026-05-03T16:05:39Z</time></trkpt><trkpt lat="47.469671387337975" lon="6.933685294058914"><ele>535.0</ele><time>2026-05-03T16:05:40Z</time></trkpt><trkpt lat="47.46978530168061" lon="6.933697123883124"><ele>531.75</ele><time>2026-05-03T16:05:41Z</time></trkpt><trkpt lat="47.46990407794848" lon="6.933496754239933"><ele>528.5</ele><time>2026-05-03T16:05:42Z</time></trkpt><trkpt lat="47.470030233693294" lon="6.933483697444819"><ele>525.25</ele><time>2026-05-03T16:05:43Z</time></trkpt><trkpt lat="47.47016130948806" lon="6.933493793101736"><ele>522.0</ele><time>2026-05-03T16:05:44Z</time></trkpt><trkpt lat="47.47029345594445" lon="6.933477540106223"><ele>522.0</ele><time>2026-05-03T16:05:45Z</time></trkpt><trkpt lat="47.47038750341672" lon="6.933484944511448"><ele>522.0</ele><time>2026-05-03T16:05:46Z</time></trkpt><trkpt lat="47.47046848550677" lon="6.93349263388678"><ele>522.0</ele><time>2026-05-03T16:05:47Z</time></trkpt><trkpt lat="47.47055180921785" lon="6.933492164233031"><ele>522.0</ele><time>2026-05-03T16:05:48Z</time></trkpt><trkpt lat="47.47064952635283" lon="6.933479828359399"><ele>522.0</ele><time>2026-05-03T16:05:49Z</time></trkpt><trkpt lat="47.47071300738317" lon="6.9335033255479015"><ele>522.0</ele><time>2026-05-03T16:05:51Z</time></trkpt><trkpt lat="47.47078584571404" lon="6.933488339330438"><ele>523.8000000000001</ele><time>2026-05-03T16:05:53Z</time></trkpt><trkpt lat="47.47080458717777" lon="6.933380071592867"><ele>525.6</ele><time>2026-05-03T16:05:54Z</time></trkpt><trkpt lat="47.47072689868575" lon="6.9333236023628135"><ele>527.4000000000001</ele><time>2026-05-03T16:05:55Z</time></trkpt><trkpt lat="47.47063291156054" lon="6.933232927061212"><ele>529.2</ele><time>2026-05-03T16:05:57Z</time></trkpt><trkpt lat="47.4705184242748" lon="6.933201947061172"><ele>531.0</ele><time>2026-05-03T16:05:58Z</time></trkpt><trkpt lat="47.47039564912833" lon="6.933083979091152"><ele>531.0</ele><time>2026-05-03T16:06:00Z</time></trkpt><trkpt lat="47.47031252573838" lon="6.9330142913354935"><ele>531.0</ele><time>2026-05-03T16:06:01Z</time></trkpt><trkpt lat="47.47026842398421" lon="6.932911778677339"><ele>531.0</ele><time>2026-05-03T16:06:02Z</time></trkpt><trkpt lat="47.47022406229674" lon="6.932806548841925"><ele>531.0</ele><time>2026-05-03T16:06:03Z</time></trkpt><trkpt lat="47.47016596266436" lon="6.932673500219607"><ele>531.0</ele><time>2026-05-03T16:06:04Z</time></trkpt><trkpt lat="47.4701139583893" lon="6.932543654725822"><ele>532.8</ele><time>2026-05-03T16:06:05Z</time></trkpt><trkpt lat="47.47004761316681" lon="6.932469470487155"><ele>534.6</ele><time>2026-05-03T16:06:06Z</time></trkpt><trkpt lat="47.46997138835526" lon="6.932358888575362"><ele>536.4</ele><time>2026-05-03T16:06:07Z</time></trkpt><trkpt lat="47.46990670940791" lon="6.9322669497457"><ele>538.2</ele><time>2026-05-03T16:06:08Z</time></trkpt><trkpt lat="47.46985289731231" lon="6.932176109278563"><ele>540.0</ele><time>2026-05-03T16:06:09Z</time></trkpt><trkpt lat="47.46978153054644" lon="6.932037672664775"><ele>540.0</ele><time>2026-05-03T16:06:10Z</time></trkpt><trkpt lat="47.46973448266871" lon="6.931916088819773"><ele>540.0</ele><time>2026-05-03T16:06:11Z</time></trkpt><trkpt lat="47.469705731589535" lon="6.931793493119021"><ele>540.0</ele><time>2026-05-03T16:06:12Z</time></trkpt><trkpt lat="47.469700217818" lon="6.931667087991287"><ele>540.0</ele><time>2026-05-03T16:06:13Z</time></trkpt><trkpt lat="47.469730157554814" lon="6.931547378593398"><ele>540.0</ele><time>2026-05-03T16:06:14Z</time></trkpt><trkpt lat="47.46971887564437" lon="6.931366580865535"><ele>541.4</ele><time>2026-05-03T16:06:33Z</time></trkpt><trkpt lat="47.469751837391286" lon="6.9312658540437795"><ele>542.8</ele><time>2026-05-03T16:06:34Z</time></trkpt><trkpt lat="47.46974675666291" lon="6.931167393122416"><ele>544.2</ele><time>2026-05-03T16:06:35Z</time></trkpt><trkpt lat="47.46977875326359" lon="6.931044084010016"><ele>545.6</ele><time>2026-05-03T16:06:36Z</time></trkpt><trkpt lat="47.46982254345869" lon="6.93076660431186"><ele>547.0</ele><time>2026-05-03T16:06:37Z</time></trkpt><trkpt lat="47.4699257768664" lon="6.930452042964216"><ele>548.6</ele><time>2026-05-03T16:06:38Z</time></trkpt><trkpt lat="47.469938759256124" lon="6.930306365596606"><ele>550.2</ele><time>2026-05-03T16:06:39Z</time></trkpt><trkpt lat="47.46995068734207" lon="6.930073813379243"><ele>551.8</ele><time>2026-05-03T16:06:40Z</time></trkpt><trkpt lat="47.469971003576624" lon="6.929931023095903"><ele>553.4</ele><time>2026-05-03T16:06:41Z</time></trkpt><trkpt lat="47.469983192711325" lon="6.929819942975421"><ele>555.0</ele><time>2026-05-03T16:06:42Z</time></trkpt><trkpt lat="47.469993566722856" lon="6.929720866573173"><ele>555.5</ele><time>2026-05-03T16:06:43Z</time></trkpt><trkpt lat="47.47000711318513" lon="6.929593676669586"><ele>556.0</ele><time>2026-05-03T16:06:44Z</time></trkpt><trkpt lat="47.47004492967063" lon="6.929514975697391"><ele>556.5</ele><time>2026-05-03T16:06:47Z</time></trkpt><trkpt lat="47.4701339804689" lon="6.929528565066"><ele>557.0</ele><time>2026-05-03T16:06:50Z</time></trkpt><trkpt lat="47.47019318173744" lon="6.929568110763354"><ele>557.5</ele><time>2026-05-03T16:06:51Z</time></trkpt><trkpt lat="47.47025262496913" lon="6.929600420920374"><ele>558.0</ele><time>2026-05-03T16:06:52Z</time></trkpt><trkpt lat="47.47033713655047" lon="6.929656257276566"><ele>558.0</ele><time>2026-05-03T16:06:53Z</time></trkpt><trkpt lat="47.47042965854137" lon="6.92970922860477"><ele>558.0</ele><time>2026-05-03T16:06:54Z</time></trkpt><trkpt lat="47.47051279835096" lon="6.929763207389807"><ele>558.0</ele><time>2026-05-03T16:06:55Z</time></trkpt><trkpt lat="47.47058217770544" lon="6.929813287440393"><ele>558.0</ele><time>2026-05-03T16:06:56Z</time></trkpt><trkpt lat="47.47064012586918" lon="6.929866624337642"><ele>558.0</ele><time>2026-05-03T16:06:57Z</time></trkpt><trkpt lat="47.47069257173246" lon="6.929920295690347"><ele>558.0</ele><time>2026-05-03T16:06:58Z</time></trkpt><trkpt lat="47.47075732319399" lon="6.92976888500812"><ele>558.6</ele><time>2026-05-03T16:07:01Z</time></trkpt><trkpt lat="47.47074722256248" lon="6.929639536816671"><ele>559.1999999999999</ele><time>2026-05-03T16:07:03Z</time></trkpt><trkpt lat="47.470732716985864" lon="6.9295251671586735"><ele>559.8</ele><time>2026-05-03T16:07:05Z</time></trkpt><trkpt lat="47.47073247380282" lon="6.929361645290201"><ele>560.4</ele><time>2026-05-03T16:07:07Z</time></trkpt><trkpt lat="47.470733964634086" lon="6.929259572668202"><ele>561.0</ele><time>2026-05-03T16:07:09Z</time></trkpt><trkpt lat="47.47071311043843" lon="6.929108448292409"><ele>561.0</ele><time>2026-05-03T16:07:11Z</time></trkpt><trkpt lat="47.47069347837039" lon="6.928913889871475"><ele>561.0</ele><time>2026-05-03T16:07:13Z</time></trkpt><trkpt lat="47.470677437722024" lon="6.928743763939164"><ele>561.0</ele><time>2026-05-03T16:07:15Z</time></trkpt><trkpt lat="47.47068599638201" lon="6.928644258939432"><ele>561.0</ele><time>2026-05-03T16:07:16Z</time></trkpt><trkpt lat="47.47067953932839" lon="6.9284797860391025"><ele>561.0</ele><time>2026-05-03T16:07:18Z</time></trkpt><trkpt lat="47.470640096106706" lon="6.928338063030281"><ele>560.5</ele><time>2026-05-03T16:07:20Z</time></trkpt><trkpt lat="47.470597667889045" lon="6.928204883362838"><ele>560.0</ele><time>2026-05-03T16:07:22Z</time></trkpt><trkpt lat="47.47059420892826" lon="6.928097277319767"><ele>559.5</ele><time>2026-05-03T16:07:24Z</time></trkpt><trkpt lat="47.47058016602418" lon="6.927970101359586"><ele>559.0</ele><time>2026-05-03T16:07:26Z</time></trkpt><trkpt lat="47.47060897008333" lon="6.927863720834819"><ele>558.5</ele><time>2026-05-03T16:07:29Z</time></trkpt><trkpt lat="47.47061141081176" lon="6.92798108756014"><ele>558.0</ele><time>2026-05-03T16:15:30Z</time></trkpt><trkpt lat="47.47061602111355" lon="6.92814018989461"><ele>558.0</ele><time>2026-05-03T16:15:32Z</time></trkpt><trkpt lat="47.470646502964186" lon="6.928290358482221"><ele>558.0</ele><time>2026-05-03T16:15:34Z</time></trkpt><trkpt lat="47.47067848162701" lon="6.928403800589899"><ele>558.0</ele><time>2026-05-03T16:15:36Z</time></trkpt><trkpt lat="47.47070973097103" lon="6.928487115020714"><ele>558.0</ele><time>2026-05-03T16:15:37Z</time></trkpt><trkpt lat="47.47072957191074" lon="6.928667150432073"><ele>558.0</ele><time>2026-05-03T16:15:39Z</time></trkpt><trkpt lat="47.470739852279955" lon="6.928764035357241"><ele>558.0</ele><time>2026-05-03T16:15:40Z</time></trkpt><trkpt lat="47.47075669476976" lon="6.928937660482961"><ele>558.5</ele><time>2026-05-03T16:15:42Z</time></trkpt><trkpt lat="47.47076625086826" lon="6.929058122419822"><ele>559.0</ele><time>2026-05-03T16:15:44Z</time></trkpt><trkpt lat="47.47077395068159" lon="6.92919575012288"><ele>559.5</ele><time>2026-05-03T16:15:46Z</time></trkpt><trkpt lat="47.470782445661456" lon="6.9293357549372745"><ele>560.0</ele><time>2026-05-03T16:15:48Z</time></trkpt><trkpt lat="47.470802287800225" lon="6.929442451615036"><ele>560.5</ele><time>2026-05-03T16:15:52Z</time></trkpt><trkpt lat="47.47079023075647" lon="6.929566439340804"><ele>561.0</ele><time>2026-05-03T16:15:54Z</time></trkpt><trkpt lat="47.470863470144025" lon="6.92964937921165"><ele>561.0</ele><time>2026-05-03T16:15:56Z</time></trkpt><trkpt lat="47.47092990877484" lon="6.929633447528367"><ele>561.0</ele><time>2026-05-03T16:15:58Z</time></trkpt><trkpt lat="47.4709046793" lon="6.92954694347486"><ele>561.0</ele><time>2026-05-03T16:15:59Z</time></trkpt><trkpt lat="47.4708918113585" lon="6.929436920680498"><ele>561.0</ele><time>2026-05-03T16:16:02Z</time></trkpt><trkpt lat="47.47089028212064" lon="6.929294433276219"><ele>561.0</ele><time>2026-05-03T16:16:04Z</time></trkpt><trkpt lat="47.47088545049335" lon="6.929179275001295"><ele>561.0</ele><time>2026-05-03T16:16:06Z</time></trkpt><trkpt lat="47.47087516147926" lon="6.929034752281691"><ele>561.0</ele><time>2026-05-03T16:16:09Z</time></trkpt><trkpt lat="47.47085369098896" lon="6.928904457567902"><ele>561.0</ele><time>2026-05-03T16:16:11Z</time></trkpt><trkpt lat="47.47079550763294" lon="6.928803481527996"><ele>561.0</ele><time>2026-05-03T16:16:15Z</time></trkpt><trkpt lat="47.470747196689324" lon="6.92889219638238"><ele>561.0</ele><time>2026-05-03T16:16:20Z</time></trkpt><trkpt lat="47.470745886328444" lon="6.9290408702396755"><ele>561.0</ele><time>2026-05-03T16:16:22Z</time></trkpt><trkpt lat="47.470734217352025" lon="6.929143209500404"><ele>561.0</ele><time>2026-05-03T16:16:24Z</time></trkpt><trkpt lat="47.4707332765009" lon="6.92924868716174"><ele>561.0</ele><time>2026-05-03T16:16:26Z</time></trkpt><trkpt lat="47.47073067239427" lon="6.929393735272138"><ele>561.0</ele><time>2026-05-03T16:16:29Z</time></trkpt><trkpt lat="47.47070830753693" lon="6.9295321457602075"><ele>561.0</ele><time>2026-05-03T16:16:31Z</time></trkpt><trkpt lat="47.47071802266734" lon="6.929650656641755"><ele>561.0</ele><time>2026-05-03T16:16:33Z</time></trkpt><trkpt lat="47.470781141258776" lon="6.929691127986159"><ele>561.0</ele><time>2026-05-03T16:16:35Z</time></trkpt><trkpt lat="47.4708478833498" lon="6.929629516366176"><ele>561.0</ele><time>2026-05-03T16:16:37Z</time></trkpt><trkpt lat="47.470873879048746" lon="6.929536920313127"><ele>561.0</ele><time>2026-05-03T16:16:39Z</time></trkpt><trkpt lat="47.47086404239636" lon="6.929440547487047"><ele>561.0</ele><time>2026-05-03T16:16:41Z</time></trkpt><trkpt lat="47.47082907144723" lon="6.929317716437538"><ele>561.0</ele><time>2026-05-03T16:16:43Z</time></trkpt><trkpt lat="47.470798566976605" lon="6.92918596887418"><ele>561.0</ele><time>2026-05-03T16:16:45Z</time></trkpt><trkpt lat="47.47076281057437" lon="6.929063794907474"><ele>561.0</ele><time>2026-05-03T16:16:47Z</time></trkpt><trkpt lat="47.47071226740815" lon="6.928896715531932"><ele>561.0</ele><time>2026-05-03T16:16:49Z</time></trkpt><trkpt lat="47.470676777886204" lon="6.928785625067832"><ele>561.0</ele><time>2026-05-03T16:16:51Z</time></trkpt><trkpt lat="47.47062554495294" lon="6.928625054269905"><ele>561.0</ele><time>2026-05-03T16:16:54Z</time></trkpt><trkpt lat="47.47059408799761" lon="6.928530851694458"><ele>561.0</ele><time>2026-05-03T16:16:56Z</time></trkpt><trkpt lat="47.470552702893436" lon="6.928418459373557"><ele>561.0</ele><time>2026-05-03T16:16:58Z</time></trkpt><trkpt lat="47.47052855995928" lon="6.928289657987956"><ele>561.0</ele><time>2026-05-03T16:17:00Z</time></trkpt><trkpt lat="47.47061859018388" lon="6.928219371719695"><ele>561.0</ele><time>2026-05-03T16:17:03Z</time></trkpt><trkpt lat="47.47066984932993" lon="6.928298822511483"><ele>561.0</ele><time>2026-05-03T16:17:05Z</time></trkpt><trkpt lat="47.47067168295355" lon="6.928416538381857"><ele>561.0</ele><time>2026-05-03T16:17:07Z</time></trkpt><trkpt lat="47.470665065505294" lon="6.928552272942466"><ele>561.0</ele><time>2026-05-03T16:17:09Z</time></trkpt><trkpt lat="47.470674997321915" lon="6.928697755853063"><ele>561.0</ele><time>2026-05-03T16:17:11Z</time></trkpt><trkpt lat="47.470672302469765" lon="6.928814301639651"><ele>561.0</ele><time>2026-05-03T16:17:13Z</time></trkpt><trkpt lat="47.470697562055626" lon="6.928925063942913"><ele>561.0</ele><time>2026-05-03T16:17:15Z</time></trkpt><trkpt lat="47.47069636538069" lon="6.929020302197839"><ele>561.0</ele><time>2026-05-03T16:17:16Z</time></trkpt><trkpt lat="47.47071436029752" lon="6.929169620646117"><ele>561.0</ele><time>2026-05-03T16:17:18Z</time></trkpt><trkpt lat="47.47071988095422" lon="6.929263024102066"><ele>561.0</ele><time>2026-05-03T16:17:20Z</time></trkpt><trkpt lat="47.47070722178801" lon="6.929420054266452"><ele>561.0</ele><time>2026-05-03T16:17:22Z</time></trkpt><trkpt lat="47.47069723946687" lon="6.9295923699677555"><ele>561.0</ele><time>2026-05-03T16:17:24Z</time></trkpt><trkpt lat="47.4707159927721" lon="6.929694363819116"><ele>561.0</ele><time>2026-05-03T16:17:26Z</time></trkpt><trkpt lat="47.47080417026775" lon="6.9296391756789655"><ele>561.0</ele><time>2026-05-03T16:17:28Z</time></trkpt><trkpt lat="47.470821946509744" lon="6.929530484405965"><ele>561.0</ele><time>2026-05-03T16:17:30Z</time></trkpt><trkpt lat="47.47081260590159" lon="6.929426555315045"><ele>561.0</ele><time>2026-05-03T16:17:32Z</time></trkpt><trkpt lat="47.47078091924144" lon="6.929245131935097"><ele>561.0</ele><time>2026-05-03T16:17:34Z</time></trkpt><trkpt lat="47.47073318292818" lon="6.9291235825733075"><ele>561.0</ele><time>2026-05-03T16:17:36Z</time></trkpt><trkpt lat="47.470688142946074" lon="6.929037832427235"><ele>561.0</ele><time>2026-05-03T16:17:38Z</time></trkpt><trkpt lat="47.47065524605734" lon="6.928906856410365"><ele>561.0</ele><time>2026-05-03T16:17:40Z</time></trkpt><trkpt lat="47.47061138438863" lon="6.928801767997844"><ele>561.0</ele><time>2026-05-03T16:17:42Z</time></trkpt><trkpt lat="47.47054835700129" lon="6.928662707030433"><ele>561.0</ele><time>2026-05-03T16:17:44Z</time></trkpt><trkpt lat="47.47048286160119" lon="6.928587041535749"><ele>561.0</ele><time>2026-05-03T16:17:47Z</time></trkpt><trkpt lat="47.4704418629827" lon="6.928704753229191"><ele>561.0</ele><time>2026-05-03T16:17:49Z</time></trkpt><trkpt lat="47.470459822892046" lon="6.928801840390958"><ele>561.0</ele><time>2026-05-03T16:17:50Z</time></trkpt><trkpt lat="47.47049926738128" lon="6.928961351062079"><ele>561.0</ele><time>2026-05-03T16:17:52Z</time></trkpt><trkpt lat="47.470565950284524" lon="6.929094565485168"><ele>561.0</ele><time>2026-05-03T16:17:54Z</time></trkpt><trkpt lat="47.47062172249876" lon="6.929249614340879"><ele>561.0</ele><time>2026-05-03T16:17:56Z</time></trkpt><trkpt lat="47.470655217479546" lon="6.929338498824557"><ele>561.0</ele><time>2026-05-03T16:17:57Z</time></trkpt><trkpt lat="47.47066727397014" lon="6.929430828305148"><ele>561.0</ele><time>2026-05-03T16:17:58Z</time></trkpt><trkpt lat="47.470615988018146" lon="6.929546396953318"><ele>561.0</ele><time>2026-05-03T16:18:00Z</time></trkpt><trkpt lat="47.47052673823066" lon="6.929576673916858"><ele>561.0</ele><time>2026-05-03T16:18:02Z</time></trkpt><trkpt lat="47.47044259272931" lon="6.929593979472113"><ele>561.0</ele><time>2026-05-03T16:18:04Z</time></trkpt><trkpt lat="47.470337896852534" lon="6.929563480668494"><ele>561.0</ele><time>2026-05-03T16:18:06Z</time></trkpt><trkpt lat="47.47027002586758" lon="6.929529962558658"><ele>560.4</ele><time>2026-05-03T16:18:07Z</time></trkpt><trkpt lat="47.47015108576347" lon="6.929517971683843"><ele>559.8</ele><time>2026-05-03T16:18:09Z</time></trkpt><trkpt lat="47.47005831519961" lon="6.929533275953031"><ele>559.1999999999999</ele><time>2026-05-03T16:18:11Z</time></trkpt><trkpt lat="47.46999953177597" lon="6.929628896914491"><ele>558.6</ele><time>2026-05-03T16:18:13Z</time></trkpt><trkpt lat="47.46997601653995" lon="6.929795800302813"><ele>558.0</ele><time>2026-05-03T16:18:15Z</time></trkpt><trkpt lat="47.46996398322574" lon="6.9298903472857925"><ele>558.0</ele><time>2026-05-03T16:18:16Z</time></trkpt><trkpt lat="47.46995395245755" lon="6.929995707041694"><ele>558.0</ele><time>2026-05-03T16:18:17Z</time></trkpt><trkpt lat="47.46994054903688" lon="6.930124482297888"><ele>558.0</ele><time>2026-05-03T16:18:18Z</time></trkpt><trkpt lat="47.46991018523517" lon="6.930326043250599"><ele>558.0</ele><time>2026-05-03T16:18:20Z</time></trkpt><trkpt lat="47.469897819636756" lon="6.930496419429465"><ele>558.0</ele><time>2026-05-03T16:18:22Z</time></trkpt><trkpt lat="47.46988437250764" lon="6.930663647730738"><ele>557.4</ele><time>2026-05-03T16:18:24Z</time></trkpt><trkpt lat="47.469876952455465" lon="6.930756485189258"><ele>556.8</ele><time>2026-05-03T16:18:25Z</time></trkpt><trkpt lat="47.469861054912194" lon="6.9309368232491515"><ele>556.2</ele><time>2026-05-03T16:18:27Z</time></trkpt><trkpt lat="47.46982013021853" lon="6.931120846379662"><ele>555.6</ele><time>2026-05-03T16:18:29Z</time></trkpt><trkpt lat="47.469796206168674" lon="6.931240168284823"><ele>555.0</ele><time>2026-05-03T16:18:30Z</time></trkpt><trkpt lat="47.46973492129701" lon="6.9314490945267115"><ele>553.4</ele><time>2026-05-03T16:18:32Z</time></trkpt><trkpt lat="47.46970563416404" lon="6.931610832355012"><ele>551.8</ele><time>2026-05-03T16:18:34Z</time></trkpt><trkpt lat="47.46967996271961" lon="6.931710763369998"><ele>550.2</ele><time>2026-05-03T16:18:35Z</time></trkpt><trkpt lat="47.469692866218" lon="6.93189274372722"><ele>548.6</ele><time>2026-05-03T16:18:37Z</time></trkpt><trkpt lat="47.46970085572428" lon="6.93198600235638"><ele>547.0</ele><time>2026-05-03T16:18:38Z</time></trkpt><trkpt lat="47.46975438158415" lon="6.9320784441751"><ele>545.8333333333334</ele><time>2026-05-03T16:18:39Z</time></trkpt><trkpt lat="47.4697977251152" lon="6.932154410862107"><ele>544.6666666666667</ele><time>2026-05-03T16:18:40Z</time></trkpt><trkpt lat="47.46984136159742" lon="6.932234857640827"><ele>543.5</ele><time>2026-05-03T16:18:41Z</time></trkpt><trkpt lat="47.469891445480556" lon="6.9323142940118965"><ele>542.3333333333334</ele><time>2026-05-03T16:18:42Z</time></trkpt><trkpt lat="47.46994654247611" lon="6.932401259821424"><ele>541.1666666666666</ele><time>2026-05-03T16:18:43Z</time></trkpt><trkpt lat="47.470009883199545" lon="6.932461062762867"><ele>540.0</ele><time>2026-05-03T16:18:44Z</time></trkpt><trkpt lat="47.47008236095006" lon="6.932564573807524"><ele>538.7142857142857</ele><time>2026-05-03T16:18:45Z</time></trkpt><trkpt lat="47.4701207116643" lon="6.932651680813776"><ele>537.4285714285713</ele><time>2026-05-03T16:18:46Z</time></trkpt><trkpt lat="47.47015952915971" lon="6.932759167127553"><ele>536.1428571428571</ele><time>2026-05-03T16:18:47Z</time></trkpt><trkpt lat="47.470195213532655" lon="6.932857821135157"><ele>534.8571428571429</ele><time>2026-05-03T16:18:48Z</time></trkpt><trkpt lat="47.470228942641" lon="6.932947999296444"><ele>533.5714285714287</ele><time>2026-05-03T16:18:49Z</time></trkpt><trkpt lat="47.4702663675334" lon="6.9330331784115575"><ele>532.2857142857143</ele><time>2026-05-03T16:18:50Z</time></trkpt><trkpt lat="47.47032152511519" lon="6.933105058047463"><ele>531.0</ele><time>2026-05-03T16:18:51Z</time></trkpt><trkpt lat="47.47036221172956" lon="6.933185936193718"><ele>531.0</ele><time>2026-05-03T16:18:52Z</time></trkpt><trkpt lat="47.470428681211835" lon="6.933226672943994"><ele>531.0</ele><time>2026-05-03T16:18:53Z</time></trkpt><trkpt lat="47.47048242414691" lon="6.933290232994901"><ele>531.0</ele><time>2026-05-03T16:18:54Z</time></trkpt><trkpt lat="47.47055013333197" lon="6.933315823171559"><ele>531.0</ele><time>2026-05-03T16:18:55Z</time></trkpt><trkpt lat="47.47061503089668" lon="6.933358540344364"><ele>531.0</ele><time>2026-05-03T16:18:56Z</time></trkpt><trkpt lat="47.470701887536805" lon="6.933412310795751"><ele>531.0</ele><time>2026-05-03T16:18:57Z</time></trkpt><trkpt lat="47.47077054363355" lon="6.933453373582192"><ele>529.2</ele><time>2026-05-03T16:18:58Z</time></trkpt><trkpt lat="47.47083982001748" lon="6.933494118965065"><ele>527.4000000000001</ele><time>2026-05-03T16:18:59Z</time></trkpt><trkpt lat="47.47099018807678" lon="6.933604271843955"><ele>525.6</ele><time>2026-05-03T16:19:01Z</time></trkpt><trkpt lat="47.4710666915042" lon="6.9336417630501765"><ele>523.8000000000001</ele><time>2026-05-03T16:19:02Z</time></trkpt><trkpt lat="47.47111583661925" lon="6.933719000923817"><ele>522.0</ele><time>2026-05-03T16:19:03Z</time></trkpt><trkpt lat="47.471193143898724" lon="6.933792013457678"><ele>522.0</ele><time>2026-05-03T16:19:04Z</time></trkpt><trkpt lat="47.47124663820755" lon="6.933855538509732"><ele>522.0</ele><time>2026-05-03T16:19:05Z</time></trkpt><trkpt lat="47.47129811696393" lon="6.9339193032036714"><ele>522.0</ele><time>2026-05-03T16:19:06Z</time></trkpt><trkpt lat="47.4713672468142" lon="6.934007247799732"><ele>522.0</ele><time>2026-05-03T16:19:08Z</time></trkpt><trkpt lat="47.47141691311519" lon="6.934074687706112"><ele>522.0</ele><time>2026-05-03T16:19:09Z</time></trkpt><trkpt lat="47.4714816340573" lon="6.93418388244103"><ele>522.0</ele><time>2026-05-03T16:19:11Z</time></trkpt><trkpt lat="47.471542674435746" lon="6.934285341666301"><ele>520.3333333333334</ele><time>2026-05-03T16:19:13Z</time></trkpt><trkpt lat="47.471567057550665" lon="6.934375827399878"><ele>518.6666666666667</ele><time>2026-05-03T16:19:15Z</time></trkpt><trkpt lat="47.47159569232983" lon="6.934462815628624"><ele>517.0</ele><time>2026-05-03T16:19:18Z</time></trkpt><trkpt lat="47.47194474797594" lon="6.934485615509891"><ele>517.0</ele><time>2026-05-03T16:19:23Z</time></trkpt><trkpt lat="47.4715477409527" lon="6.934560393032874"><ele>517.0</ele><time>2026-05-03T16:19:27Z</time></trkpt><trkpt lat="47.47184686444402" lon="6.934820130526605"><ele>517.0</ele><time>2026-05-03T16:19:37Z</time></trkpt><trkpt lat="47.471893009650394" lon="6.934636913060415"><ele>517.0</ele><time>2026-05-03T16:19:39Z</time></trkpt><trkpt lat="47.471920625591615" lon="6.934478437824037"><ele>517.0</ele><time>2026-05-03T16:19:40Z</time></trkpt><trkpt lat="47.47194224625035" lon="6.934334874651922"><ele>517.0</ele><time>2026-05-03T16:19:41Z</time></trkpt><trkpt lat="47.47195534847297" lon="6.9342357582750935"><ele>517.0</ele><time>2026-05-03T16:19:42Z</time></trkpt><trkpt lat="47.47193354695055" lon="6.934086718405733"><ele>519.0</ele><time>2026-05-03T16:19:44Z</time></trkpt><trkpt lat="47.47187231320352" lon="6.933976886575136"><ele>521.0</ele><time>2026-05-03T16:19:46Z</time></trkpt><trkpt lat="47.47179634345896" lon="6.933967905652331"><ele>523.0</ele><time>2026-05-03T16:19:47Z</time></trkpt><trkpt lat="47.4717085341205" lon="6.933940256123885"><ele>525.0</ele><time>2026-05-03T16:19:48Z</time></trkpt><trkpt lat="47.47159471126309" lon="6.933901884621797"><ele>527.0</ele><time>2026-05-03T16:19:49Z</time></trkpt><trkpt lat="47.47146210423119" lon="6.9338487072238575"><ele>527.0</ele><time>2026-05-03T16:19:50Z</time></trkpt><trkpt lat="47.47133530462806" lon="6.933796260830617"><ele>527.0</ele><time>2026-05-03T16:19:51Z</time></trkpt><trkpt lat="47.471204600502574" lon="6.933720300949695"><ele>527.0</ele><time>2026-05-03T16:19:52Z</time></trkpt><trkpt lat="47.47108596840437" lon="6.933624278816263"><ele>527.0</ele><time>2026-05-03T16:19:53Z</time></trkpt><trkpt lat="47.470964315952834" lon="6.9335356011904885"><ele>525.75</ele><time>2026-05-03T16:19:54Z</time></trkpt><trkpt lat="47.470838657175484" lon="6.933475431510686"><ele>524.5</ele><time>2026-05-03T16:19:55Z</time></trkpt><trkpt lat="47.4707307819493" lon="6.933388671425406"><ele>523.25</ele><time>2026-05-03T16:19:56Z</time></trkpt><trkpt lat="47.47061389597698" lon="6.9333323980466535"><ele>522.0</ele><time>2026-05-03T16:19:57Z</time></trkpt><trkpt lat="47.47050923490777" lon="6.933229890644682"><ele>523.8000000000001</ele><time>2026-05-03T16:19:58Z</time></trkpt><trkpt lat="47.47037185580149" lon="6.933117503995675"><ele>525.6</ele><time>2026-05-03T16:19:59Z</time></trkpt><trkpt lat="47.470313939422" lon="6.933058712131593"><ele>527.4000000000001</ele><time>2026-05-03T16:20:00Z</time></trkpt><trkpt lat="47.470261082504464" lon="6.932937871288973"><ele>529.2</ele><time>2026-05-03T16:20:01Z</time></trkpt><trkpt lat="47.4702145502464" lon="6.932807011994214"><ele>531.0</ele><time>2026-05-03T16:20:02Z</time></trkpt><trkpt lat="47.47016478977059" lon="6.932670608260457"><ele>531.0</ele><time>2026-05-03T16:20:03Z</time></trkpt><trkpt lat="47.470121551456494" lon="6.932565611934742"><ele>531.0</ele><time>2026-05-03T16:20:04Z</time></trkpt><trkpt lat="47.47007567104919" lon="6.932477024723814"><ele>531.0</ele><time>2026-05-03T16:20:05Z</time></trkpt><trkpt lat="47.470011431123346" lon="6.9324143299091645"><ele>531.0</ele><time>2026-05-03T16:20:06Z</time></trkpt><trkpt lat="47.46996488606755" lon="6.932323634770567"><ele>531.0</ele><time>2026-05-03T16:20:07Z</time></trkpt><trkpt lat="47.469909206501576" lon="6.9322714176039835"><ele>531.0</ele><time>2026-05-03T16:20:08Z</time></trkpt><trkpt lat="47.469859469290775" lon="6.932184712193152"><ele>532.8</ele><time>2026-05-03T16:20:09Z</time></trkpt><trkpt lat="47.469808600691984" lon="6.9320907751586756"><ele>534.6</ele><time>2026-05-03T16:20:10Z</time></trkpt><trkpt lat="47.46973170089898" lon="6.931919412245176"><ele>536.4</ele><time>2026-05-03T16:20:12Z</time></trkpt><trkpt lat="47.469693117959736" lon="6.931803176959626"><ele>538.2</ele><time>2026-05-03T16:20:13Z</time></trkpt><trkpt lat="47.469702002948274" lon="6.931681640720829"><ele>540.0</ele><time>2026-05-03T16:20:14Z</time></trkpt><trkpt lat="47.469728758535744" lon="6.931565099563697"><ele>541.4</ele><time>2026-05-03T16:20:16Z</time></trkpt><trkpt lat="47.4697945695994" lon="6.931376948961406"><ele>542.8</ele><time>2026-05-03T16:20:18Z</time></trkpt><trkpt lat="47.469824297291176" lon="6.931271869379003"><ele>544.2</ele><time>2026-05-03T16:20:19Z</time></trkpt><trkpt lat="47.46985342594454" lon="6.931126594586733"><ele>545.6</ele><time>2026-05-03T16:20:20Z</time></trkpt><trkpt lat="47.46987646472043" lon="6.930967262922483"><ele>547.0</ele><time>2026-05-03T16:20:21Z</time></trkpt><trkpt lat="47.469892754437225" lon="6.930810406409486"><ele>548.6</ele><time>2026-05-03T16:20:22Z</time></trkpt><trkpt lat="47.46990630861793" lon="6.930664080932827"><ele>550.2</ele><time>2026-05-03T16:20:23Z</time></trkpt><trkpt lat="47.469924790475744" lon="6.930463111535583"><ele>551.8</ele><time>2026-05-03T16:20:24Z</time></trkpt><trkpt lat="47.46992448910831" lon="6.9303194448172905"><ele>553.4</ele><time>2026-05-03T16:20:25Z</time></trkpt><trkpt lat="47.46994068746091" lon="6.930205230459396"><ele>555.0</ele><time>2026-05-03T16:20:26Z</time></trkpt><trkpt lat="47.46994904109067" lon="6.930110201070834"><ele>555.6</ele><time>2026-05-03T16:20:27Z</time></trkpt><trkpt lat="47.46996027440651" lon="6.930001338712111"><ele>556.2</ele><time>2026-05-03T16:20:28Z</time></trkpt><trkpt lat="47.469978500618396" lon="6.929863473655322"><ele>556.8</ele><time>2026-05-03T16:20:30Z</time></trkpt><trkpt lat="47.46999773274362" lon="6.929692114033656"><ele>557.4</ele><time>2026-05-03T16:20:32Z</time></trkpt><trkpt lat="47.470022623804006" lon="6.92956151526004"><ele>558.0</ele><time>2026-05-03T16:20:34Z</time></trkpt><trkpt lat="47.470047610539716" lon="6.929451529937293"><ele>558.0</ele><time>2026-05-03T16:20:37Z</time></trkpt><trkpt lat="47.47015418814802" lon="6.9295402998596085"><ele>558.0</ele><time>2026-05-03T16:20:38Z</time></trkpt><trkpt lat="47.470230636666834" lon="6.929571405379188"><ele>558.0</ele><time>2026-05-03T16:20:39Z</time></trkpt><trkpt lat="47.470311023406545" lon="6.929646568088986"><ele>558.0</ele><time>2026-05-03T16:20:40Z</time></trkpt><trkpt lat="47.47040843703197" lon="6.929693088378662"><ele>558.0</ele><time>2026-05-03T16:20:41Z</time></trkpt><trkpt lat="47.47050953021362" lon="6.929766074656526"><ele>558.0</ele><time>2026-05-03T16:20:42Z</time></trkpt><trkpt lat="47.47061491130329" lon="6.929845894263149"><ele>558.0</ele><time>2026-05-03T16:20:43Z</time></trkpt><trkpt lat="47.47072850658622" lon="6.929929546527861"><ele>558.0</ele><time>2026-05-03T16:20:44Z</time></trkpt><trkpt lat="47.470857578730545" lon="6.930021485511509"><ele>558.0</ele><time>2026-05-03T16:20:45Z</time></trkpt><trkpt lat="47.4709939730187" lon="6.930120954532373"><ele>558.0</ele><time>2026-05-03T16:20:46Z</time></trkpt><trkpt lat="47.471109657271114" lon="6.930201429480316"><ele>558.0</ele><time>2026-05-03T16:20:47Z</time></trkpt><trkpt lat="47.471205127439966" lon="6.930265078440771"><ele>558.0</ele><time>2026-05-03T16:20:48Z</time></trkpt><trkpt lat="47.471286557449666" lon="6.930354347895476"><ele>558.0</ele><time>2026-05-03T16:20:49Z</time></trkpt><trkpt lat="47.471370849624584" lon="6.930416056915413"><ele>558.0</ele><time>2026-05-03T16:20:50Z</time></trkpt><trkpt lat="47.471457637047635" lon="6.930454477811448"><ele>559.8333333333334</ele><time>2026-05-03T16:20:51Z</time></trkpt><trkpt lat="47.471523339534" lon="6.930500444431978"><ele>561.6666666666666</ele><time>2026-05-03T16:20:52Z</time></trkpt><trkpt lat="47.471600849892845" lon="6.930546244632705"><ele>563.5</ele><time>2026-05-03T16:20:53Z</time></trkpt><trkpt lat="47.47167953149142" lon="6.930533964737721"><ele>565.3333333333333</ele><time>2026-05-03T16:20:54Z</time></trkpt><trkpt lat="47.471758493440134" lon="6.930554132079619"><ele>567.1666666666666</ele><time>2026-05-03T16:20:55Z</time></trkpt><trkpt lat="47.471828221183685" lon="6.930533042518337"><ele>569.0</ele><time>2026-05-03T16:20:56Z</time></trkpt><trkpt lat="47.47191258964591" lon="6.930539390206014"><ele>569.0</ele><time>2026-05-03T16:20:57Z</time></trkpt><trkpt lat="47.47201327026861" lon="6.930559193612096"><ele>569.0</ele><time>2026-05-03T16:20:58Z</time></trkpt><trkpt lat="47.47209783866677" lon="6.9305704367861996"><ele>569.0</ele><time>2026-05-03T16:20:59Z</time></trkpt><trkpt lat="47.47216637921125" lon="6.930616684300164"><ele>569.0</ele><time>2026-05-03T16:21:00Z</time></trkpt><trkpt lat="47.472238331296" lon="6.930660540389005"><ele>569.0</ele><time>2026-05-03T16:21:01Z</time></trkpt><trkpt lat="47.472330108550594" lon="6.930717833692061"><ele>569.0</ele><time>2026-05-03T16:21:02Z</time></trkpt><trkpt lat="47.472419298053744" lon="6.9307370948643205"><ele>569.2</ele><time>2026-05-03T16:21:03Z</time></trkpt><trkpt lat="47.47248871700728" lon="6.930773103833042"><ele>569.4</ele><time>2026-05-03T16:21:04Z</time></trkpt><trkpt lat="47.47255827883135" lon="6.930796475852517"><ele>569.6</ele><time>2026-05-03T16:21:05Z</time></trkpt><trkpt lat="47.472657819796424" lon="6.930839212266748"><ele>569.8</ele><time>2026-05-03T16:21:06Z</time></trkpt><trkpt lat="47.47275495615771" lon="6.930881040626588"><ele>570.0</ele><time>2026-05-03T16:21:07Z</time></trkpt><trkpt lat="47.47285872386859" lon="6.930924946662756"><ele>569.4</ele><time>2026-05-03T16:21:08Z</time></trkpt><trkpt lat="47.47296375840172" lon="6.930977034174174"><ele>568.8</ele><time>2026-05-03T16:21:09Z</time></trkpt><trkpt lat="47.473070858554955" lon="6.93101556887092"><ele>568.2</ele><time>2026-05-03T16:21:10Z</time></trkpt><trkpt lat="47.47318281651065" lon="6.93106125806139"><ele>567.6</ele><time>2026-05-03T16:21:11Z</time></trkpt><trkpt lat="47.47328418412803" lon="6.931122648371574"><ele>567.0</ele><time>2026-05-03T16:21:12Z</time></trkpt><trkpt lat="47.47338156467115" lon="6.931172513106864"><ele>567.0</ele><time>2026-05-03T16:21:13Z</time></trkpt><trkpt lat="47.47346742893654" lon="6.931188018926115"><ele>567.0</ele><time>2026-05-03T16:21:14Z</time></trkpt><trkpt lat="47.47355292554603" lon="6.931230037703006"><ele>567.0</ele><time>2026-05-03T16:21:15Z</time></trkpt><trkpt lat="47.47365184715391" lon="6.931264942253582"><ele>567.0</ele><time>2026-05-03T16:21:16Z</time></trkpt><trkpt lat="47.47372984139598" lon="6.931252806727205"><ele>567.0</ele><time>2026-05-03T16:21:17Z</time></trkpt><trkpt lat="47.473819620114185" lon="6.931314180847383"><ele>567.1666666666666</ele><time>2026-05-03T16:21:18Z</time></trkpt><trkpt lat="47.47390011678479" lon="6.931312760792912"><ele>567.3333333333334</ele><time>2026-05-03T16:21:19Z</time></trkpt><trkpt lat="47.47396009267419" lon="6.9313694989837105"><ele>567.5</ele><time>2026-05-03T16:21:20Z</time></trkpt><trkpt lat="47.47404120110736" lon="6.931416990653484"><ele>567.6666666666667</ele><time>2026-05-03T16:21:21Z</time></trkpt><trkpt lat="47.47410244294509" lon="6.931455056883387"><ele>567.8333333333334</ele><time>2026-05-03T16:21:22Z</time></trkpt><trkpt lat="47.474161229292896" lon="6.9315101798340395"><ele>568.0</ele><time>2026-05-03T16:21:23Z</time></trkpt><trkpt lat="47.47425006449797" lon="6.931596331331638"><ele>568.0</ele><time>2026-05-03T16:21:25Z</time></trkpt><trkpt lat="47.47436785306782" lon="6.931645479161048"><ele>568.0</ele><time>2026-05-03T16:21:27Z</time></trkpt><trkpt lat="47.47443766793186" lon="6.9316723942885865"><ele>568.0</ele><time>2026-05-03T16:21:29Z</time></trkpt><trkpt lat="47.474516030224855" lon="6.931684114275147"><ele>568.0</ele><time>2026-05-03T16:21:30Z</time></trkpt><trkpt lat="47.47457729596374" lon="6.931630931912763"><ele>568.0</ele><time>2026-05-03T16:21:31Z</time></trkpt><trkpt lat="47.47462677573923" lon="6.9315372233400225"><ele>568.0</ele><time>2026-05-03T16:21:32Z</time></trkpt><trkpt lat="47.47472793476314" lon="6.931494451049201"><ele>568.1999999999999</ele><time>2026-05-03T16:21:34Z</time></trkpt><trkpt lat="47.47480069819594" lon="6.931489810603064"><ele>568.4</ele><time>2026-05-03T16:21:35Z</time></trkpt><trkpt lat="47.47484622727128" lon="6.931411856988416"><ele>568.5999999999999</ele><time>2026-05-03T16:21:36Z</time></trkpt><trkpt lat="47.47494138104938" lon="6.931336278405666"><ele>568.8</ele><time>2026-05-03T16:21:38Z</time></trkpt><trkpt lat="47.475002069985926" lon="6.931180573207238"><ele>569.0</ele><time>2026-05-03T16:21:40Z</time></trkpt><trkpt lat="47.47506628812206" lon="6.931099860525815"><ele>569.0</ele><time>2026-05-03T16:21:42Z</time></trkpt><trkpt lat="47.47507116138467" lon="6.930943989549955"><ele>569.0</ele><time>2026-05-03T16:21:44Z</time></trkpt><trkpt lat="47.475099243740665" lon="6.930817535515515"><ele>569.0</ele><time>2026-05-03T16:21:46Z</time></trkpt><trkpt lat="47.47509825660585" lon="6.930649294489651"><ele>569.0</ele><time>2026-05-03T16:21:48Z</time></trkpt><trkpt lat="47.475130565455245" lon="6.9304938897274475"><ele>569.0</ele><time>2026-05-03T16:21:50Z</time></trkpt><trkpt lat="47.47511500646592" lon="6.9303967733959455"><ele>570.6</ele><time>2026-05-03T16:21:51Z</time></trkpt><trkpt lat="47.475088649077186" lon="6.9302203751413805"><ele>572.2</ele><time>2026-05-03T16:21:53Z</time></trkpt><trkpt lat="47.47512344893786" lon="6.930060434524595"><ele>573.8000000000001</ele><time>2026-05-03T16:21:55Z</time></trkpt><trkpt lat="47.47517559626987" lon="6.929993432719962"><ele>575.4</ele><time>2026-05-03T16:21:57Z</time></trkpt><trkpt lat="47.47522541040847" lon="6.930051565584564"><ele>577.0</ele><time>2026-05-03T16:21:58Z</time></trkpt><trkpt lat="47.47531610486824" lon="6.9300360307272895"><ele>575.5</ele><time>2026-05-03T16:21:59Z</time></trkpt><trkpt lat="47.47544159485831" lon="6.929992782912728"><ele>574.0</ele><time>2026-05-03T16:22:01Z</time></trkpt><trkpt lat="47.47553412230213" lon="6.930005051712264"><ele>572.5</ele><time>2026-05-03T16:22:02Z</time></trkpt><trkpt lat="47.47560000150764" lon="6.92999590657895"><ele>571.0</ele><time>2026-05-03T16:22:03Z</time></trkpt><trkpt lat="47.47567547796822" lon="6.929989173038088"><ele>569.5</ele><time>2026-05-03T16:22:04Z</time></trkpt><trkpt lat="47.47574730164693" lon="6.929998132548384"><ele>568.0</ele><time>2026-05-03T16:22:05Z</time></trkpt><trkpt lat="47.47585611517618" lon="6.9300295227866"><ele>568.0</ele><time>2026-05-03T16:22:07Z</time></trkpt><trkpt lat="47.47596674105857" lon="6.930015319318619"><ele>568.0</ele><time>2026-05-03T16:22:09Z</time></trkpt><trkpt lat="47.47603892249163" lon="6.930020320732662"><ele>568.0</ele><time>2026-05-03T16:22:10Z</time></trkpt><trkpt lat="47.47612794293827" lon="6.930078168483928"><ele>568.0</ele><time>2026-05-03T16:22:13Z</time></trkpt><trkpt lat="47.4762508852514" lon="6.930084758465782"><ele>568.0</ele><time>2026-05-03T16:22:15Z</time></trkpt><trkpt lat="47.476328885090396" lon="6.9301102426190635"><ele>566.3333333333334</ele><time>2026-05-03T16:22:16Z</time></trkpt><trkpt lat="47.476396795458314" lon="6.930147525314861"><ele>564.6666666666667</ele><time>2026-05-03T16:22:17Z</time></trkpt><trkpt lat="47.47648640645492" lon="6.930165487792284"><ele>563.0</ele><time>2026-05-03T16:22:19Z</time></trkpt><trkpt lat="47.476587354373834" lon="6.930153582985391"><ele>561.3333333333334</ele><time>2026-05-03T16:22:21Z</time></trkpt><trkpt lat="47.476692004798196" lon="6.930165111034674"><ele>559.6666666666666</ele><time>2026-05-03T16:22:23Z</time></trkpt><trkpt lat="47.476770276672326" lon="6.9301711506176975"><ele>558.0</ele><time>2026-05-03T16:22:24Z</time></trkpt><trkpt lat="47.47684169097261" lon="6.930181026501868"><ele>558.0</ele><time>2026-05-03T16:22:25Z</time></trkpt><trkpt lat="47.476941948149694" lon="6.930216772865644"><ele>558.0</ele><time>2026-05-03T16:22:27Z</time></trkpt><trkpt lat="47.47701163835455" lon="6.930216819548917"><ele>558.0</ele><time>2026-05-03T16:22:28Z</time></trkpt><trkpt lat="47.477123801537715" lon="6.930226304107382"><ele>558.0</ele><time>2026-05-03T16:22:30Z</time></trkpt><trkpt lat="47.477200219581654" lon="6.930250961346643"><ele>558.0</ele><time>2026-05-03T16:22:31Z</time></trkpt><trkpt lat="47.477315947544085" lon="6.930236224123252"><ele>555.1999999999999</ele><time>2026-05-03T16:22:33Z</time></trkpt><trkpt lat="47.47742391018073" lon="6.9302716440405145"><ele>552.4</ele><time>2026-05-03T16:22:35Z</time></trkpt><trkpt lat="47.47750822127816" lon="6.930331970608727"><ele>549.5999999999999</ele><time>2026-05-03T16:22:37Z</time></trkpt><trkpt lat="47.47760641762366" lon="6.930310297538214"><ele>546.8</ele><time>2026-05-03T16:22:39Z</time></trkpt><trkpt lat="47.47770172190733" lon="6.930327194751574"><ele>544.0</ele><time>2026-05-03T16:22:41Z</time></trkpt><trkpt lat="47.47780307485343" lon="6.930423262751522"><ele>544.0</ele><time>2026-05-03T16:22:43Z</time></trkpt><trkpt lat="47.47785636154184" lon="6.9304751247763265"><ele>544.0</ele><time>2026-05-03T16:22:44Z</time></trkpt><trkpt lat="47.47790857593845" lon="6.930550731487048"><ele>544.0</ele><time>2026-05-03T16:22:45Z</time></trkpt><trkpt lat="47.477957803623305" lon="6.930609754210016"><ele>544.0</ele><time>2026-05-03T16:22:46Z</time></trkpt><trkpt lat="47.47805327398537" lon="6.930665735741718"><ele>544.0</ele><time>2026-05-03T16:22:48Z</time></trkpt><trkpt lat="47.47815291562564" lon="6.93068499357316"><ele>544.0</ele><time>2026-05-03T16:22:50Z</time></trkpt><trkpt lat="47.47826663703721" lon="6.930661984426546"><ele>540.8</ele><time>2026-05-03T16:22:52Z</time></trkpt><trkpt lat="47.478377799331895" lon="6.930667293834766"><ele>537.5999999999999</ele><time>2026-05-03T16:22:54Z</time></trkpt><trkpt lat="47.47847216389837" lon="6.930699767926246"><ele>534.4</ele><time>2026-05-03T16:22:56Z</time></trkpt><trkpt lat="47.47858032588388" lon="6.930746958345972"><ele>531.1999999999999</ele><time>2026-05-03T16:22:58Z</time></trkpt><trkpt lat="47.47865831414622" lon="6.93076606249564"><ele>528.0</ele><time>2026-05-03T16:22:59Z</time></trkpt><trkpt lat="47.47873383358628" lon="6.93075759905447"><ele>526.0</ele><time>2026-05-03T16:23:00Z</time></trkpt><trkpt lat="47.47880976802232" lon="6.930736005860709"><ele>524.0</ele><time>2026-05-03T16:23:01Z</time></trkpt><trkpt lat="47.478876124408984" lon="6.93072929494981"><ele>522.0</ele><time>2026-05-03T16:23:02Z</time></trkpt><trkpt lat="47.47901095157239" lon="6.930685862286448"><ele>520.0</ele><time>2026-05-03T16:23:04Z</time></trkpt><trkpt lat="47.47907233130171" lon="6.930652947729403"><ele>518.0</ele><time>2026-05-03T16:23:05Z</time></trkpt><trkpt lat="47.479143822969114" lon="6.930592324657976"><ele>516.0</ele><time>2026-05-03T16:23:06Z</time></trkpt><trkpt lat="47.47921340026064" lon="6.930572360687154"><ele>516.0</ele><time>2026-05-03T16:23:07Z</time></trkpt><trkpt lat="47.47930339755994" lon="6.930562296542815"><ele>516.0</ele><time>2026-05-03T16:23:08Z</time></trkpt><trkpt lat="47.479405031199576" lon="6.93054084212754"><ele>516.0</ele><time>2026-05-03T16:23:09Z</time></trkpt><trkpt lat="47.47949462482599" lon="6.93053712704914"><ele>516.0</ele><time>2026-05-03T16:23:10Z</time></trkpt><trkpt lat="47.479579813401564" lon="6.930540072302567"><ele>516.0</ele><time>2026-05-03T16:23:11Z</time></trkpt><trkpt lat="47.47966885189415" lon="6.930574002943205"><ele>513.8333333333334</ele><time>2026-05-03T16:23:12Z</time></trkpt><trkpt lat="47.47975155065462" lon="6.930529378667551"><ele>511.66666666666663</ele><time>2026-05-03T16:23:13Z</time></trkpt><trkpt lat="47.479828291319976" lon="6.930517386462772"><ele>509.5</ele><time>2026-05-03T16:23:14Z</time></trkpt><trkpt lat="47.47989953785953" lon="6.930502870848342"><ele>507.3333333333333</ele><time>2026-05-03T16:23:15Z</time></trkpt><trkpt lat="47.47997246307238" lon="6.930496291691684"><ele>505.16666666666663</ele><time>2026-05-03T16:23:17Z</time></trkpt><trkpt lat="47.480041171891216" lon="6.9304255217613235"><ele>503.0</ele><time>2026-05-03T16:23:19Z</time></trkpt><trkpt lat="47.48014600993179" lon="6.9303112479647115"><ele>503.0</ele><time>2026-05-03T16:23:21Z</time></trkpt><trkpt lat="47.480215477697165" lon="6.930202294177145"><ele>502.99999999999994</ele><time>2026-05-03T16:23:23Z</time></trkpt><trkpt lat="47.48031179560707" lon="6.930124733474522"><ele>502.99999999999994</ele><time>2026-05-03T16:23:25Z</time></trkpt><trkpt lat="47.4803803671256" lon="6.930071955810845"><ele>503.0</ele><time>2026-05-03T16:23:27Z</time></trkpt><trkpt lat="47.480459757566344" lon="6.930016899640075"><ele>503.0</ele><time>2026-05-03T16:23:29Z</time></trkpt><trkpt lat="47.4805239090921" lon="6.9299521791334096"><ele>499.99999999999994</ele><time>2026-05-03T16:23:32Z</time></trkpt><trkpt lat="47.4805875578378" lon="6.929935306469305"><ele>497.0</ele><time>2026-05-03T16:23:34Z</time></trkpt><trkpt lat="47.48065615446797" lon="6.929903128265431"><ele>494.0</ele><time>2026-05-03T16:23:36Z</time></trkpt><trkpt lat="47.48073887326588" lon="6.929933125395111"><ele>491.0</ele><time>2026-05-03T16:23:38Z</time></trkpt><trkpt lat="47.48081620298251" lon="6.929996582121877"><ele>487.99999999999994</ele><time>2026-05-03T16:23:40Z</time></trkpt><trkpt lat="47.480914455343694" lon="6.930113313140115"><ele>485.0</ele><time>2026-05-03T16:23:42Z</time></trkpt><trkpt lat="47.48096709795939" lon="6.930171264934227"><ele>485.0</ele><time>2026-05-03T16:23:43Z</time></trkpt><trkpt lat="47.48100196963169" lon="6.930263411340218"><ele>485.0</ele><time>2026-05-03T16:23:44Z</time></trkpt><trkpt lat="47.481094180446114" lon="6.930338086519424"><ele>485.0</ele><time>2026-05-03T16:23:46Z</time></trkpt><trkpt lat="47.481149814772145" lon="6.930390656436545"><ele>485.0</ele><time>2026-05-03T16:23:47Z</time></trkpt><trkpt lat="47.481209130969965" lon="6.930539112354536"><ele>485.0</ele><time>2026-05-03T16:23:49Z</time></trkpt><trkpt lat="47.48127713469952" lon="6.930633469339939"><ele>485.0</ele><time>2026-05-03T16:23:51Z</time></trkpt><trkpt lat="47.481252254646826" lon="6.930779722218075"><ele>485.0</ele><time>2026-05-03T16:23:52Z</time></trkpt><trkpt lat="47.48134044370618" lon="6.930860124821395"><ele>485.0</ele><time>2026-05-03T16:23:54Z</time></trkpt><trkpt lat="47.481400748682795" lon="6.930805060558939"><ele>485.0</ele><time>2026-05-03T16:23:55Z</time></trkpt><trkpt lat="47.48149308402353" lon="6.930816351696157"><ele>485.0</ele><time>2026-05-03T16:23:57Z</time></trkpt><trkpt lat="47.48157993454604" lon="6.930923545983869"><ele>477.5</ele><time>2026-05-03T16:24:01Z</time></trkpt><trkpt lat="47.48169344347171" lon="6.9310143866663845"><ele>470.0</ele><time>2026-05-03T16:24:03Z</time></trkpt><trkpt lat="47.48153556958436" lon="6.930035544386684"><ele>469.99999999999994</ele><time>2026-05-03T16:24:14Z</time></trkpt><trkpt lat="47.48152987114998" lon="6.929899572604273"><ele>470.0</ele><time>2026-05-03T16:24:16Z</time></trkpt><trkpt lat="47.481521438001714" lon="6.929801354830899"><ele>470.0</ele><time>2026-05-03T16:24:18Z</time></trkpt><trkpt lat="47.4814665355977" lon="6.929739589267611"><ele>470.0</ele><time>2026-05-03T16:24:22Z</time></trkpt><trkpt lat="47.48137965066144" lon="6.9296624167241125"><ele>469.99999999999994</ele><time>2026-05-03T16:24:25Z</time></trkpt><trkpt lat="47.48127725146458" lon="6.929615367363201"><ele>470.0</ele><time>2026-05-03T16:24:27Z</time></trkpt><trkpt lat="47.48120379472712" lon="6.929553173564119"><ele>470.49999999999994</ele><time>2026-05-03T16:24:30Z</time></trkpt><trkpt lat="47.48111244587162" lon="6.929561462026471"><ele>471.0</ele><time>2026-05-03T16:24:32Z</time></trkpt><trkpt lat="47.48106073240758" lon="6.929478205735466"><ele>471.5</ele><time>2026-05-03T16:24:34Z</time></trkpt><trkpt lat="47.481024959348495" lon="6.929390772182741"><ele>472.0</ele><time>2026-05-03T16:24:36Z</time></trkpt><trkpt lat="47.4809653871527" lon="6.929303977086536"><ele>472.49999999999994</ele><time>2026-05-03T16:24:39Z</time></trkpt><trkpt lat="47.48090206524403" lon="6.9292115177321945"><ele>473.0</ele><time>2026-05-03T16:24:40Z</time></trkpt><trkpt lat="47.48083015172817" lon="6.929226586953661"><ele>474.99999999999994</ele><time>2026-05-03T16:24:41Z</time></trkpt><trkpt lat="47.48079134216363" lon="6.929313105927452"><ele>477.0</ele><time>2026-05-03T16:24:43Z</time></trkpt><trkpt lat="47.480717155254176" lon="6.929304621568108"><ele>479.0</ele><time>2026-05-03T16:24:44Z</time></trkpt><trkpt lat="47.480620025056666" lon="6.9293444123312185"><ele>481.0</ele><time>2026-05-03T16:24:46Z</time></trkpt><trkpt lat="47.48061659967765" lon="6.929475395859942"><ele>482.99999999999994</ele><time>2026-05-03T16:24:47Z</time></trkpt><trkpt lat="47.48053312071621" lon="6.929498815005395"><ele>485.0</ele><time>2026-05-03T16:24:49Z</time></trkpt><trkpt lat="47.48048026257898" lon="6.929573087843208"><ele>488.4</ele><time>2026-05-03T16:25:05Z</time></trkpt><trkpt lat="47.48039174817152" lon="6.92957645390884"><ele>491.8</ele><time>2026-05-03T16:25:09Z</time></trkpt><trkpt lat="47.48029570872042" lon="6.929527608718204"><ele>495.20000000000005</ele><time>2026-05-03T16:25:12Z</time></trkpt><trkpt lat="47.48022392228171" lon="6.929486542791549"><ele>498.6</ele><time>2026-05-03T16:25:15Z</time></trkpt><trkpt lat="47.48017271162622" lon="6.9292803688954"><ele>502.0</ele><time>2026-05-03T16:25:17Z</time></trkpt><trkpt lat="47.48008556447919" lon="6.929259134676454"><ele>502.00000000000006</ele><time>2026-05-03T16:25:19Z</time></trkpt><trkpt lat="47.480010069768944" lon="6.929283640993428"><ele>502.0</ele><time>2026-05-03T16:25:21Z</time></trkpt><trkpt lat="47.479941507436635" lon="6.929256960483894"><ele>502.0</ele><time>2026-05-03T16:25:23Z</time></trkpt><trkpt lat="47.47988484793436" lon="6.929331405095738"><ele>502.0</ele><time>2026-05-03T16:25:30Z</time></trkpt><trkpt lat="47.47986123508289" lon="6.929426413983872"><ele>502.00000000000006</ele><time>2026-05-03T16:25:42Z</time></trkpt><trkpt lat="47.47981096693862" lon="6.929332278993476"><ele>502.0</ele><time>2026-05-03T16:25:47Z</time></trkpt><trkpt lat="47.47976986245908" lon="6.92944115992603"><ele>502.0</ele><time>2026-05-03T16:26:17Z</time></trkpt><trkpt lat="47.47967531256156" lon="6.929351662345736"><ele>502.00000000000006</ele><time>2026-05-03T16:26:19.999Z</time></trkpt><trkpt lat="47.479628749960646" lon="6.929418081767914"><ele>502.00000000000006</ele><time>2026-05-03T16:26:34Z</time></trkpt><trkpt lat="47.47956874978047" lon="6.9294667405636625"><ele>502.0</ele><time>2026-05-03T16:26:39Z</time></trkpt><trkpt lat="47.47948583926699" lon="6.9294741520000915"><ele>502.0</ele><time>2026-05-03T16:26:41Z</time></trkpt><trkpt lat="47.4793269454108" lon="6.929450960152197"><ele>501.33333333333337</ele><time>2026-05-03T16:26:44Z</time></trkpt><trkpt lat="47.47923710697805" lon="6.9293879540978525"><ele>500.6666666666667</ele><time>2026-05-03T16:26:48Z</time></trkpt><trkpt lat="47.47918854095931" lon="6.9293281606139265"><ele>500.0</ele><time>2026-05-03T16:26:50Z</time></trkpt><trkpt lat="47.47914393557132" lon="6.929227934658512"><ele>499.33333333333337</ele><time>2026-05-03T16:26:53Z</time></trkpt><trkpt lat="47.47907179671164" lon="6.9291671503997545"><ele>498.6666666666667</ele><time>2026-05-03T16:26:54Z</time></trkpt><trkpt lat="47.479016343959465" lon="6.929109254186613"><ele>498.0</ele><time>2026-05-03T16:26:55Z</time></trkpt><trkpt lat="47.47891638804886" lon="6.929086551267385"><ele>498.0</ele><time>2026-05-03T16:26:57Z</time></trkpt><trkpt lat="47.478821848832226" lon="6.929074952919068"><ele>497.99999999999994</ele><time>2026-05-03T16:26:59Z</time></trkpt><trkpt lat="47.47873638220827" lon="6.929106655340526"><ele>497.99999999999994</ele><time>2026-05-03T16:27:01Z</time></trkpt><trkpt lat="47.47864950527584" lon="6.929111861434406"><ele>498.0</ele><time>2026-05-03T16:27:03Z</time></trkpt><trkpt lat="47.47855062627472" lon="6.929122027757976"><ele>498.0</ele><time>2026-05-03T16:27:05Z</time></trkpt><trkpt lat="47.47847606675298" lon="6.929063524138785"><ele>501.3333333333333</ele><time>2026-05-03T16:27:07Z</time></trkpt><trkpt lat="47.4783947201567" lon="6.929057235074409"><ele>504.66666666666663</ele><time>2026-05-03T16:27:08Z</time></trkpt><trkpt lat="47.4782728268741" lon="6.929037820766751"><ele>508.0</ele><time>2026-05-03T16:27:10Z</time></trkpt><trkpt lat="47.47818995851262" lon="6.929035015983153"><ele>511.3333333333333</ele><time>2026-05-03T16:27:11Z</time></trkpt><trkpt lat="47.47816353155355" lon="6.928941118866395"><ele>514.6666666666666</ele><time>2026-05-03T16:27:17Z</time></trkpt><trkpt lat="47.47815322690045" lon="6.928846600094716"><ele>518.0</ele><time>2026-05-03T16:27:23Z</time></trkpt><trkpt lat="47.478153020946934" lon="6.928982522475101"><ele>518.0</ele><time>2026-05-03T16:27:46Z</time></trkpt><trkpt lat="47.478214748576065" lon="6.929022812638265"><ele>518.0</ele><time>2026-05-03T16:28:10Z</time></trkpt><trkpt lat="47.47817450005949" lon="6.928926577997094"><ele>518.0</ele><time>2026-05-03T16:28:45Z</time></trkpt><trkpt lat="47.47813156174664" lon="6.928841386721292"><ele>518.0</ele><time>2026-05-03T16:29:01Z</time></trkpt><trkpt lat="47.478074573577224" lon="6.928891068459909"><ele>518.0</ele><time>2026-05-03T16:29:39Z</time></trkpt><trkpt lat="47.478103108931634" lon="6.928977209062721"><ele>518.0</ele><time>2026-05-03T16:29:57Z</time></trkpt><trkpt lat="47.47804342038288" lon="6.928920525928199"><ele>518.0</ele><time>2026-05-03T16:30:06Z</time></trkpt><trkpt lat="47.478091076313675" lon="6.928997484608284"><ele>518.0</ele><time>2026-05-03T16:30:12Z</time></trkpt><trkpt lat="47.478064967396406" lon="6.929158497989334"><ele>518.0</ele><time>2026-05-03T16:30:33.999Z</time></trkpt><trkpt lat="47.47808103394761" lon="6.929285829931216"><ele>518.0</ele><time>2026-05-03T16:30:36.999Z</time></trkpt><trkpt lat="47.478131510664944" lon="6.929396877392313"><ele>518.0</ele><time>2026-05-03T16:30:38.999Z</time></trkpt><trkpt lat="47.47821495402575" lon="6.929518404851052"><ele>518.0</ele><time>2026-05-03T16:30:40.999Z</time></trkpt><trkpt lat="47.47829249345711" lon="6.9296715444777774"><ele>520.0</ele><time>2026-05-03T16:30:42.999Z</time></trkpt><trkpt lat="47.47834890073132" lon="6.929793003630779"><ele>522.0</ele><time>2026-05-03T16:30:44.999Z</time></trkpt><trkpt lat="47.4783645031079" lon="6.929948141331185"><ele>524.0</ele><time>2026-05-03T16:30:46.999Z</time></trkpt><trkpt lat="47.47834983185458" lon="6.930076054917205"><ele>526.0</ele><time>2026-05-03T16:30:47.999Z</time></trkpt><trkpt lat="47.47831279724782" lon="6.930209336615201"><ele>528.0</ele><time>2026-05-03T16:30:49.999Z</time></trkpt><trkpt lat="47.4782340915713" lon="6.930340258497163"><ele>528.0</ele><time>2026-05-03T16:30:51.999Z</time></trkpt><trkpt lat="47.47816851257646" lon="6.9303910997653935"><ele>528.0</ele><time>2026-05-03T16:30:53.999Z</time></trkpt><trkpt lat="47.478084641717786" lon="6.930469884832539"><ele>528.0</ele><time>2026-05-03T16:30:55.999Z</time></trkpt><trkpt lat="47.47802046411425" lon="6.930484974164915"><ele>528.0</ele><time>2026-05-03T16:30:56.999Z</time></trkpt><trkpt lat="47.47788372732005" lon="6.930528266167461"><ele>528.0</ele><time>2026-05-03T16:30:58.999Z</time></trkpt><trkpt lat="47.47778684826204" lon="6.930519925618438"><ele>530.6666666666666</ele><time>2026-05-03T16:31:00.999Z</time></trkpt><trkpt lat="47.477721910191" lon="6.930432064089892"><ele>533.3333333333334</ele><time>2026-05-03T16:31:03Z</time></trkpt><trkpt lat="47.47766455090834" lon="6.930324504850097"><ele>536.0</ele><time>2026-05-03T16:31:05Z</time></trkpt><trkpt lat="47.47759103604548" lon="6.930280692825351"><ele>538.6666666666667</ele><time>2026-05-03T16:31:07Z</time></trkpt><trkpt lat="47.47752435365555" lon="6.930355589830931"><ele>541.3333333333334</ele><time>2026-05-03T16:31:09Z</time></trkpt><trkpt lat="47.4774411738705" lon="6.930352072973197"><ele>544.0</ele><time>2026-05-03T16:31:11Z</time></trkpt><trkpt lat="47.47737318980026" lon="6.9303607123660225"><ele>544.0</ele><time>2026-05-03T16:31:15Z</time></trkpt><trkpt lat="47.47727161451687" lon="6.930372725966136"><ele>544.0</ele><time>2026-05-03T16:31:16Z</time></trkpt><trkpt lat="47.47719213657696" lon="6.930348259873201"><ele>544.0</ele><time>2026-05-03T16:31:17Z</time></trkpt><trkpt lat="47.47712405219228" lon="6.930317338926609"><ele>544.0</ele><time>2026-05-03T16:31:18Z</time></trkpt><trkpt lat="47.4770453203221" lon="6.930302352382536"><ele>544.0</ele><time>2026-05-03T16:31:19Z</time></trkpt><trkpt lat="47.476969931196955" lon="6.930296294991209"><ele>544.0</ele><time>2026-05-03T16:31:20Z</time></trkpt><trkpt lat="47.47690446784535" lon="6.93025986082209"><ele>546.3333333333334</ele><time>2026-05-03T16:31:21Z</time></trkpt><trkpt lat="47.47681967637732" lon="6.930217597917443"><ele>548.6666666666667</ele><time>2026-05-03T16:31:23Z</time></trkpt><trkpt lat="47.47675334215179" lon="6.930181205238385"><ele>551.0</ele><time>2026-05-03T16:31:24Z</time></trkpt><trkpt lat="47.47663088283085" lon="6.930154664359227"><ele>553.3333333333334</ele><time>2026-05-03T16:31:26Z</time></trkpt><trkpt lat="47.476560363219846" lon="6.9301636989588555"><ele>555.6666666666666</ele><time>2026-05-03T16:31:27Z</time></trkpt><trkpt lat="47.476483410862" lon="6.930152629246037"><ele>558.0</ele><time>2026-05-03T16:31:28Z</time></trkpt><trkpt lat="47.476399733104195" lon="6.930141699180601"><ele>558.0</ele><time>2026-05-03T16:31:29Z</time></trkpt><trkpt lat="47.476300144359996" lon="6.9301437195705855"><ele>558.0</ele><time>2026-05-03T16:31:31Z</time></trkpt><trkpt lat="47.476193231223675" lon="6.930066041093675"><ele>558.0</ele><time>2026-05-03T16:31:33Z</time></trkpt><trkpt lat="47.47608810170505" lon="6.930054364047841"><ele>558.0</ele><time>2026-05-03T16:31:35Z</time></trkpt><trkpt lat="47.475996808926844" lon="6.930043292315681"><ele>558.0</ele><time>2026-05-03T16:31:37Z</time></trkpt><trkpt lat="47.475917793590625" lon="6.930051333765004"><ele>559.6666666666666</ele><time>2026-05-03T16:31:38Z</time></trkpt><trkpt lat="47.475854563297545" lon="6.930036535432367"><ele>561.3333333333334</ele><time>2026-05-03T16:31:39Z</time></trkpt><trkpt lat="47.475756158783994" lon="6.930078273954375"><ele>563.0</ele><time>2026-05-03T16:31:41Z</time></trkpt><trkpt lat="47.475665382358955" lon="6.930075941118975"><ele>564.6666666666667</ele><time>2026-05-03T16:31:42Z</time></trkpt><trkpt lat="47.47558872530861" lon="6.930086739524024"><ele>566.3333333333334</ele><time>2026-05-03T16:31:43Z</time></trkpt><trkpt lat="47.47550408628612" lon="6.930054447283881"><ele>568.0</ele><time>2026-05-03T16:31:44Z</time></trkpt><trkpt lat="47.47544442646784" lon="6.93001283497096"><ele>569.8</ele><time>2026-05-03T16:31:45Z</time></trkpt><trkpt lat="47.47534954801217" lon="6.930028941809553"><ele>571.5999999999999</ele><time>2026-05-03T16:31:47Z</time></trkpt><trkpt lat="47.47528365385858" lon="6.930045901020003"><ele>573.4000000000001</ele><time>2026-05-03T16:31:48Z</time></trkpt><trkpt lat="47.475155709816086" lon="6.930062376367881"><ele>575.2</ele><time>2026-05-03T16:31:50Z</time></trkpt><trkpt lat="47.475070618184276" lon="6.930079397076821"><ele>577.0</ele><time>2026-05-03T16:31:52Z</time></trkpt><trkpt lat="47.475047672461955" lon="6.930213996911154"><ele>577.6</ele><time>2026-05-03T16:31:54Z</time></trkpt><trkpt lat="47.47507533750525" lon="6.930399381654541"><ele>578.2</ele><time>2026-05-03T16:31:56Z</time></trkpt><trkpt lat="47.475099805916855" lon="6.930519090651426"><ele>578.8</ele><time>2026-05-03T16:31:57Z</time></trkpt><trkpt lat="47.47510816170588" lon="6.9307101382071945"><ele>579.4</ele><time>2026-05-03T16:31:59Z</time></trkpt><trkpt lat="47.475102674263745" lon="6.930807518002117"><ele>580.0</ele><time>2026-05-03T16:32:00Z</time></trkpt><trkpt lat="47.4750918096558" lon="6.930944121382742"><ele>578.1666666666667</ele><time>2026-05-03T16:32:02Z</time></trkpt><trkpt lat="47.475079835976025" lon="6.931047010768462"><ele>576.3333333333334</ele><time>2026-05-03T16:32:04Z</time></trkpt><trkpt lat="47.47501422223771" lon="6.931141942491328"><ele>574.5</ele><time>2026-05-03T16:32:06Z</time></trkpt><trkpt lat="47.47495098625591" lon="6.931258284586285"><ele>572.6666666666666</ele><time>2026-05-03T16:32:08Z</time></trkpt><trkpt lat="47.4748953781805" lon="6.931323960145354"><ele>570.8333333333333</ele><time>2026-05-03T16:32:10Z</time></trkpt><trkpt lat="47.47483104863562" lon="6.931414473543497"><ele>569.0</ele><time>2026-05-03T16:32:12Z</time></trkpt><trkpt lat="47.474739544320414" lon="6.931506236068768"><ele>569.0</ele><time>2026-05-03T16:32:14Z</time></trkpt><trkpt lat="47.474648045523104" lon="6.931588576549432"><ele>569.0</ele><time>2026-05-03T16:32:15.999Z</time></trkpt><trkpt lat="47.47458852114903" lon="6.931620371206598"><ele>569.0</ele><time>2026-05-03T16:32:16.999Z</time></trkpt><trkpt lat="47.47451932373427" lon="6.93165780012257"><ele>569.0</ele><time>2026-05-03T16:32:17.999Z</time></trkpt><trkpt lat="47.47445438479463" lon="6.93167910351132"><ele>569.0</ele><time>2026-05-03T16:32:18.999Z</time></trkpt><trkpt lat="47.47436504531777" lon="6.931661789414003"><ele>569.0</ele><time>2026-05-03T16:32:19.999Z</time></trkpt><trkpt lat="47.47428082795272" lon="6.931612708013589"><ele>568.8333333333333</ele><time>2026-05-03T16:32:21.999Z</time></trkpt><trkpt lat="47.47416781990974" lon="6.931558198346928"><ele>568.6666666666666</ele><time>2026-05-03T16:32:23.999Z</time></trkpt><trkpt lat="47.47407624020112" lon="6.931517513723029"><ele>568.5</ele><time>2026-05-03T16:32:24.999Z</time></trkpt><trkpt lat="47.47401015675729" lon="6.931482530033812"><ele>568.3333333333334</ele><time>2026-05-03T16:32:25.999Z</time></trkpt><trkpt lat="47.47394426671296" lon="6.931411718304741"><ele>568.1666666666667</ele><time>2026-05-03T16:32:26.999Z</time></trkpt><trkpt lat="47.473877657443296" lon="6.931394918332429"><ele>568.0</ele><time>2026-05-03T16:32:27.999Z</time></trkpt><trkpt lat="47.473784826191014" lon="6.931355417954721"><ele>567.8333333333334</ele><time>2026-05-03T16:32:28.999Z</time></trkpt><trkpt lat="47.47368573203154" lon="6.931336663885924"><ele>567.6666666666667</ele><time>2026-05-03T16:32:29.999Z</time></trkpt><trkpt lat="47.473590950925946" lon="6.931293908026111"><ele>567.5</ele><time>2026-05-03T16:32:30.999Z</time></trkpt><trkpt lat="47.47351496472784" lon="6.931235311332593"><ele>567.3333333333334</ele><time>2026-05-03T16:32:31.999Z</time></trkpt><trkpt lat="47.473434267343364" lon="6.931194467161479"><ele>567.1666666666666</ele><time>2026-05-03T16:32:32.999Z</time></trkpt><trkpt lat="47.47336609855154" lon="6.9311603308878995"><ele>567.0</ele><time>2026-05-03T16:32:33.999Z</time></trkpt><trkpt lat="47.473285379019515" lon="6.9311372263709154"><ele>567.0</ele><time>2026-05-03T16:32:34.999Z</time></trkpt><trkpt lat="47.47319700580449" lon="6.931089212947184"><ele>567.0</ele><time>2026-05-03T16:32:35.999Z</time></trkpt><trkpt lat="47.47309140650605" lon="6.9310430129555165"><ele>567.0</ele><time>2026-05-03T16:32:36.999Z</time></trkpt><trkpt lat="47.473018759698235" lon="6.930998565151804"><ele>567.0</ele><time>2026-05-03T16:32:37.999Z</time></trkpt><trkpt lat="47.472908889743536" lon="6.9309470659558965"><ele>567.0</ele><time>2026-05-03T16:32:38.999Z</time></trkpt><trkpt lat="47.47278474257371" lon="6.930879599034619"><ele>568.5</ele><time>2026-05-03T16:32:39.999Z</time></trkpt><trkpt lat="47.472676445530006" lon="6.9308377118759905"><ele>570.0</ele><time>2026-05-03T16:32:40.999Z</time></trkpt><trkpt lat="47.47261161488936" lon="6.9308141763106645"><ele>571.5</ele><time>2026-05-03T16:32:41.999Z</time></trkpt><trkpt lat="47.47254219958921" lon="6.930782588166875"><ele>573.0</ele><time>2026-05-03T16:32:43Z</time></trkpt><trkpt lat="47.47246579093264" lon="6.930742621827895"><ele>574.5</ele><time>2026-05-03T16:32:44Z</time></trkpt><trkpt lat="47.47238270536249" lon="6.930707583487877"><ele>576.0</ele><time>2026-05-03T16:32:46Z</time></trkpt><trkpt lat="47.47230965874823" lon="6.930613650346707"><ele>576.0</ele><time>2026-05-03T16:32:49Z</time></trkpt><trkpt lat="47.472375230850375" lon="6.930612160126253"><ele>576.0</ele><time>2026-05-03T16:33:35Z</time></trkpt><trkpt lat="47.47240651413823" lon="6.9307578050665635"><ele>576.0</ele><time>2026-05-03T16:33:46Z</time></trkpt><trkpt lat="47.47232294011059" lon="6.9306871617811785"><ele>576.0</ele><time>2026-05-03T16:33:54Z</time></trkpt><trkpt lat="47.47224410295334" lon="6.930647630618644"><ele>576.0</ele><time>2026-05-03T16:33:56Z</time></trkpt><trkpt lat="47.47212083459724" lon="6.930595439188364"><ele>574.6</ele><time>2026-05-03T16:33:58Z</time></trkpt><trkpt lat="47.472042186893646" lon="6.9305707578315445"><ele>573.2</ele><time>2026-05-03T16:33:59Z</time></trkpt><trkpt lat="47.471932501822984" lon="6.930550070161992"><ele>571.8</ele><time>2026-05-03T16:34:01Z</time></trkpt><trkpt lat="47.47181184301277" lon="6.9305239824505716"><ele>570.4</ele><time>2026-05-03T16:34:03Z</time></trkpt><trkpt lat="47.47170258694808" lon="6.930523318375953"><ele>569.0</ele><time>2026-05-03T16:34:05Z</time></trkpt><trkpt lat="47.47158197682749" lon="6.930533374962416"><ele>569.0</ele><time>2026-05-03T16:34:07Z</time></trkpt><trkpt lat="47.47151658865085" lon="6.9305173006264535"><ele>569.0</ele><time>2026-05-03T16:34:08Z</time></trkpt><trkpt lat="47.47141523020525" lon="6.930462373729046"><ele>569.0</ele><time>2026-05-03T16:34:10Z</time></trkpt><trkpt lat="47.4713195935781" lon="6.930378158580961"><ele>569.0</ele><time>2026-05-03T16:34:12Z</time></trkpt><trkpt lat="47.47122452592536" lon="6.930316372618994"><ele>569.0</ele><time>2026-05-03T16:34:14Z</time></trkpt><trkpt lat="47.47115916967312" lon="6.930223126040545"><ele>567.6666666666666</ele><time>2026-05-03T16:34:16Z</time></trkpt><trkpt lat="47.4711057769384" lon="6.930119014002492"><ele>566.3333333333333</ele><time>2026-05-03T16:34:18Z</time></trkpt><trkpt lat="47.471048968708445" lon="6.930078835179888"><ele>565.0</ele><time>2026-05-03T16:34:20Z</time></trkpt><trkpt lat="47.47097614377163" lon="6.93002732229899"><ele>563.6666666666666</ele><time>2026-05-03T16:34:22Z</time></trkpt><trkpt lat="47.47089102748352" lon="6.929967084377964"><ele>562.3333333333334</ele><time>2026-05-03T16:34:24Z</time></trkpt><trkpt lat="47.470808228730505" lon="6.9299077513296075"><ele>561.0</ele><time>2026-05-03T16:34:26Z</time></trkpt><trkpt lat="47.47076889672997" lon="6.929818488678038"><ele>561.0</ele><time>2026-05-03T16:34:28Z</time></trkpt><trkpt lat="47.47073116971285" lon="6.9296628679100545"><ele>561.0</ele><time>2026-05-03T16:34:30Z</time></trkpt><trkpt lat="47.47078935297113" lon="6.929366649078479"><ele>561.0</ele><time>2026-05-03T16:34:31Z</time></trkpt><trkpt lat="47.47075086233718" lon="6.929230510171757"><ele>561.0</ele><time>2026-05-03T16:34:33Z</time></trkpt><trkpt lat="47.470722799957116" lon="6.929136360713256"><ele>561.0</ele><time>2026-05-03T16:34:34Z</time></trkpt><trkpt lat="47.47068765992558" lon="6.9289804972230495"><ele>561.0</ele><time>2026-05-03T16:34:36Z</time></trkpt><trkpt lat="47.470623823194465" lon="6.928840598708334"><ele>561.0</ele><time>2026-05-03T16:34:38Z</time></trkpt><trkpt lat="47.470588037025436" lon="6.928751507334078"><ele>561.0</ele><time>2026-05-03T16:34:39Z</time></trkpt><trkpt lat="47.47052580537796" lon="6.928628040468221"><ele>561.0</ele><time>2026-05-03T16:34:41Z</time></trkpt><trkpt lat="47.47047186888342" lon="6.928521741689969"><ele>560.6</ele><time>2026-05-03T16:34:43Z</time></trkpt><trkpt lat="47.47039991799999" lon="6.928383665729532"><ele>560.2</ele><time>2026-05-03T16:34:45Z</time></trkpt><trkpt lat="47.470356938406084" lon="6.928272106108027"><ele>559.8</ele><time>2026-05-03T16:34:47Z</time></trkpt><trkpt lat="47.4703098326245" lon="6.92842136553615"><ele>559.4</ele><time>2026-05-03T16:34:49Z</time></trkpt><trkpt lat="47.47035659321855" lon="6.928559397993922"><ele>559.0</ele><time>2026-05-03T16:34:51Z</time></trkpt><trkpt lat="47.47040612313798" lon="6.928679051588987"><ele>559.0</ele><time>2026-05-03T16:34:53Z</time></trkpt><trkpt lat="47.47043489610974" lon="6.928766012881834"><ele>559.0</ele><time>2026-05-03T16:34:54Z</time></trkpt><trkpt lat="47.47050203135093" lon="6.92888507766702"><ele>559.0</ele><time>2026-05-03T16:34:56Z</time></trkpt><trkpt lat="47.47053023571849" lon="6.929003835683339"><ele>559.0</ele><time>2026-05-03T16:34:58Z</time></trkpt><trkpt lat="47.470574109090165" lon="6.929155653450912"><ele>559.0</ele><time>2026-05-03T16:35:00Z</time></trkpt><trkpt lat="47.47063590138498" lon="6.929317302167365"><ele>559.2857142857143</ele><time>2026-05-03T16:35:02Z</time></trkpt><trkpt lat="47.4706705550936" lon="6.929402608430921"><ele>559.5714285714287</ele><time>2026-05-03T16:35:03Z</time></trkpt><trkpt lat="47.47071300664146" lon="6.929507982599855"><ele>559.8571428571429</ele><time>2026-05-03T16:35:05Z</time></trkpt><trkpt lat="47.47077481249933" lon="6.929594437616258"><ele>560.1428571428571</ele><time>2026-05-03T16:35:10Z</time></trkpt><trkpt lat="47.47084047834551" lon="6.929635705392454"><ele>560.4285714285713</ele><time>2026-05-03T16:35:13Z</time></trkpt><trkpt lat="47.470835674447244" lon="6.929529588722232"><ele>560.7142857142857</ele><time>2026-05-03T16:35:15Z</time></trkpt><trkpt lat="47.47079921987985" lon="6.9294423327017345"><ele>561.0</ele><time>2026-05-03T16:35:17Z</time></trkpt><trkpt lat="47.470718857023535" lon="6.92933716461985"><ele>561.0</ele><time>2026-05-03T16:35:19Z</time></trkpt><trkpt lat="47.47067193709062" lon="6.92922452491936"><ele>561.0</ele><time>2026-05-03T16:35:21Z</time></trkpt><trkpt lat="47.47061905472358" lon="6.929099352912626"><ele>561.0</ele><time>2026-05-03T16:35:23Z</time></trkpt><trkpt lat="47.47059939499928" lon="6.929004294888723"><ele>561.0</ele><time>2026-05-03T16:35:24Z</time></trkpt><trkpt lat="47.47055564218184" lon="6.928884817899536"><ele>561.0</ele><time>2026-05-03T16:35:26Z</time></trkpt><trkpt lat="47.470492717727566" lon="6.928729870264096"><ele>561.0</ele><time>2026-05-03T16:35:31Z</time></trkpt><trkpt lat="47.47043792864908" lon="6.928637222992374"><ele>561.0</ele><time>2026-05-03T16:35:34Z</time></trkpt><trkpt lat="47.47034557860659" lon="6.92864137173935"><ele>561.0</ele><time>2026-05-03T16:35:36Z</time></trkpt><trkpt lat="47.470382476183254" lon="6.9287286149092395"><ele>561.0</ele><time>2026-05-03T16:35:38Z</time></trkpt><trkpt lat="47.470432561773556" lon="6.928818743901439"><ele>561.0</ele><time>2026-05-03T16:35:40Z</time></trkpt><trkpt lat="47.47050506438732" lon="6.928919961751049"><ele>561.0</ele><time>2026-05-03T16:35:42Z</time></trkpt><trkpt lat="47.47057437244661" lon="6.9290745979441075"><ele>561.0</ele><time>2026-05-03T16:35:44Z</time></trkpt><trkpt lat="47.470621963850235" lon="6.929180630282244"><ele>561.0</ele><time>2026-05-03T16:35:46Z</time></trkpt><trkpt lat="47.470682437500535" lon="6.929298964032582"><ele>561.0</ele><time>2026-05-03T16:35:48Z</time></trkpt><trkpt lat="47.47073261621664" lon="6.929374443196655"><ele>561.0</ele><time>2026-05-03T16:35:50Z</time></trkpt><trkpt lat="47.47079441446794" lon="6.929517934525879"><ele>561.0</ele><time>2026-05-03T16:35:52Z</time></trkpt><trkpt lat="47.47083575041409" lon="6.929599418564313"><ele>561.0</ele><time>2026-05-03T16:35:53Z</time></trkpt><trkpt lat="47.470882913287596" lon="6.929720727736428"><ele>561.0</ele><time>2026-05-03T16:35:55Z</time></trkpt><trkpt lat="47.47093354651812" lon="6.9298292942568676"><ele>561.0</ele><time>2026-05-03T16:35:57Z</time></trkpt><trkpt lat="47.47094725850384" lon="6.929683040907773"><ele>561.0</ele><time>2026-05-03T16:36:01Z</time></trkpt><trkpt lat="47.47089842965895" lon="6.929566557421815"><ele>561.0</ele><time>2026-05-03T16:36:03Z</time></trkpt><trkpt lat="47.470845151810906" lon="6.92944723641226"><ele>561.0</ele><time>2026-05-03T16:36:05Z</time></trkpt><trkpt lat="47.47077289190424" lon="6.929332050716681"><ele>561.0</ele><time>2026-05-03T16:36:07Z</time></trkpt><trkpt lat="47.470708559155675" lon="6.92919596535752"><ele>561.0</ele><time>2026-05-03T16:36:09Z</time></trkpt><trkpt lat="47.47066012531783" lon="6.9291026323086236"><ele>561.0</ele><time>2026-05-03T16:36:11Z</time></trkpt><trkpt lat="47.47062116203272" lon="6.929010741770253"><ele>561.0</ele><time>2026-05-03T16:36:12Z</time></trkpt><trkpt lat="47.470571073394666" lon="6.928885471291169"><ele>561.0</ele><time>2026-05-03T16:36:14Z</time></trkpt><trkpt lat="47.47051503110221" lon="6.9287591448210035"><ele>560.6</ele><time>2026-05-03T16:36:16Z</time></trkpt><trkpt lat="47.470439175150304" lon="6.9286411429898"><ele>560.2</ele><time>2026-05-03T16:36:18Z</time></trkpt><trkpt lat="47.47041407603642" lon="6.92852742506799"><ele>559.8</ele><time>2026-05-03T16:36:20Z</time></trkpt><trkpt lat="47.470402786125874" lon="6.928432737166307"><ele>559.4</ele><time>2026-05-03T16:36:21Z</time></trkpt><trkpt lat="47.47035921590969" lon="6.928573307565086"><ele>559.0</ele><time>2026-05-03T16:36:24Z</time></trkpt><trkpt lat="47.47039658139483" lon="6.928705614354593"><ele>559.3333333333334</ele><time>2026-05-03T16:36:26Z</time></trkpt><trkpt lat="47.470482113812814" lon="6.928797209797424"><ele>559.6666666666667</ele><time>2026-05-03T16:36:28Z</time></trkpt><trkpt lat="47.47054329596813" lon="6.928873386446792"><ele>560.0</ele><time>2026-05-03T16:36:29Z</time></trkpt><trkpt lat="47.47059996229025" lon="6.928977698533122"><ele>560.3333333333334</ele><time>2026-05-03T16:36:31Z</time></trkpt><trkpt lat="47.470666619534" lon="6.929085542367356"><ele>560.6666666666666</ele><time>2026-05-03T16:36:32Z</time></trkpt><trkpt lat="47.47070125964298" lon="6.929167759054362"><ele>561.0</ele><time>2026-05-03T16:36:33Z</time></trkpt><trkpt lat="47.47077494824671" lon="6.929308096535038"><ele>561.0</ele><time>2026-05-03T16:36:35Z</time></trkpt><trkpt lat="47.47083734343802" lon="6.929441089442154"><ele>561.0</ele><time>2026-05-03T16:36:37Z</time></trkpt><trkpt lat="47.47086761614572" lon="6.929524779123992"><ele>561.0</ele><time>2026-05-03T16:36:38Z</time></trkpt><trkpt lat="47.47089959104664" lon="6.929637353855686"><ele>561.0</ele><time>2026-05-03T16:36:39Z</time></trkpt><trkpt lat="47.47093517219061" lon="6.929714970713567"><ele>561.0</ele><time>2026-05-03T16:36:41Z</time></trkpt><trkpt lat="47.470920753219026" lon="6.929618735063051"><ele>561.0</ele><time>2026-05-03T16:36:44Z</time></trkpt><trkpt lat="47.47089716810383" lon="6.929519442173031"><ele>561.0</ele><time>2026-05-03T16:36:45Z</time></trkpt><trkpt lat="47.47086671432504" lon="6.92942575242948"><ele>561.0</ele><time>2026-05-03T16:36:46Z</time></trkpt><trkpt lat="47.4708112255048" lon="6.929309198026463"><ele>561.0</ele><time>2026-05-03T16:36:48Z</time></trkpt><trkpt lat="47.470710196697574" lon="6.929164006401244"><ele>561.0</ele><time>2026-05-03T16:36:50Z</time></trkpt><trkpt lat="47.47065202912207" lon="6.929043111990538"><ele>561.0</ele><time>2026-05-03T16:36:52Z</time></trkpt><trkpt lat="47.470599315728606" lon="6.928931903644439"><ele>561.0</ele><time>2026-05-03T16:36:53Z</time></trkpt><trkpt lat="47.47056063524093" lon="6.928833067039792"><ele>561.0</ele><time>2026-05-03T16:36:54Z</time></trkpt><trkpt lat="47.47049792330101" lon="6.928722191147524"><ele>561.0</ele><time>2026-05-03T16:36:56Z</time></trkpt><trkpt lat="47.470466668054065" lon="6.9286369012341495"><ele>561.0</ele><time>2026-05-03T16:36:57Z</time></trkpt><trkpt lat="47.470399305068696" lon="6.928500354360122"><ele>561.0</ele><time>2026-05-03T16:36:59Z</time></trkpt><trkpt lat="47.47035308344179" lon="6.92841443589159"><ele>561.0</ele><time>2026-05-03T16:37:00Z</time></trkpt><trkpt lat="47.47026675369547" lon="6.928423742632343"><ele>561.0</ele><time>2026-05-03T16:37:03Z</time></trkpt><trkpt lat="47.47026458778312" lon="6.928591654557648"><ele>561.0</ele><time>2026-05-03T16:37:05Z</time></trkpt><trkpt lat="47.47034519080759" lon="6.928722228731201"><ele>561.0</ele><time>2026-05-03T16:37:07Z</time></trkpt><trkpt lat="47.47042453183269" lon="6.928838281364509"><ele>561.0</ele><time>2026-05-03T16:37:09Z</time></trkpt><trkpt lat="47.47047607401915" lon="6.928903511291171"><ele>561.0</ele><time>2026-05-03T16:37:10Z</time></trkpt><trkpt lat="47.47057470659005" lon="6.929044065150323"><ele>561.0</ele><time>2026-05-03T16:37:12Z</time></trkpt><trkpt lat="47.47064286031331" lon="6.929159282155807"><ele>561.0</ele><time>2026-05-03T16:37:14Z</time></trkpt><trkpt lat="47.470718315109515" lon="6.929291535493675"><ele>561.0</ele><time>2026-05-03T16:37:16Z</time></trkpt><trkpt lat="47.4707648996874" lon="6.929361467336226"><ele>561.0</ele><time>2026-05-03T16:37:17Z</time></trkpt><trkpt lat="47.47082140276473" lon="6.92948681283171"><ele>561.0</ele><time>2026-05-03T16:37:19Z</time></trkpt><trkpt lat="47.470869332295095" lon="6.929615596002476"><ele>561.0</ele><time>2026-05-03T16:37:21Z</time></trkpt><trkpt lat="47.47088338939008" lon="6.929724554104976"><ele>561.0</ele><time>2026-05-03T16:37:23Z</time></trkpt><trkpt lat="47.47085810997748" lon="6.929836258350184"><ele>561.0</ele><time>2026-05-03T16:37:24Z</time></trkpt><trkpt lat="47.470841180836885" lon="6.929933046385237"><ele>561.0</ele><time>2026-05-03T16:37:25Z</time></trkpt><trkpt lat="47.470825046464775" lon="6.930038971979281"><ele>561.0</ele><time>2026-05-03T16:37:27Z</time></trkpt><trkpt lat="47.47078635216669" lon="6.930170142117225"><ele>561.0</ele><time>2026-05-03T16:37:29Z</time></trkpt><trkpt lat="47.47075718838652" lon="6.930262062860138"><ele>560.5</ele><time>2026-05-03T16:37:31Z</time></trkpt><trkpt lat="47.470749709300804" lon="6.930374983344265"><ele>560.0</ele><time>2026-05-03T16:37:33Z</time></trkpt><trkpt lat="47.47073972696837" lon="6.930468558119052"><ele>559.5</ele><time>2026-05-03T16:37:34Z</time></trkpt><trkpt lat="47.47071297570884" lon="6.930566456476938"><ele>559.0</ele><time>2026-05-03T16:37:35Z</time></trkpt><trkpt lat="47.47069211593978" lon="6.930686681123189"><ele>558.5</ele><time>2026-05-03T16:37:36Z</time></trkpt><trkpt lat="47.470660012226304" lon="6.930801795891805"><ele>558.0</ele><time>2026-05-03T16:37:38Z</time></trkpt><trkpt lat="47.47063028294396" lon="6.930895583504401"><ele>557.4</ele><time>2026-05-03T16:37:40Z</time></trkpt><trkpt lat="47.47059356218927" lon="6.931022937727264"><ele>556.8</ele><time>2026-05-03T16:37:42Z</time></trkpt><trkpt lat="47.470576697949845" lon="6.931138562054587"><ele>556.2</ele><time>2026-05-03T16:37:43Z</time></trkpt><trkpt lat="47.470537658205366" lon="6.931259269527672"><ele>555.6</ele><time>2026-05-03T16:37:44Z</time></trkpt><trkpt lat="47.47048441557726" lon="6.931416685261737"><ele>555.0</ele><time>2026-05-03T16:37:46Z</time></trkpt><trkpt lat="47.47043212874972" lon="6.93149007145933"><ele>555.0</ele><time>2026-05-03T16:37:48Z</time></trkpt><trkpt lat="47.470380810981716" lon="6.931618806286561"><ele>555.0</ele><time>2026-05-03T16:37:50Z</time></trkpt><trkpt lat="47.470446653360085" lon="6.931587991561356"><ele>555.0</ele><time>2026-05-03T16:37:54Z</time></trkpt><trkpt lat="47.47047667809221" lon="6.931479972120473"><ele>555.0</ele><time>2026-05-03T16:37:55Z</time></trkpt><trkpt lat="47.47053859994369" lon="6.93132816337047"><ele>555.0</ele><time>2026-05-03T16:37:57Z</time></trkpt><trkpt lat="47.47057138972839" lon="6.931149195674168"><ele>555.0</ele><time>2026-05-03T16:37:59Z</time></trkpt><trkpt lat="47.470578087746226" lon="6.93099812382496"><ele>555.0</ele><time>2026-05-03T16:38:01Z</time></trkpt><trkpt lat="47.47059741255295" lon="6.930908139441511"><ele>555.0</ele><time>2026-05-03T16:38:02Z</time></trkpt><trkpt lat="47.47061290915241" lon="6.930813530716229"><ele>555.0</ele><time>2026-05-03T16:38:03Z</time></trkpt><trkpt lat="47.470636225041645" lon="6.930649237004428"><ele>555.0</ele><time>2026-05-03T16:38:05Z</time></trkpt><trkpt lat="47.47066235592632" lon="6.930510752923491"><ele>555.0</ele><time>2026-05-03T16:38:07Z</time></trkpt><trkpt lat="47.47067778587398" lon="6.9304131130118085"><ele>555.5</ele><time>2026-05-03T16:38:08Z</time></trkpt><trkpt lat="47.470730016998914" lon="6.930300320548958"><ele>556.0</ele><time>2026-05-03T16:38:10Z</time></trkpt><trkpt lat="47.470789318839174" lon="6.93026733789504"><ele>556.5</ele><time>2026-05-03T16:38:11Z</time></trkpt><trkpt lat="47.470858016797116" lon="6.930262463946397"><ele>557.0</ele><time>2026-05-03T16:38:12Z</time></trkpt><trkpt lat="47.47093591355153" lon="6.930270047352301"><ele>557.5</ele><time>2026-05-03T16:38:13Z</time></trkpt><trkpt lat="47.47101792510037" lon="6.930284181682234"><ele>558.0</ele><time>2026-05-03T16:38:14Z</time></trkpt><trkpt lat="47.471106149544546" lon="6.930314274844307"><ele>558.0</ele><time>2026-05-03T16:38:16Z</time></trkpt><trkpt lat="47.471172135991495" lon="6.930265441160121"><ele>558.0</ele><time>2026-05-03T16:38:17Z</time></trkpt><trkpt lat="47.47123249062976" lon="6.930312481139731"><ele>558.0</ele><time>2026-05-03T16:38:20Z</time></trkpt><trkpt lat="47.47106816255605" lon="6.930712285592025"><ele>558.0</ele><time>2026-05-03T16:38:23Z</time></trkpt><trkpt lat="47.47100376327215" lon="6.930778060971938"><ele>558.0</ele><time>2026-05-03T16:38:24Z</time></trkpt><trkpt lat="47.47094234238143" lon="6.930849159935672"><ele>558.0</ele><time>2026-05-03T16:38:25Z</time></trkpt><trkpt lat="47.47089378927" lon="6.930934198707346"><ele>558.0</ele><time>2026-05-03T16:38:26Z</time></trkpt><trkpt lat="47.470826773523804" lon="6.931046663101211"><ele>558.0</ele><time>2026-05-03T16:38:28Z</time></trkpt><trkpt lat="47.47077299665407" lon="6.93114767338626"><ele>558.0</ele><time>2026-05-03T16:38:29Z</time></trkpt><trkpt lat="47.470719912518796" lon="6.931221789364541"><ele>557.4</ele><time>2026-05-03T16:38:30Z</time></trkpt><trkpt lat="47.47065571590181" lon="6.931284426531168"><ele>556.8</ele><time>2026-05-03T16:38:31Z</time></trkpt><trkpt lat="47.4705551076488" lon="6.93134313144189"><ele>556.2</ele><time>2026-05-03T16:38:33Z</time></trkpt><trkpt lat="47.470454023952804" lon="6.931434619148215"><ele>555.6</ele><time>2026-05-03T16:38:35Z</time></trkpt><trkpt lat="47.47040502810572" lon="6.931502142107891"><ele>555.0</ele><time>2026-05-03T16:38:36Z</time></trkpt><trkpt lat="47.47037644644398" lon="6.931632903802517"><ele>555.0</ele><time>2026-05-03T16:38:38Z</time></trkpt><trkpt lat="47.47042261587767" lon="6.931744655313874"><ele>555.0</ele><time>2026-05-03T16:38:40Z</time></trkpt><trkpt lat="47.47053588729105" lon="6.931715688516869"><ele>555.0</ele><time>2026-05-03T16:38:42Z</time></trkpt><trkpt lat="47.47064723921354" lon="6.931728939346922"><ele>555.0</ele><time>2026-05-03T16:38:44Z</time></trkpt><trkpt lat="47.470717349104625" lon="6.931647551055778"><ele>555.0</ele><time>2026-05-03T16:38:46Z</time></trkpt><trkpt lat="47.47072641126443" lon="6.93151260196572"><ele>555.0</ele><time>2026-05-03T16:38:47Z</time></trkpt><trkpt lat="47.47074799386439" lon="6.931361966314639"><ele>555.0</ele><time>2026-05-03T16:38:48Z</time></trkpt><trkpt lat="47.47076731419598" lon="6.931196066986286"><ele>555.0</ele><time>2026-05-03T16:38:49Z</time></trkpt><trkpt lat="47.47078332214473" lon="6.93097930568582"><ele>555.0</ele><time>2026-05-03T16:38:50Z</time></trkpt><trkpt lat="47.47078690463187" lon="6.930818916904157"><ele>555.6</ele><time>2026-05-03T16:38:51Z</time></trkpt><trkpt lat="47.47080967731252" lon="6.930688267951281"><ele>556.2</ele><time>2026-05-03T16:38:52Z</time></trkpt><trkpt lat="47.47082643274181" lon="6.930554514946706"><ele>556.8</ele><time>2026-05-03T16:38:53Z</time></trkpt><trkpt lat="47.47084270372659" lon="6.930451361039607"><ele>557.4</ele><time>2026-05-03T16:38:54Z</time></trkpt><trkpt lat="47.470860877622655" lon="6.93027643542402"><ele>558.0</ele><time>2026-05-03T16:38:56Z</time></trkpt><trkpt lat="47.470866409962596" lon="6.930157570556734"><ele>558.6</ele><time>2026-05-03T16:38:58Z</time></trkpt><trkpt lat="47.47086293897403" lon="6.930049349418847"><ele>559.1999999999999</ele><time>2026-05-03T16:39:00Z</time></trkpt><trkpt lat="47.47088049906786" lon="6.929922044088957"><ele>559.8</ele><time>2026-05-03T16:39:02Z</time></trkpt><trkpt lat="47.47089287203622" lon="6.929806123327258"><ele>560.4</ele><time>2026-05-03T16:39:05Z</time></trkpt><trkpt lat="47.47089278499901" lon="6.929647385702115"><ele>561.0</ele><time>2026-05-03T16:39:07Z</time></trkpt><trkpt lat="47.4708541491522" lon="6.929483324482139"><ele>561.0</ele><time>2026-05-03T16:39:09Z</time></trkpt><trkpt lat="47.47079802196876" lon="6.929353242358445"><ele>561.0</ele><time>2026-05-03T16:39:11Z</time></trkpt><trkpt lat="47.47076361212396" lon="6.929223388599748"><ele>561.0</ele><time>2026-05-03T16:39:13Z</time></trkpt><trkpt lat="47.47071808753005" lon="6.929154957615944"><ele>561.0</ele><time>2026-05-03T16:39:14Z</time></trkpt><trkpt lat="47.47067169923398" lon="6.92906320479585"><ele>561.0</ele><time>2026-05-03T16:39:16Z</time></trkpt><trkpt lat="47.470632331247515" lon="6.928983600519053"><ele>561.0</ele><time>2026-05-03T16:39:17Z</time></trkpt><trkpt lat="47.47059865784132" lon="6.928892067243858"><ele>561.0</ele><time>2026-05-03T16:39:18Z</time></trkpt><trkpt lat="47.470560836201116" lon="6.928796050052126"><ele>561.0</ele><time>2026-05-03T16:39:20Z</time></trkpt><trkpt lat="47.470524570114044" lon="6.9287092035237325"><ele>561.0</ele><time>2026-05-03T16:39:21Z</time></trkpt><trkpt lat="47.470477213159796" lon="6.9285893955044155"><ele>561.0</ele><time>2026-05-03T16:39:23Z</time></trkpt><trkpt lat="47.47041494560399" lon="6.928450293016283"><ele>561.0</ele><time>2026-05-03T16:39:25Z</time></trkpt><trkpt lat="47.47040566339967" lon="6.928546145629812"><ele>561.0</ele><time>2026-05-03T16:39:29Z</time></trkpt><trkpt lat="47.47045006333927" lon="6.928666750081942"><ele>561.0</ele><time>2026-05-03T16:39:31Z</time></trkpt><trkpt lat="47.47050431482424" lon="6.928716564498806"><ele>561.0</ele><time>2026-05-03T16:39:32Z</time></trkpt><trkpt lat="47.47054557597421" lon="6.928809668112969"><ele>561.0</ele><time>2026-05-03T16:39:33Z</time></trkpt><trkpt lat="47.4705917054254" lon="6.9288732751768345"><ele>561.0</ele><time>2026-05-03T16:39:34Z</time></trkpt><trkpt lat="47.47063447344879" lon="6.928954386024836"><ele>561.0</ele><time>2026-05-03T16:39:35Z</time></trkpt><trkpt lat="47.47067568727863" lon="6.929051599830862"><ele>561.0</ele><time>2026-05-03T16:39:36Z</time></trkpt><trkpt lat="47.47071723709033" lon="6.929166374880977"><ele>561.0</ele><time>2026-05-03T16:39:38Z</time></trkpt><trkpt lat="47.47077561050879" lon="6.929242037860602"><ele>561.0</ele><time>2026-05-03T16:39:40Z</time></trkpt><trkpt lat="47.47082768308394" lon="6.929348764523086"><ele>561.0</ele><time>2026-05-03T16:39:42Z</time></trkpt><trkpt lat="47.47086205192678" lon="6.929438361736763"><ele>561.0</ele><time>2026-05-03T16:39:43Z</time></trkpt><trkpt lat="47.470930408762015" lon="6.929624305979823"><ele>561.0</ele><time>2026-05-03T16:39:45Z</time></trkpt><trkpt lat="47.470979908770595" lon="6.92975702464513"><ele>561.0</ele><time>2026-05-03T16:39:47Z</time></trkpt><trkpt lat="47.471035406094664" lon="6.929844369500314"><ele>561.0</ele><time>2026-05-03T16:39:48Z</time></trkpt><trkpt lat="47.47106704568565" lon="6.929961281139073"><ele>561.0</ele><time>2026-05-03T16:39:49Z</time></trkpt><trkpt lat="47.47103730056228" lon="6.929820060765425"><ele>561.0</ele><time>2026-05-03T16:39:55Z</time></trkpt><trkpt lat="47.47101512654766" lon="6.929726688465022"><ele>561.0</ele><time>2026-05-03T16:39:56Z</time></trkpt><trkpt lat="47.470956446757256" lon="6.929591270571195"><ele>561.0</ele><time>2026-05-03T16:39:58Z</time></trkpt><trkpt lat="47.4708878311071" lon="6.929517124921553"><ele>561.0</ele><time>2026-05-03T16:40:00Z</time></trkpt><trkpt lat="47.47082394398765" lon="6.929379436459303"><ele>561.0</ele><time>2026-05-03T16:40:02Z</time></trkpt><trkpt lat="47.470755904372595" lon="6.929248098908526"><ele>561.0</ele><time>2026-05-03T16:40:04Z</time></trkpt><trkpt lat="47.47067877719204" lon="6.929104054677307"><ele>561.0</ele><time>2026-05-03T16:40:06Z</time></trkpt><trkpt lat="47.4706227041219" lon="6.928975489944122"><ele>561.0</ele><time>2026-05-03T16:40:08Z</time></trkpt><trkpt lat="47.47058542163055" lon="6.928896974110529"><ele>561.0</ele><time>2026-05-03T16:40:09Z</time></trkpt><trkpt lat="47.470533771718976" lon="6.928769370000023"><ele>561.0</ele><time>2026-05-03T16:40:11Z</time></trkpt><trkpt lat="47.47048233878356" lon="6.928692584151836"><ele>561.0</ele><time>2026-05-03T16:40:12Z</time></trkpt><trkpt lat="47.47043269443767" lon="6.928573410160383"><ele>561.0</ele><time>2026-05-03T16:40:14Z</time></trkpt><trkpt lat="47.4703977454117" lon="6.928456504163776"><ele>561.0</ele><time>2026-05-03T16:40:16Z</time></trkpt><trkpt lat="47.4703377198213" lon="6.928320976990143"><ele>561.0</ele><time>2026-05-03T16:40:18Z</time></trkpt><trkpt lat="47.47028687085273" lon="6.928206453887013"><ele>561.0</ele><time>2026-05-03T16:41:17Z</time></trkpt><trkpt lat="47.47031928520971" lon="6.928309490031861"><ele>561.0</ele><time>2026-05-03T16:41:22Z</time></trkpt><trkpt lat="47.470366318506535" lon="6.9284399826445995"><ele>561.0</ele><time>2026-05-03T16:41:24Z</time></trkpt><trkpt lat="47.470383878735504" lon="6.928533769223406"><ele>561.0</ele><time>2026-05-03T16:41:25Z</time></trkpt><trkpt lat="47.47043892966583" lon="6.92866012130762"><ele>561.0</ele><time>2026-05-03T16:41:27Z</time></trkpt><trkpt lat="47.47051786322131" lon="6.928784495840468"><ele>561.0</ele><time>2026-05-03T16:41:29Z</time></trkpt><trkpt lat="47.47055846097563" lon="6.928932199866949"><ele>561.0</ele><time>2026-05-03T16:41:31Z</time></trkpt><trkpt lat="47.470616424945014" lon="6.929054101845005"><ele>561.0</ele><time>2026-05-03T16:41:33Z</time></trkpt><trkpt lat="47.470661199188406" lon="6.929138972019992"><ele>561.0</ele><time>2026-05-03T16:41:35Z</time></trkpt><trkpt lat="47.47068342288952" lon="6.929228395040843"><ele>561.0</ele><time>2026-05-03T16:41:36Z</time></trkpt><trkpt lat="47.47072978838126" lon="6.929295348501149"><ele>561.0</ele><time>2026-05-03T16:41:37Z</time></trkpt><trkpt lat="47.47080749897918" lon="6.929448330809557"><ele>561.0</ele><time>2026-05-03T16:41:39Z</time></trkpt><trkpt lat="47.470866006837355" lon="6.929568185376173"><ele>561.0</ele><time>2026-05-03T16:41:41Z</time></trkpt><trkpt lat="47.47091609631654" lon="6.929685717965412"><ele>561.0</ele><time>2026-05-03T16:41:43Z</time></trkpt><trkpt lat="47.47097063372877" lon="6.92985330705062"><ele>561.0</ele><time>2026-05-03T16:41:45Z</time></trkpt><trkpt lat="47.47099119543901" lon="6.929956651352067"><ele>561.0</ele><time>2026-05-03T16:41:46Z</time></trkpt><trkpt lat="47.471049891760124" lon="6.930074795951722"><ele>561.0</ele><time>2026-05-03T16:41:48Z</time></trkpt><trkpt lat="47.47103320543261" lon="6.929939277214576"><ele>561.0</ele><time>2026-05-03T16:41:51Z</time></trkpt><trkpt lat="47.47094319030554" lon="6.929854633921489"><ele>561.0</ele><time>2026-05-03T16:41:53Z</time></trkpt><trkpt lat="47.47090165086325" lon="6.929715039562124"><ele>561.0</ele><time>2026-05-03T16:41:55Z</time></trkpt><trkpt lat="47.470854026046645" lon="6.929567284295004"><ele>561.0</ele><time>2026-05-03T16:41:57Z</time></trkpt><trkpt lat="47.47078798072691" lon="6.929410817314985"><ele>561.0</ele><time>2026-05-03T16:41:59Z</time></trkpt><trkpt lat="47.47071905619911" lon="6.929253910061059"><ele>561.0</ele><time>2026-05-03T16:42:01Z</time></trkpt><trkpt lat="47.47068297977903" lon="6.929150494508403"><ele>561.0</ele><time>2026-05-03T16:42:03Z</time></trkpt><trkpt lat="47.470653186748194" lon="6.929065524686656"><ele>561.0</ele><time>2026-05-03T16:42:04Z</time></trkpt><trkpt lat="47.47062099412577" lon="6.928984749887445"><ele>561.0</ele><time>2026-05-03T16:42:05Z</time></trkpt><trkpt lat="47.470588082575595" lon="6.928893968072955"><ele>561.0</ele><time>2026-05-03T16:42:06Z</time></trkpt><trkpt lat="47.47052838125105" lon="6.9287437352616115"><ele>561.0</ele><time>2026-05-03T16:42:08Z</time></trkpt><trkpt lat="47.47047130817723" lon="6.928595172664803"><ele>561.0</ele><time>2026-05-03T16:42:10Z</time></trkpt><trkpt lat="47.47041584798504" lon="6.928460367679919"><ele>561.0</ele><time>2026-05-03T16:42:12Z</time></trkpt><trkpt lat="47.470375823847505" lon="6.928363104858824"><ele>561.0</ele><time>2026-05-03T16:42:13Z</time></trkpt><trkpt lat="47.47034143929647" lon="6.928258114990509"><ele>561.0</ele><time>2026-05-03T16:42:14Z</time></trkpt><trkpt lat="47.47030243505099" lon="6.92814909778648"><ele>561.0</ele><time>2026-05-03T16:42:16Z</time></trkpt><trkpt lat="47.47035249154196" lon="6.928261598683221"><ele>561.0</ele><time>2026-05-03T16:42:20Z</time></trkpt><trkpt lat="47.47038187573765" lon="6.9283502945398165"><ele>561.0</ele><time>2026-05-03T16:42:21Z</time></trkpt><trkpt lat="47.47041885389372" lon="6.928461609401341"><ele>561.0</ele><time>2026-05-03T16:42:22Z</time></trkpt><trkpt lat="47.4704511252116" lon="6.9285603644776526"><ele>561.0</ele><time>2026-05-03T16:42:23Z</time></trkpt><trkpt lat="47.47050016194072" lon="6.928693204028857"><ele>561.0</ele><time>2026-05-03T16:42:25Z</time></trkpt><trkpt lat="47.47057189685406" lon="6.928815149416242"><ele>561.0</ele><time>2026-05-03T16:42:27Z</time></trkpt><trkpt lat="47.470609250486326" lon="6.92891774832604"><ele>561.0</ele><time>2026-05-03T16:42:28Z</time></trkpt><trkpt lat="47.47067665206306" lon="6.929070415325073"><ele>561.0</ele><time>2026-05-03T16:42:30Z</time></trkpt><trkpt lat="47.470749154623476" lon="6.929167111710713"><ele>561.0</ele><time>2026-05-03T16:42:32Z</time></trkpt><trkpt lat="47.470808406612946" lon="6.929241880302989"><ele>561.0</ele><time>2026-05-03T16:42:34Z</time></trkpt><trkpt lat="47.47085928579559" lon="6.929392611854455"><ele>561.0</ele><time>2026-05-03T16:42:36Z</time></trkpt><trkpt lat="47.470922500472746" lon="6.929552734174945"><ele>561.0</ele><time>2026-05-03T16:42:38Z</time></trkpt><trkpt lat="47.47095314596292" lon="6.929639377526793"><ele>561.0</ele><time>2026-05-03T16:42:39Z</time></trkpt><trkpt lat="47.47099968315439" lon="6.929714303838929"><ele>561.0</ele><time>2026-05-03T16:42:40Z</time></trkpt><trkpt lat="47.4710688880635" lon="6.929770649875023"><ele>561.0</ele><time>2026-05-03T16:42:42Z</time></trkpt><trkpt lat="47.47108941790313" lon="6.929641271588496"><ele>561.0</ele><time>2026-05-03T16:42:44Z</time></trkpt><trkpt lat="47.47107082510201" lon="6.929525350580636"><ele>561.0</ele><time>2026-05-03T16:42:45Z</time></trkpt><trkpt lat="47.47105788299503" lon="6.929409649706561"><ele>561.0</ele><time>2026-05-03T16:42:46Z</time></trkpt><trkpt lat="47.47104627816733" lon="6.929296306567379"><ele>561.0</ele><time>2026-05-03T16:42:47Z</time></trkpt><trkpt lat="47.47103206917941" lon="6.929178014725546"><ele>561.0</ele><time>2026-05-03T16:42:48Z</time></trkpt><trkpt lat="47.471021054621566" lon="6.929079634249496"><ele>561.0</ele><time>2026-05-03T16:42:49Z</time></trkpt><trkpt lat="47.47100965140045" lon="6.928916679017739"><ele>561.0</ele><time>2026-05-03T16:42:51Z</time></trkpt><trkpt lat="47.47100314999865" lon="6.928744121330413"><ele>561.0</ele><time>2026-05-03T16:42:53Z</time></trkpt><trkpt lat="47.470974185048284" lon="6.928578004008132"><ele>561.0</ele><time>2026-05-03T16:42:55Z</time></trkpt><trkpt lat="47.47097318475557" lon="6.9284420768426065"><ele>561.0</ele><time>2026-05-03T16:42:57Z</time></trkpt><trkpt lat="47.47098439949683" lon="6.928327869429943"><ele>561.0</ele><time>2026-05-03T16:42:59Z</time></trkpt><trkpt lat="47.47099140976178" lon="6.9282103342381935"><ele>561.0</ele><time>2026-05-03T16:43:01Z</time></trkpt><trkpt lat="47.47097077501332" lon="6.9281026252747475"><ele>561.0</ele><time>2026-05-03T16:43:03Z</time></trkpt><trkpt lat="47.470968782346155" lon="6.927987867466793"><ele>560.5</ele><time>2026-05-03T16:43:05Z</time></trkpt><trkpt lat="47.47102341310402" lon="6.927874556236071"><ele>560.0</ele><time>2026-05-03T16:43:07Z</time></trkpt><trkpt lat="47.47107533670938" lon="6.92780872134213"><ele>559.5</ele><time>2026-05-03T16:43:08Z</time></trkpt><trkpt lat="47.47115315869024" lon="6.927729235483962"><ele>559.0</ele><time>2026-05-03T16:43:09Z</time></trkpt><trkpt lat="47.471235514011404" lon="6.927676973197201"><ele>558.5</ele><time>2026-05-03T16:43:10Z</time></trkpt><trkpt lat="47.47132841282454" lon="6.927622880026218"><ele>558.0</ele><time>2026-05-03T16:43:11Z</time></trkpt><trkpt lat="47.47142927545604" lon="6.927604147185098"><ele>557.0</ele><time>2026-05-03T16:43:12Z</time></trkpt><trkpt lat="47.471543788421" lon="6.9275746250138415"><ele>556.0</ele><time>2026-05-03T16:43:13Z</time></trkpt><trkpt lat="47.471668957632744" lon="6.9275384151402655"><ele>555.0</ele><time>2026-05-03T16:43:14Z</time></trkpt><trkpt lat="47.47182611372834" lon="6.927531096917399"><ele>554.0</ele><time>2026-05-03T16:43:15Z</time></trkpt><trkpt lat="47.47198361809689" lon="6.927562232756707"><ele>558.0</ele><time>2026-05-03T16:43:16Z</time></trkpt><trkpt lat="47.47212204816635" lon="6.927694185439953"><ele>562.0</ele><time>2026-05-03T16:43:17Z</time></trkpt><trkpt lat="47.47222628647444" lon="6.927730072202373"><ele>566.0</ele><time>2026-05-03T16:43:18Z</time></trkpt><trkpt lat="47.47231025076784" lon="6.927837016160709"><ele>570.0</ele><time>2026-05-03T16:43:19Z</time></trkpt><trkpt lat="47.47239832275869" lon="6.92788108121378"><ele>570.0</ele><time>2026-05-03T16:43:20Z</time></trkpt><trkpt lat="47.47250026141195" lon="6.927929878917747"><ele>570.0</ele><time>2026-05-03T16:43:21Z</time></trkpt><trkpt lat="47.47257782112297" lon="6.9279735169477"><ele>570.0</ele><time>2026-05-03T16:43:22Z</time></trkpt><trkpt lat="47.472631750742934" lon="6.928088284225354"><ele>570.0</ele><time>2026-05-03T16:43:23Z</time></trkpt><trkpt lat="47.47268237132062" lon="6.92820152500837"><ele>570.0</ele><time>2026-05-03T16:43:25Z</time></trkpt><trkpt lat="47.47274988885809" lon="6.928232754581344"><ele>570.0</ele><time>2026-05-03T16:43:26Z</time></trkpt><trkpt lat="47.47285242452804" lon="6.928276040465034"><ele>569.2</ele><time>2026-05-03T16:43:27Z</time></trkpt><trkpt lat="47.472943379667626" lon="6.928313568448316"><ele>568.4</ele><time>2026-05-03T16:43:28Z</time></trkpt><trkpt lat="47.47303134151797" lon="6.928330026398291"><ele>567.6</ele><time>2026-05-03T16:43:29Z</time></trkpt><trkpt lat="47.47311575883338" lon="6.928376184017856"><ele>566.8</ele><time>2026-05-03T16:43:30Z</time></trkpt><trkpt lat="47.473206619528504" lon="6.928397038071698"><ele>566.0</ele><time>2026-05-03T16:43:31Z</time></trkpt><trkpt lat="47.47348377584947" lon="6.928420230932887"><ele>568.0</ele><time>2026-05-03T16:43:33Z</time></trkpt><trkpt lat="47.47383006806567" lon="6.928426843796138"><ele>570.0</ele><time>2026-05-03T16:43:36Z</time></trkpt><trkpt lat="47.47390335211145" lon="6.928443672356148"><ele>572.0</ele><time>2026-05-03T16:43:39Z</time></trkpt><trkpt lat="47.474040163061524" lon="6.9284939419891085"><ele>572.0</ele><time>2026-05-03T16:43:41Z</time></trkpt><trkpt lat="47.47431142077498" lon="6.9285497935472184"><ele>572.0</ele><time>2026-05-03T16:43:46Z</time></trkpt><trkpt lat="47.47463138500671" lon="6.928500621992236"><ele>570.0</ele><time>2026-05-03T16:43:49Z</time></trkpt><trkpt lat="47.47488906750365" lon="6.928500868980909"><ele>568.0</ele><time>2026-05-03T16:43:53Z</time></trkpt><trkpt lat="47.47496464469781" lon="6.928432962746576"><ele>566.0</ele><time>2026-05-03T16:43:55Z</time></trkpt><trkpt lat="47.4750237435164" lon="6.928364339719649"><ele>564.0</ele><time>2026-05-03T16:43:57Z</time></trkpt><trkpt lat="47.475121900189656" lon="6.92839768628984"><ele>564.0</ele><time>2026-05-03T16:43:59Z</time></trkpt><trkpt lat="47.47519588845354" lon="6.928413106768744"><ele>564.0</ele><time>2026-05-03T16:44:00Z</time></trkpt><trkpt lat="47.475281202806606" lon="6.92843032214686"><ele>564.0</ele><time>2026-05-03T16:44:01Z</time></trkpt><trkpt lat="47.47538129727946" lon="6.928446982261772"><ele>564.0</ele><time>2026-05-03T16:44:02Z</time></trkpt><trkpt lat="47.47544267952684" lon="6.9283746412500005"><ele>564.0</ele><time>2026-05-03T16:44:03Z</time></trkpt><trkpt lat="47.47549941041588" lon="6.928330756157058"><ele>564.0</ele><time>2026-05-03T16:44:05Z</time></trkpt><trkpt lat="47.475577135250994" lon="6.9283383308747215"><ele>559.0</ele><time>2026-05-03T16:44:06Z</time></trkpt><trkpt lat="47.47568253639999" lon="6.928268113012895"><ele>554.0</ele><time>2026-05-03T16:44:08Z</time></trkpt><trkpt lat="47.47581826679258" lon="6.9282112810739145"><ele>549.0</ele><time>2026-05-03T16:44:10Z</time></trkpt><trkpt lat="47.47593261680562" lon="6.928197018721031"><ele>544.0</ele><time>2026-05-03T16:44:12Z</time></trkpt><trkpt lat="47.47599585802362" lon="6.928195048261825"><ele>539.0</ele><time>2026-05-03T16:44:13Z</time></trkpt><trkpt lat="47.47611592895456" lon="6.928158495951646"><ele>539.0</ele><time>2026-05-03T16:44:15Z</time></trkpt><trkpt lat="47.47618874412618" lon="6.928153660351993"><ele>539.0</ele><time>2026-05-03T16:44:16Z</time></trkpt><trkpt lat="47.476308763377624" lon="6.92816758745526"><ele>539.0</ele><time>2026-05-03T16:44:18Z</time></trkpt><trkpt lat="47.47635347946245" lon="6.928084034412837"><ele>539.0</ele><time>2026-05-03T16:44:19Z</time></trkpt><trkpt lat="47.47629000261917" lon="6.92781040260794"><ele>539.0</ele><time>2026-05-03T16:44:21Z</time></trkpt><trkpt lat="47.47625255653531" lon="6.9276694874068525"><ele>539.0</ele><time>2026-05-03T16:44:23Z</time></trkpt><trkpt lat="47.47621113795768" lon="6.927457161850185"><ele>539.0</ele><time>2026-05-03T16:44:25Z</time></trkpt><trkpt lat="47.476213451204124" lon="6.927349620220394"><ele>539.0</ele><time>2026-05-03T16:44:26Z</time></trkpt><trkpt lat="47.47624283569801" lon="6.927238700442783"><ele>539.0</ele><time>2026-05-03T16:44:27Z</time></trkpt><trkpt lat="47.476262914937145" lon="6.9271209713094635"><ele>537.4</ele><time>2026-05-03T16:44:28Z</time></trkpt><trkpt lat="47.47626787493585" lon="6.926944043631016"><ele>535.8</ele><time>2026-05-03T16:44:30Z</time></trkpt><trkpt lat="47.476226335601865" lon="6.926867457936589"><ele>534.2</ele><time>2026-05-03T16:44:31Z</time></trkpt><trkpt lat="47.47617515947198" lon="6.926680988662215"><ele>532.6</ele><time>2026-05-03T16:44:33Z</time></trkpt><trkpt lat="47.47610089897698" lon="6.926723629964372"><ele>531.0</ele><time>2026-05-03T16:44:34Z</time></trkpt><trkpt lat="47.476044727096685" lon="6.9266574217561585"><ele>530.6</ele><time>2026-05-03T16:44:36Z</time></trkpt><trkpt lat="47.47599413100463" lon="6.9265928152364165"><ele>530.2</ele><time>2026-05-03T16:44:37Z</time></trkpt><trkpt lat="47.47592458044797" lon="6.9265639878422185"><ele>529.8</ele><time>2026-05-03T16:44:38Z</time></trkpt><trkpt lat="47.475768135320656" lon="6.926422857255627"><ele>529.4</ele><time>2026-05-03T16:44:40Z</time></trkpt><trkpt lat="47.475673038390326" lon="6.9263190872969576"><ele>529.0</ele><time>2026-05-03T16:44:41Z</time></trkpt><trkpt lat="47.475607952960175" lon="6.926269683485776"><ele>529.0</ele><time>2026-05-03T16:44:42Z</time></trkpt><trkpt lat="47.47554716727879" lon="6.926197961705582"><ele>529.0</ele><time>2026-05-03T16:44:43Z</time></trkpt><trkpt lat="47.47547122199692" lon="6.926118518453579"><ele>529.0</ele><time>2026-05-03T16:44:44Z</time></trkpt><trkpt lat="47.475421466311936" lon="6.926055972719313"><ele>529.0</ele><time>2026-05-03T16:44:45Z</time></trkpt><trkpt lat="47.47539608115074" lon="6.925963688673184"><ele>529.0</ele><time>2026-05-03T16:44:46Z</time></trkpt><trkpt lat="47.475415465749684" lon="6.9258276081760135"><ele>529.0</ele><time>2026-05-03T16:44:48Z</time></trkpt><trkpt lat="47.475417686835506" lon="6.9256935014596035"><ele>528.8</ele><time>2026-05-03T16:44:50Z</time></trkpt><trkpt lat="47.47543570281668" lon="6.9255368367863746"><ele>528.5999999999999</ele><time>2026-05-03T16:44:52Z</time></trkpt><trkpt lat="47.475359341659114" lon="6.925514688023026"><ele>528.4</ele><time>2026-05-03T16:44:54Z</time></trkpt><trkpt lat="47.47529892733338" lon="6.925413924405859"><ele>528.1999999999999</ele><time>2026-05-03T16:44:57Z</time></trkpt><trkpt lat="47.4752266162512" lon="6.925509213943524"><ele>528.0</ele><time>2026-05-03T16:44:59Z</time></trkpt><trkpt lat="47.475107633581906" lon="6.925479341761491"><ele>528.0</ele><time>2026-05-03T16:45:02Z</time></trkpt><trkpt lat="47.475028572743184" lon="6.925458889512586"><ele>528.0</ele><time>2026-05-03T16:45:04Z</time></trkpt><trkpt lat="47.474950304381196" lon="6.9254034823924435"><ele>528.0</ele><time>2026-05-03T16:45:07Z</time></trkpt><trkpt lat="47.47506143999338" lon="6.924980932645779"><ele>527.1666666666666</ele><time>2026-05-03T16:45:09Z</time></trkpt><trkpt lat="47.47502845006799" lon="6.924869357354651"><ele>526.3333333333334</ele><time>2026-05-03T16:45:11Z</time></trkpt><trkpt lat="47.47498225245446" lon="6.924738588001149"><ele>525.5</ele><time>2026-05-03T16:45:13Z</time></trkpt><trkpt lat="47.47494800068963" lon="6.924635050167366"><ele>524.6666666666667</ele><time>2026-05-03T16:45:14Z</time></trkpt><trkpt lat="47.47493426023721" lon="6.924501090339234"><ele>523.8333333333334</ele><time>2026-05-03T16:45:16Z</time></trkpt><trkpt lat="47.47491605591654" lon="6.924371082193833"><ele>523.0</ele><time>2026-05-03T16:45:18Z</time></trkpt><trkpt lat="47.47491993643668" lon="6.924216898723751"><ele>522.1666666666667</ele><time>2026-05-03T16:45:22Z</time></trkpt><trkpt lat="47.47494093545444" lon="6.924124712698851"><ele>521.3333333333334</ele><time>2026-05-03T16:45:24Z</time></trkpt><trkpt lat="47.474975822446055" lon="6.92402004336989"><ele>520.5</ele><time>2026-05-03T16:45:26Z</time></trkpt><trkpt lat="47.474990749846974" lon="6.923893312119336"><ele>519.6666666666666</ele><time>2026-05-03T16:45:28Z</time></trkpt><trkpt lat="47.47499788569687" lon="6.923737056328215"><ele>518.8333333333333</ele><time>2026-05-03T16:45:30Z</time></trkpt><trkpt lat="47.47495663328687" lon="6.9236534278475474"><ele>518.0</ele><time>2026-05-03T16:45:31Z</time></trkpt><trkpt lat="47.47489893784738" lon="6.923493583620001"><ele>516.0</ele><time>2026-05-03T16:45:33Z</time></trkpt><trkpt lat="47.47488879063437" lon="6.9233521218552045"><ele>514.0</ele><time>2026-05-03T16:45:35Z</time></trkpt><trkpt lat="47.47485519907056" lon="6.9232425679944045"><ele>512.0</ele><time>2026-05-03T16:45:37Z</time></trkpt><trkpt lat="47.47480477911007" lon="6.923174662994516"><ele>510.0</ele><time>2026-05-03T16:45:38Z</time></trkpt><trkpt lat="47.474753853772725" lon="6.923065838045262"><ele>507.99999999999994</ele><time>2026-05-03T16:45:40Z</time></trkpt><trkpt lat="47.47475081618377" lon="6.922965819433915"><ele>506.0</ele><time>2026-05-03T16:45:41Z</time></trkpt><trkpt lat="47.47471546848196" lon="6.922887827532031"><ele>506.0</ele><time>2026-05-03T16:45:42Z</time></trkpt><trkpt lat="47.47465379050619" lon="6.922765785994678"><ele>506.0</ele><time>2026-05-03T16:45:44Z</time></trkpt><trkpt lat="47.47462370710218" lon="6.922648661924146"><ele>506.0</ele><time>2026-05-03T16:45:46Z</time></trkpt><trkpt lat="47.474544739962305" lon="6.922620376757953"><ele>506.0</ele><time>2026-05-03T16:45:48Z</time></trkpt><trkpt lat="47.47443328941138" lon="6.922557626608312"><ele>506.0</ele><time>2026-05-03T16:45:50Z</time></trkpt><trkpt lat="47.4743635814933" lon="6.922518368982069"><ele>504.66666666666663</ele><time>2026-05-03T16:45:52Z</time></trkpt><trkpt lat="47.47435101416471" lon="6.922422965908343"><ele>503.3333333333333</ele><time>2026-05-03T16:45:57Z</time></trkpt><trkpt lat="47.47442266698443" lon="6.922383764282796"><ele>502.0</ele><time>2026-05-03T16:46:01Z</time></trkpt><trkpt lat="47.474538612251315" lon="6.922400196186885"><ele>500.66666666666663</ele><time>2026-05-03T16:46:02Z</time></trkpt><trkpt lat="47.474626975048594" lon="6.922374460610173"><ele>499.3333333333333</ele><time>2026-05-03T16:46:03Z</time></trkpt><trkpt lat="47.474708675142466" lon="6.922342988592562"><ele>498.0</ele><time>2026-05-03T16:46:04Z</time></trkpt><trkpt lat="47.474823598857995" lon="6.9222830365678645"><ele>495.33333333333337</ele><time>2026-05-03T16:46:05Z</time></trkpt><trkpt lat="47.47496287148517" lon="6.922197207556844"><ele>492.6666666666667</ele><time>2026-05-03T16:46:06Z</time></trkpt><trkpt lat="47.47519252562772" lon="6.92206996667778"><ele>490.0</ele><time>2026-05-03T16:46:07Z</time></trkpt><trkpt lat="47.47540965750977" lon="6.921906513934514"><ele>492.33333333333337</ele><time>2026-05-03T16:46:08Z</time></trkpt><trkpt lat="47.47555048722896" lon="6.92174782156084"><ele>494.66666666666663</ele><time>2026-05-03T16:46:09Z</time></trkpt><trkpt lat="47.47569377944182" lon="6.921557302012597"><ele>497.0</ele><time>2026-05-03T16:46:10Z</time></trkpt><trkpt lat="47.47580192881381" lon="6.9213241464542765"><ele>491.0</ele><time>2026-05-03T16:46:11Z</time></trkpt><trkpt lat="47.47594395534157" lon="6.921106599192212"><ele>485.0</ele><time>2026-05-03T16:46:12Z</time></trkpt><trkpt lat="47.476082058459625" lon="6.920873699024518"><ele>479.0</ele><time>2026-05-03T16:46:13Z</time></trkpt><trkpt lat="47.47622722570187" lon="6.920608325576537"><ele>479.5</ele><time>2026-05-03T16:46:14Z</time></trkpt><trkpt lat="47.4763585291733" lon="6.920245523927256"><ele>480.0</ele><time>2026-05-03T16:46:15Z</time></trkpt><trkpt lat="47.47647449632875" lon="6.9200005410173695"><ele>476.0</ele><time>2026-05-03T16:46:16Z</time></trkpt><trkpt lat="47.476600650829035" lon="6.919697067362326"><ele>472.0</ele><time>2026-05-03T16:46:17Z</time></trkpt><trkpt lat="47.4766909123922" lon="6.919522413166305"><ele>468.0</ele><time>2026-05-03T16:46:18Z</time></trkpt><trkpt lat="47.4768036128403" lon="6.919308887859225"><ele>465.0</ele><time>2026-05-03T16:46:19Z</time></trkpt><trkpt lat="47.47688127698288" lon="6.91910282136008"><ele>462.0</ele><time>2026-05-03T16:46:20Z</time></trkpt><trkpt lat="47.476975721773286" lon="6.918923587420986"><ele>459.0</ele><time>2026-05-03T16:46:21Z</time></trkpt><trkpt lat="47.47703892672687" lon="6.918706398056232"><ele>460.0</ele><time>2026-05-03T16:46:22Z</time></trkpt><trkpt lat="47.47711323753607" lon="6.918451546305613"><ele>461.0</ele><time>2026-05-03T16:46:23Z</time></trkpt><trkpt lat="47.4771977155514" lon="6.918171062293574"><ele>462.0</ele><time>2026-05-03T16:46:24Z</time></trkpt><trkpt lat="47.47727582502617" lon="6.917931629385561"><ele>462.0</ele><time>2026-05-03T16:46:25Z</time></trkpt><trkpt lat="47.477341113436935" lon="6.917728457632987"><ele>462.0</ele><time>2026-05-03T16:46:26Z</time></trkpt><trkpt lat="47.47740040984411" lon="6.917527208349489"><ele>462.0</ele><time>2026-05-03T16:46:27Z</time></trkpt><trkpt lat="47.47745482159957" lon="6.917325186099603"><ele>462.0</ele><time>2026-05-03T16:46:28Z</time></trkpt><trkpt lat="47.477513221386154" lon="6.917138672376571"><ele>460.5</ele><time>2026-05-03T16:46:29Z</time></trkpt><trkpt lat="47.477530002418206" lon="6.9170063175901655"><ele>459.0</ele><time>2026-05-03T16:46:30Z</time></trkpt><trkpt lat="47.47756283576056" lon="6.916897830218137"><ele>457.5</ele><time>2026-05-03T16:46:31Z</time></trkpt><trkpt lat="47.477568934436114" lon="6.916790158235721"><ele>456.0</ele><time>2026-05-03T16:46:32Z</time></trkpt><trkpt lat="47.47758108198532" lon="6.916681965268456"><ele>454.5</ele><time>2026-05-03T16:46:33Z</time></trkpt><trkpt lat="47.47758728291169" lon="6.91655652277431"><ele>453.0</ele><time>2026-05-03T16:46:35Z</time></trkpt><trkpt lat="47.477589009415325" lon="6.9164501823275515"><ele>446.0</ele><time>2026-05-03T16:46:37Z</time></trkpt><trkpt lat="47.47757333404349" lon="6.916332369280962"><ele>446.0</ele><time>2026-05-03T16:46:40Z</time></trkpt><trkpt lat="47.47741109360258" lon="6.916323951180432"><ele>446.0</ele><time>2026-05-03T16:46:43Z</time></trkpt><trkpt lat="47.4773458043238" lon="6.9163042465714275"><ele>446.0</ele><time>2026-05-03T16:46:46Z</time></trkpt><trkpt lat="47.477282826668166" lon="6.916285239821299"><ele>446.0</ele><time>2026-05-03T16:46:49Z</time></trkpt><trkpt lat="47.4772674237519" lon="6.916184789766314"><ele>446.0</ele><time>2026-05-03T16:47:04Z</time></trkpt></trkseg></trk></gpx>